GFSGBSN_con_lsi_000.txt.gz
Lid_Strength_Index
4 4 4 4 4 4 4 4 4 4 4 4 4 4 3 3 3 4 4 5 5 4 4 4 4 3 6 10 12 8 1 3 2 3 7 7 6 7 9 9 7 9 7 6 6 7 6
4 4 4 4 4 4 4 4 5 4 4 4 4 4 4 4 4 4 3 3 4 5 5 5 5 4 8 13 8 8 6 8 7 4 6 8 8 6 8 8 8 7 7 7 6 6 6
4 5 5 5 4 4 5 5 4 4 4 4 4 4 4 4 4 4 4 3 4 4 4 5 4 6 9 11 6 6 6 8 9 6 6 6 7 8 9 11 9 9 11 9 9 8 8
5 5 5 5 5 5 5 5 4 4 4 4 4 4 4 4 4 4 4 3 3 4 4 4 4 6 11 6 6 7 6 7 7 9 7 5 5 8 11 10 10 12 12 14 10 9 8
5 5 5 5 5 5 5 5 4 5 4 4 4 4 4 4 4 4 4 4 4 4 4 5 7 8 12 5 8 6 7 9 8 10 10 7 7 10 11 12 13 14 15 14 13 10 10
5 5 5 5 5 6 6 5 5 5 5 5 4 4 4 4 4 4 4 4 4 5 5 5 7 11 9 11 8 7 7 7 10 11 11 11 11 12 13 14 16 16 16 14 14 11 10
5 5 5 5 6 6 5 5 5 5 5 5 5 4 4 5 4 4 6 10 11 10 8 11 11 11 10 7 6 7 7 8 9 11 15 12 14 14 13 12 12 13 14 15 13 10 11
5 5 5 5 5 5 5 5 5 5 5 5 4 4 4 4 4 3 6 10 8 8 12 8 8 9 7 7 10 8 7 11 11 14 13 12 15 12 11 11 12 13 14 15 12 10 10
5 5 5 5 5 5 5 5 6 5 5 4 4 4 2 1 1 5 8 6 3 5 11 10 8 9 9 8 10 11 7 10 11 14 13 15 13 10 11 12 13 14 14 14 14 11 10
6 6 5 5 5 5 5 5 5 5 4 3 2 0 0 -0 4 6 5 3 1 2 12 11 9 8 8 9 12 8 7 9 11 13 13 13 11 11 11 11 11 14 11 12 12 12 16
6 6 5 5 5 5 5 5 4 3 2 0 -0 -0 -1 -0 3 4 3 2 2 3 19 10 8 4 6 10 10 10 7 9 12 13 12 15 13 12 12 11 9 12 9 11 11 13 16
6 5 5 5 5 4 4 4 3 1 -0 -1 -1 -1 -1 2 3 3 2 2 4 13 18 10 7 9 10 8 9 9 9 8 8 12 12 12 10 10 11 9 9 9 11 13 14 15 18
5 5 5 5 4 4 3 2 1 -0 -1 -1 -1 -1 0 0 6 3 3 5 14 18 9 10 10 9 10 10 10 10 11 12 13 15 15 13 13 11 10 12 10 11 14 19 21 20 19
5 5 5 4 4 3 2 1 -0 -0 -0 -1 -1 -0 1 1 3 2 5 9 17 12 11 8 9 9 11 10 11 10 11 13 12 13 14 16 17 13 10 12 13 12 12 18 21 20 17
5 5 5 4 3 2 1 0 -0 -0 -0 -1 0 3 4 3 2 2 8 14 14 12 9 10 9 11 11 11 11 11 12 12 11 12 15 15 15 11 10 9 10 12 15 12 16 15 17
5 5 4 4 2 1 0 -0 -1 -1 -1 -0 3 3 5 2 1 3 9 13 11 8 8 8 13 11 13 13 13 13 12 10 11 10 11 14 16 11 10 9 9 12 10 15 15 20 20
4 4 4 3 2 0 -0 -0 -1 -1 -1 0 5 8 5 1 1 6 13 11 9 7 7 10 11 12 12 13 13 14 13 10 11 12 11 14 15 14 12 13 13 14 14 14 13 16 18
4 4 3 2 1 -0 -1 -1 -1 -1 -0 1 4 11 4 1 9 8 11 9 7 8 6 8 8 10 11 11 13 14 14 13 11 11 14 12 16 16 14 11 9 10 12 13 16 17 15
4 4 3 2 0 -0 -1 -1 -1 -1 -1 2 7 7 4 3 12 11 9 9 8 9 8 9 9 8 9 11 15 13 13 11 10 11 13 12 16 18 16 14 12 13 12 12 14 14 15
5 5 3 2 0 -0 -1 -1 -1 -1 -1 5 6 11 9 6 6 9 10 11 11 7 8 8 9 8 9 10 11 13 13 11 10 10 8 12 16 16 17 16 14 15 13 12 13 16 15
5 5 3 2 1 0 -0 -1 -1 -1 -1 5 8 10 8 11 11 9 9 10 11 11 8 8 10 10 11 13 12 13 12 11 11 9 11 14 18 15 14 12 12 12 12 12 13 13 14
5 5 3 2 1 0 0 -1 -1 -1 -0 6 9 8 8 8 7 8 10 11 11 10 9 10 10 9 9 11 11 13 12 12 13 11 12 14 17 16 15 12 11 13 12 12 12 12 12
5 4 3 2 1 1 0 -0 -1 -1 1 4 4 4 6 8 9 10 10 10 10 8 8 8 8 9 10 9 7 8 9 10 10 12 13 15 16 18 19 14 13 16 12 12 12 11 11
5 4 3 2 1 1 0 -0 -1 -1 -1 2 3 4 7 10 9 9 9 8 9 9 10 8 7 10 8 6 6 7 10 10 10 11 11 14 15 16 19 15 18 13 10 10 11 11 11
5 4 3 2 2 1 -0 -1 -1 -1 -1 2 2 4 6 10 8 8 8 9 8 8 9 8 7 6 7 7 11 12 13 13 12 11 11 11 13 17 19 18 14 14 11 12 13 14 11
6 5 3 2 2 1 -0 -1 -1 -1 -1 1 2 2 4 8 10 7 8 8 10 10 9 9 7 6 8 10 12 17 16 15 15 13 11 12 12 16 17 19 19 14 11 9 9 15 11
6 5 3 2 2 1 -0 -1 -1 -1 -1 1 3 3 4 7 7 7 8 9 7 8 10 9 9 8 8 12 17 17 16 13 17 16 16 15 14 18 17 19 15 11 11 10 15 15 11
6 5 4 2 2 1 0 -1 -1 -1 -1 1 2 4 3 6 6 5 5 7 7 7 10 8 9 9 10 12 13 13 14 13 14 13 14 15 16 16 15 17 18 9 11 14 12 11 11
7 6 4 3 2 2 1 0 -1 -1 -1 0 4 4 2 5 6 5 4 4 5 5 6 7 9 8 8 11 11 11 13 12 13 16 11 15 13 15 14 14 10 9 9 8 9 11 11

GFSGBSN_con_lsi_003.txt.gz
Lid_Strength_Index
4 4 4 5 4 5 5 5 5 4 4 4 4 4 4 4 4 4 4 3 3 4 4 5 4 4 5 8 9 6 2 3 3 2 7 7 6 6 8 7 6 7 6 5 5 5 5
5 5 5 5 5 5 5 5 5 4 4 4 4 4 4 4 4 4 4 4 4 3 3 4 5 4 8 13 5 5 5 5 7 4 6 7 6 5 7 7 7 6 6 6 5 5 5
5 5 5 5 5 5 5 5 5 5 5 4 4 4 4 4 4 4 4 4 4 4 4 4 4 5 9 11 5 5 6 6 6 7 7 6 6 6 6 7 5 6 8 7 6 6 6
5 6 5 6 5 5 5 5 5 5 4 4 4 4 4 4 4 4 4 4 4 4 4 4 4 6 11 5 4 6 5 6 5 6 7 7 5 7 8 7 8 9 9 11 8 8 7
5 6 5 5 5 5 5 5 5 4 4 4 4 4 4 4 4 4 4 4 4 4 4 4 6 8 12 5 7 5 4 7 7 7 7 8 6 7 8 10 11 10 12 12 10 8 8
5 5 5 5 5 5 5 5 5 5 5 4 4 4 4 4 4 4 4 5 5 5 5 5 6 10 10 11 7 6 4 5 7 9 10 10 9 10 10 11 14 12 12 11 11 9 9
5 5 5 5 5 5 5 5 5 5 5 4 4 4 4 4 4 4 5 7 9 9 9 10 11 11 10 7 7 8 5 6 6 10 12 11 12 13 12 10 10 10 11 11 9 9 10
6 5 5 5 5 5 5 5 5 5 4 4 4 4 4 4 4 4 7 9 8 9 12 9 9 9 8 7 11 9 7 9 10 12 11 12 14 11 10 10 11 11 12 11 10 10 10
6 5 5 5 5 4 4 4 4 4 4 4 4 4 3 3 2 5 5 5 3 3 11 8 7 8 8 8 11 10 7 9 11 12 12 12 11 10 11 11 12 12 12 12 12 10 9
5 5 5 5 4 4 4 4 4 4 4 3 3 2 1 -0 3 3 4 2 1 2 11 10 8 7 6 7 11 7 7 8 10 12 11 11 9 11 12 12 11 13 10 11 11 12 14
6 5 5 4 4 4 4 4 4 4 3 2 1 -0 -1 -0 3 4 3 1 1 3 18 9 7 3 5 8 8 7 5 8 10 11 11 13 12 11 12 12 10 11 9 10 10 11 11
5 5 5 4 4 4 4 4 4 2 1 0 -1 -1 -0 1 2 2 1 1 2 12 18 10 7 7 8 7 6 6 7 6 7 9 10 10 9 9 10 9 9 8 9 9 9 10 15
5 5 5 4 4 4 4 3 2 1 -0 -1 -1 0 1 1 4 1 0 3 12 16 9 10 10 8 8 8 8 7 8 10 12 13 13 12 12 10 9 10 8 8 10 14 15 15 16
5 5 5 4 4 4 3 2 0 -0 -1 -1 -0 0 1 0 -1 -1 2 8 16 12 10 7 8 8 10 8 9 9 9 10 9 10 11 14 16 11 9 10 10 10 10 13 17 16 14
5 4 4 4 3 3 2 1 -0 -0 -1 -0 -0 0 1 -0 -0 -0 6 13 13 11 8 9 9 10 10 9 10 11 10 12 9 9 12 13 14 10 9 9 8 10 12 9 12 12 14
5 4 4 3 3 2 1 -0 -1 -1 -1 -1 2 2 2 -0 -1 3 9 12 10 7 7 8 12 10 12 11 11 12 12 10 11 8 9 11 14 10 10 8 9 9 8 12 12 16 17
5 5 4 4 3 1 0 -1 -1 -1 -1 -0 2 5 1 0 -0 6 12 11 9 6 6 9 10 11 10 11 11 13 13 11 10 9 9 10 12 12 10 11 11 11 11 10 10 11 15
6 5 5 4 3 1 0 -1 -1 -1 -1 1 3 8 1 0 8 8 10 9 7 8 6 7 8 9 10 10 11 13 13 12 9 9 12 9 11 13 12 9 8 9 10 9 12 14 12
6 6 5 4 2 1 0 -0 -1 -1 -1 1 6 7 2 2 11 10 8 8 7 8 8 8 9 8 7 10 13 12 11 9 9 10 11 9 11 14 13 11 9 10 9 9 9 10 13
6 6 5 3 2 1 1 -1 -1 -1 -1 2 5 9 5 5 5 9 10 9 10 6 7 7 8 7 9 10 9 12 12 10 9 9 7 9 12 13 14 12 11 12 10 9 9 12 12
6 5 4 3 2 1 1 0 -1 -1 -1 2 5 8 6 10 8 8 8 9 10 10 7 7 9 9 10 12 11 13 11 10 9 9 9 10 14 13 12 12 10 11 11 10 11 11 12
6 6 4 3 2 2 1 0 -1 -1 -0 3 6 7 5 7 7 8 9 10 10 9 9 9 10 8 8 10 10 12 11 11 11 10 10 10 13 12 13 11 10 11 10 10 10 10 10
6 6 4 3 3 2 2 0 -1 -1 -0 3 3 3 6 7 8 10 9 9 9 9 7 7 8 9 9 8 7 6 7 8 9 10 11 11 12 13 14 12 11 12 11 10 10 9 9
6 6 4 3 3 2 1 0 -1 -1 -1 1 2 4 7 10 8 9 8 9 9 9 10 8 7 9 6 4 5 5 7 9 8 9 9 11 12 12 13 12 16 13 9 9 11 10 9
6 6 5 3 2 2 1 1 -0 -1 -1 1 1 4 6 10 8 8 8 8 7 7 8 8 6 5 4 6 9 11 11 11 10 9 10 9 12 14 14 14 13 12 10 11 12 12 9
6 6 5 3 2 2 2 1 0 -0 -0 1 1 1 4 8 8 7 8 7 10 9 9 7 4 4 5 8 10 14 15 14 14 13 10 10 10 13 13 17 17 13 9 8 8 14 9
6 6 5 4 2 2 2 1 1 0 -0 0 1 1 4 7 6 6 8 8 6 8 10 8 7 7 5 10 13 14 14 11 15 15 14 13 13 15 13 15 15 10 8 8 15 13 9
6 6 6 4 2 2 2 1 1 0 0 1 2 3 4 6 6 5 5 6 6 7 10 7 8 7 8 11 12 13 13 13 13 12 13 15 15 15 13 16 18 9 9 12 10 8 8
6 6 6 5 3 2 2 1 1 0 0 1 3 3 3 6 6 3 4 3 4 4 6 6 8 8 7 10 9 10 13 12 13 16 11 15 12 14 13 14 9 8 9 8 8 8 8

GFSGBSN_con_lsi_006.txt.gz
Lid_Strength_Index
5 5 5 5 5 5 5 5 5 4 4 4 4 4 4 4 4 4 4 4 4 4 3 3 4 4 5 7 7 3 -0 1 5 3 5 5 6 6 7 6 6 6 5 4 4 4 4
5 5 5 5 5 5 5 5 5 5 5 4 4 4 4 4 4 4 3 3 3 4 4 4 3 4 6 11 5 3 3 3 4 5 5 5 6 5 5 5 6 5 5 5 4 4 4
5 5 5 5 5 5 5 5 5 5 4 4 4 4 4 4 3 3 3 3 3 3 3 3 3 4 7 8 4 4 4 4 4 5 5 4 4 5 5 6 4 5 6 6 5 5 5
5 5 5 5 5 5 5 4 4 4 4 4 4 3 3 3 3 3 3 3 3 4 4 3 3 5 9 5 4 5 4 4 4 4 5 4 4 5 5 4 5 6 6 9 6 5 5
5 5 5 5 5 5 5 4 4 4 4 4 4 3 4 3 4 3 4 4 4 4 3 3 5 6 10 4 7 5 4 5 4 4 4 5 6 7 6 9 9 7 10 9 8 5 6
5 5 5 5 5 5 5 4 4 4 4 4 4 3 3 3 4 4 4 4 4 4 4 4 5 9 8 10 7 5 4 4 5 5 6 7 8 9 9 9 12 10 9 8 8 6 6
5 5 5 5 4 4 4 4 4 4 4 4 4 3 3 3 4 4 4 5 7 7 7 9 9 9 8 7 7 7 6 5 5 6 9 7 10 11 10 9 8 8 8 9 7 6 6
6 5 5 4 4 4 4 4 4 4 4 4 4 4 4 3 4 4 4 7 7 7 10 7 8 8 7 7 10 8 6 9 8 10 8 8 11 9 7 8 9 9 10 9 7 6 7
5 5 5 4 4 4 4 4 4 4 4 4 4 4 3 3 2 3 4 4 2 3 9 8 7 8 7 6 9 8 7 8 9 9 9 10 10 7 8 9 10 10 10 10 10 8 7
5 5 5 4 4 4 4 4 4 4 3 3 3 2 1 1 2 1 3 1 0 0 10 9 7 5 4 5 8 5 5 8 8 10 8 9 7 8 8 10 9 11 9 9 9 10 12
5 5 5 5 4 4 4 4 4 4 3 2 1 0 -0 0 1 2 1 -0 -0 1 15 8 6 2 3 6 6 6 4 6 10 9 7 11 9 9 9 9 9 10 9 9 9 10 10
5 5 5 4 4 4 4 4 3 3 2 0 -0 -1 -0 -0 1 0 -1 -1 1 11 15 9 6 6 6 5 6 4 5 4 6 9 7 8 6 7 8 7 8 7 9 9 9 10 13
5 5 4 4 3 3 4 3 3 1 0 -1 -1 -1 -0 -1 2 -1 -1 2 11 14 7 9 9 7 7 7 7 6 7 8 9 11 11 8 9 7 7 8 8 8 10 13 14 13 14
5 5 4 4 3 3 3 3 2 0 -1 -1 -1 -0 -1 -1 -1 -1 1 8 15 10 10 7 7 7 9 7 8 8 8 9 7 8 9 11 12 9 8 8 10 9 10 13 16 14 12
5 5 5 4 4 3 3 2 1 -0 -1 -1 -1 -2 -1 -1 -1 -1 6 13 11 9 8 8 8 9 9 8 8 8 9 10 9 7 10 11 11 7 8 8 7 9 10 8 11 10 12
6 5 5 5 4 3 2 1 -0 -1 -1 -1 1 1 1 -1 -2 2 9 12 9 6 6 7 11 9 11 10 9 10 10 10 10 7 6 9 12 8 8 7 7 7 7 11 10 14 15
6 6 5 4 3 2 2 1 -0 -1 -1 -1 1 4 1 -2 -1 5 11 9 8 5 6 8 9 10 10 10 9 10 11 10 9 8 7 8 10 9 8 10 10 9 9 8 8 10 13
6 6 6 4 3 2 1 1 0 -1 -1 0 2 6 -0 -1 7 6 9 7 6 7 5 7 7 8 9 9 9 10 11 10 8 7 11 7 10 13 10 8 7 7 8 8 11 12 11
6 6 5 4 2 2 2 1 1 -0 -1 1 5 4 -1 1 10 10 7 7 6 7 7 7 8 7 7 9 11 10 9 8 8 9 11 9 10 13 11 8 8 9 8 7 7 8 11
6 6 5 3 3 2 2 1 1 -0 -1 0 4 7 4 3 5 8 9 8 8 5 6 6 7 7 8 9 8 11 11 9 8 8 7 8 10 11 12 11 9 10 9 8 8 10 10
6 6 5 3 3 2 2 1 1 0 -0 0 3 6 5 8 8 7 7 8 9 10 6 5 7 8 8 10 9 12 10 10 8 8 8 9 12 10 9 9 9 9 9 8 9 9 10
6 6 5 3 2 2 2 1 1 0 0 2 5 6 5 6 6 7 8 9 9 9 9 9 8 7 7 9 8 10 9 9 10 8 10 8 11 9 11 9 9 10 9 8 8 8 8
6 6 5 3 2 2 2 2 1 0 1 3 3 2 5 6 7 9 9 8 10 9 8 6 7 8 9 7 6 5 5 6 8 9 10 11 12 11 13 9 10 11 9 8 8 7 7
6 6 5 3 2 2 2 2 1 1 1 1 1 2 7 9 8 8 8 7 8 7 9 7 6 8 6 3 4 5 6 6 7 8 8 12 12 10 11 10 16 11 8 8 8 9 8
6 6 6 4 2 2 2 2 1 1 0 2 1 3 7 9 8 7 7 8 6 6 7 7 6 5 3 6 9 10 11 10 9 8 10 9 12 13 12 13 12 11 9 9 10 11 7
6 6 6 5 3 2 2 1 1 1 0 1 1 1 4 8 7 6 7 7 8 8 8 6 4 2 4 7 9 14 15 12 14 13 9 9 9 13 11 14 16 12 8 6 7 12 7
6 6 6 6 4 2 2 1 1 1 0 1 1 0 4 8 5 6 8 8 6 7 9 7 6 6 4 8 13 14 14 10 14 15 14 13 12 14 12 15 13 9 7 6 14 12 6
6 6 6 6 6 4 2 1 1 1 0 1 1 1 4 6 6 4 5 7 6 6 10 7 8 6 7 10 10 12 13 12 13 12 14 15 15 14 12 15 17 7 7 11 9 6 6
5 5 6 6 6 5 3 2 1 1 0 1 3 1 2 6 5 2 2 2 3 3 6 6 8 8 7 9 9 10 13 11 13 16 10 15 12 14 13 13 7 7 7 6 5 6 6

GFSGBSN_con_lsi_012.txt.gz
Lid_Strength_Index
5 4 4 4 4 4 4 4 4 4 4 4 4 3 3 3 3 3 3 3 3 3 3 3 3 3 4 8 7 2 -3 -1 2 2 5 6 8 8 9 6 5 6 6 5 4 4 4
4 4 4 4 4 5 4 4 4 4 4 4 3 3 3 3 3 3 3 3 3 3 3 3 3 3 6 11 4 3 3 3 3 3 3 3 5 6 8 7 6 5 5 5 5 5 4
5 5 4 4 5 4 4 4 4 4 4 3 3 3 4 4 3 3 3 3 3 3 3 3 3 4 7 9 4 4 4 5 4 4 5 3 2 4 5 8 6 6 7 6 5 5 5
5 4 4 4 4 4 4 4 4 4 4 3 3 3 3 3 3 3 3 3 3 3 3 3 3 4 9 5 4 5 4 5 5 5 5 4 3 4 5 5 6 7 7 9 6 5 5
4 4 4 4 4 4 4 4 4 4 4 4 3 3 4 4 3 3 3 3 3 3 3 3 4 6 9 3 6 4 4 6 6 5 5 4 5 6 5 7 8 8 10 9 8 5 6
4 4 4 4 4 4 4 4 4 4 4 4 3 3 3 4 4 3 3 3 3 3 3 3 3 7 6 7 6 5 4 4 6 6 6 7 7 8 8 9 12 10 10 9 9 7 6
4 4 4 4 4 4 4 4 4 4 4 3 3 3 3 3 3 3 4 4 6 7 5 7 6 7 7 6 5 7 6 7 7 7 9 7 9 11 10 8 8 8 8 9 8 6 7
4 5 4 4 4 4 4 4 4 4 3 3 3 3 3 3 3 4 4 6 6 6 10 7 7 7 6 6 9 8 6 9 9 11 8 9 11 8 7 8 8 9 9 9 7 6 7
4 3 4 4 4 4 4 4 4 3 3 3 3 4 3 3 2 2 2 3 1 2 9 8 6 7 6 6 8 8 7 8 10 11 10 10 10 7 8 8 9 9 9 9 9 7 7
4 4 4 4 4 4 4 4 4 4 3 3 3 3 2 -0 1 0 2 -0 -1 -0 9 8 7 6 5 5 8 4 4 6 9 11 10 11 8 9 8 9 8 10 8 8 8 9 12
4 5 5 4 4 4 4 4 4 4 3 2 2 1 -1 -1 1 2 1 -1 -1 2 17 7 6 2 3 5 5 5 3 5 9 9 9 13 11 10 10 9 7 9 6 7 8 9 9
5 5 5 4 4 4 4 4 3 3 2 1 1 -1 -1 -0 0 -0 -1 -1 1 12 17 9 6 7 7 6 6 4 4 3 4 7 8 10 8 9 9 8 7 6 7 8 8 9 13
5 5 5 5 5 4 4 4 3 2 2 1 0 -0 -0 -1 2 -1 -1 2 13 16 9 10 9 8 7 8 7 6 7 7 9 12 11 10 9 9 9 9 7 7 9 13 14 14 15
5 5 5 5 5 4 4 3 2 2 2 1 1 0 -1 -1 -1 -1 1 7 16 12 10 7 7 7 9 7 7 7 8 9 7 8 11 13 13 10 9 10 9 8 9 12 16 15 13
5 5 5 5 4 4 3 2 2 2 2 2 1 -0 0 -1 -2 -0 5 13 13 10 7 8 8 10 10 9 8 8 9 9 8 7 12 13 12 7 8 8 7 9 11 8 11 10 12
5 5 5 5 4 3 2 2 2 2 2 2 2 2 1 -1 -2 2 8 11 9 6 6 7 10 11 12 10 11 10 9 7 8 7 7 9 14 8 7 7 7 8 7 11 10 15 16
5 5 5 5 4 3 2 2 2 1 2 2 1 4 1 -1 -1 5 11 9 7 5 5 7 9 10 10 10 10 10 11 8 7 7 6 8 10 11 9 9 10 9 10 9 9 10 14
5 5 5 5 4 2 2 2 2 2 2 2 2 6 0 -1 7 7 9 7 6 7 5 6 6 8 9 9 10 10 12 11 7 7 10 8 12 14 11 7 6 7 9 9 12 13 11
5 5 5 5 4 3 2 2 2 1 2 2 5 4 0 1 10 9 7 7 6 7 7 7 7 7 6 8 11 11 9 7 7 8 10 10 12 16 13 10 8 9 8 8 9 9 12
4 5 5 5 4 4 3 2 1 1 1 2 4 7 4 3 4 7 8 8 9 5 6 6 7 6 8 9 8 11 10 7 7 7 7 8 12 13 16 13 11 12 9 8 9 12 11
4 4 5 5 5 4 4 3 1 1 1 1 4 6 5 8 7 7 7 8 9 8 6 6 8 7 8 10 9 10 8 8 7 7 8 10 14 12 11 11 12 12 9 9 9 9 11
4 4 4 3 4 4 4 4 3 1 1 2 5 6 5 7 6 7 7 8 8 7 7 8 8 8 7 9 9 11 8 8 10 7 9 9 14 12 13 12 12 13 10 8 8 8 9
3 3 3 3 3 4 4 4 3 2 1 2 2 2 6 7 7 7 8 7 8 7 6 6 7 9 8 7 6 6 5 6 7 8 9 9 13 14 16 13 13 15 11 9 8 7 8
3 3 3 3 3 4 4 4 4 3 2 2 2 3 6 9 7 8 8 6 7 7 8 6 6 8 6 3 4 5 6 6 7 7 7 9 12 13 16 15 20 10 7 7 8 7 7
3 3 3 3 3 4 4 4 4 4 2 2 1 3 5 9 7 7 7 7 7 6 7 7 5 4 3 5 10 12 11 9 8 7 8 7 11 15 18 17 14 11 9 9 9 11 8
3 3 3 2 3 4 4 5 4 4 3 2 1 0 3 7 7 5 7 7 9 8 8 6 4 3 4 8 11 14 16 14 15 12 8 9 9 14 15 19 21 14 8 6 7 14 7
3 3 3 2 2 2 4 5 4 4 4 3 2 -1 3 7 5 5 8 8 6 7 9 7 6 6 4 9 14 14 14 10 15 16 14 14 13 15 14 18 15 10 7 6 14 14 6
5 4 3 3 2 2 3 5 4 4 4 4 3 -0 2 6 5 4 3 6 6 7 10 7 8 7 8 11 12 12 13 11 13 11 14 15 16 15 13 17 19 8 8 12 9 6 6
5 4 3 3 3 2 3 4 4 4 4 4 5 -0 -1 5 5 2 2 1 2 3 6 6 8 8 8 11 9 10 12 11 13 16 10 15 13 14 13 14 9 7 8 6 5 6 5

GFSGBSN_con_lsi_015.txt.gz
Lid_Strength_Index
4 4 4 4 4 4 4 4 4 4 4 4 3 3 3 3 3 3 3 3 3 3 3 3 3 3 5 10 10 5 -3 -2 2 4 6 7 9 11 12 11 8 7 7 6 6 6 6
4 4 4 4 4 4 4 4 4 4 4 4 4 4 4 4 4 4 3 3 3 3 3 3 3 3 7 13 6 5 5 3 3 5 5 5 7 6 9 10 10 9 7 6 6 6 6
4 4 4 4 4 4 4 4 4 3 3 3 3 3 3 4 4 4 3 3 4 3 4 3 3 4 8 10 6 6 6 7 6 6 6 5 4 5 6 9 8 9 10 9 7 6 7
4 4 4 4 4 4 4 4 4 3 3 3 3 3 4 4 4 3 3 3 3 3 3 3 3 6 11 6 5 6 6 7 6 6 7 6 6 7 8 7 7 9 10 12 9 8 7
4 4 4 4 4 4 4 3 3 3 3 3 3 3 3 3 3 3 3 3 3 3 3 3 5 7 11 4 7 6 6 7 7 7 7 6 8 9 8 10 11 10 12 11 10 7 8
4 4 4 4 3 3 3 4 4 4 3 3 3 3 3 3 3 3 3 3 3 2 3 3 4 8 7 8 6 5 5 5 6 8 8 9 10 11 12 12 15 13 12 11 11 8 8
4 4 3 3 3 3 4 4 4 4 4 4 3 3 4 4 3 4 5 7 8 9 7 9 8 7 7 5 3 7 5 7 8 9 12 10 13 14 12 11 10 10 11 11 10 7 8
3 3 3 4 4 4 4 4 4 4 4 4 4 3 3 3 3 3 5 6 5 6 11 6 8 8 6 5 9 7 6 10 10 13 11 12 14 11 9 9 10 10 12 12 10 8 8
4 4 4 4 4 4 5 4 4 4 4 4 4 3 3 2 2 2 3 2 0 1 7 6 5 6 6 6 9 9 7 9 11 13 12 14 12 9 10 10 11 11 12 11 11 9 9
5 5 5 4 4 4 5 5 5 4 4 3 3 3 2 1 3 2 3 1 1 1 11 9 6 5 5 5 9 5 5 7 10 12 11 13 11 11 11 11 10 13 9 9 10 11 14
5 5 5 4 4 4 4 5 5 4 3 3 2 2 1 1 3 3 2 0 1 4 19 8 7 2 4 6 6 5 4 6 9 10 10 14 13 13 13 11 9 12 8 9 9 11 12
5 5 5 4 4 4 4 4 4 3 3 2 2 1 1 1 2 1 1 1 2 13 19 11 7 8 8 7 6 5 5 4 5 8 9 11 8 10 12 10 9 9 9 9 10 11 15
5 5 5 4 4 4 4 4 3 3 2 2 1 2 2 1 4 1 1 3 13 17 8 10 9 7 8 9 8 7 8 9 10 12 12 10 9 9 9 12 10 11 12 16 16 16 17
5 5 4 4 4 4 4 4 3 2 2 2 2 2 1 0 1 1 3 9 17 11 10 7 8 8 10 9 10 9 9 11 8 9 11 13 15 10 8 11 13 13 12 15 19 18 16
5 5 4 4 4 4 4 4 3 2 2 2 2 2 2 1 0 1 6 14 15 11 8 9 8 11 10 9 10 10 10 10 9 8 13 14 13 8 8 8 9 12 14 11 14 13 14
5 5 5 4 4 4 4 4 4 2 2 2 4 4 3 1 0 3 9 12 10 7 7 8 12 9 12 10 11 12 12 9 11 8 8 11 14 10 9 8 9 10 10 14 13 18 18
4 4 4 4 4 4 4 4 4 3 2 2 4 6 3 1 1 7 13 11 8 7 7 9 10 10 10 11 11 11 11 9 8 9 8 10 12 12 10 11 12 11 13 12 12 13 16
3 4 3 4 4 4 4 4 4 3 2 3 4 9 2 2 8 9 11 8 6 7 6 7 7 9 10 9 11 11 12 10 7 8 11 9 13 16 12 9 8 9 11 12 14 15 13
4 3 3 3 3 3 4 4 4 4 3 4 6 6 2 3 12 12 8 7 7 8 7 8 8 8 9 11 13 11 10 7 7 8 10 10 14 18 14 11 9 11 10 11 11 11 13
4 3 3 3 3 3 4 4 4 4 3 4 5 10 6 5 6 9 9 9 9 6 7 6 7 8 9 11 9 11 11 7 7 7 7 8 12 15 18 14 12 14 13 11 11 13 13
4 3 3 3 3 3 3 4 4 4 4 4 5 8 7 11 10 8 8 9 10 10 7 7 8 8 10 12 11 11 10 9 7 7 8 10 15 12 12 11 11 12 12 12 13 11 13
4 3 3 3 3 3 3 4 4 4 4 5 7 7 6 8 8 8 9 10 10 9 9 10 11 9 9 12 11 13 10 10 11 8 10 9 14 13 15 11 11 13 12 12 12 11 10
4 3 3 2 3 3 3 4 4 4 4 6 4 4 6 8 9 9 10 9 9 8 7 7 8 10 10 9 7 7 7 7 8 9 10 11 13 14 17 12 13 15 13 12 11 10 10
4 4 3 3 3 2 3 4 4 4 4 5 5 4 7 10 9 9 8 8 8 8 10 7 7 9 7 4 5 6 7 7 7 8 8 11 13 13 17 14 20 13 9 9 10 10 8
5 4 4 3 3 3 2 4 4 4 4 5 5 5 6 10 8 8 8 8 7 7 8 8 6 5 4 6 11 13 12 11 10 8 8 8 11 15 18 18 14 12 11 12 12 13 9
5 5 5 3 3 2 2 3 3 4 4 5 6 4 4 8 9 6 8 7 10 10 9 8 5 4 6 9 12 16 18 15 15 13 9 9 10 14 16 19 21 14 10 9 9 16 9
5 5 5 5 3 3 2 2 3 4 4 5 7 5 4 7 6 6 8 9 6 8 10 8 8 8 6 11 14 16 16 11 16 16 15 14 14 16 16 17 15 10 10 9 16 15 8
5 5 5 5 4 3 2 2 3 3 4 5 6 5 6 6 6 5 4 6 7 7 10 8 9 8 9 12 13 13 14 13 14 13 14 15 16 16 15 17 19 11 10 13 10 8 7
5 5 5 5 5 4 3 2 2 3 3 4 7 5 2 5 5 3 3 3 3 4 7 7 8 8 8 11 11 11 13 12 13 16 10 15 13 14 14 14 10 10 9 7 6 7 7

GFSGBSN_con_lsi_018.txt.gz
Lid_Strength_Index
4 4 4 4 4 4 4 4 4 4 4 4 4 3 3 3 3 3 3 3 3 3 3 3 3 3 6 10 10 7 1 3 4 4 6 8 11 12 13 12 10 10 7 6 6 6 6
4 4 4 4 4 4 4 4 3 3 3 3 3 3 3 3 3 3 3 3 3 3 4 4 4 4 8 13 7 6 6 7 6 7 7 8 9 10 12 12 12 11 10 10 8 7 7
4 4 4 4 4 3 3 3 3 3 3 3 3 3 3 3 3 3 3 3 3 3 3 3 3 5 9 11 6 6 7 9 8 8 8 6 6 7 9 10 9 9 11 10 9 9 9
4 4 4 3 3 3 3 3 3 3 3 3 3 3 3 3 3 3 3 3 3 3 2 2 3 5 10 6 6 6 6 7 6 7 8 7 7 9 10 8 8 10 10 13 9 9 9
4 4 3 3 3 3 3 3 3 4 4 4 3 3 3 3 3 3 3 3 3 2 2 2 5 7 11 4 6 6 6 8 7 7 7 6 9 10 10 12 13 11 13 13 11 8 9
3 3 3 3 3 3 4 4 4 4 4 4 3 3 3 3 3 3 3 4 4 3 3 3 4 9 7 8 6 4 5 6 8 8 8 9 11 13 14 13 16 14 13 12 12 9 8
4 3 4 4 4 4 4 4 4 4 4 4 4 4 4 3 3 3 5 7 9 10 8 8 9 8 7 5 4 6 5 7 8 10 14 12 14 15 14 12 12 11 12 12 10 8 9
4 4 4 4 4 5 5 4 4 4 4 4 4 4 4 3 3 3 5 8 7 7 11 4 5 5 5 5 10 8 6 10 11 14 12 13 15 12 11 11 11 12 13 13 11 10 10
4 4 4 4 5 4 4 4 4 4 4 4 4 3 3 3 3 4 6 5 2 3 8 6 4 5 5 4 8 8 7 8 11 13 13 15 14 11 11 12 12 12 13 13 13 10 9
4 4 4 4 4 4 4 5 5 4 4 4 4 3 2 2 5 5 5 2 2 3 12 9 7 5 4 4 7 4 4 6 9 12 12 14 12 13 13 13 12 14 11 10 11 12 15
4 4 4 4 4 4 4 4 4 4 4 4 3 3 2 2 6 6 3 3 2 5 19 8 7 3 4 7 6 5 3 6 9 10 11 14 13 13 14 13 10 13 10 10 11 12 14
4 4 4 4 4 4 4 4 4 4 4 4 3 2 2 4 5 4 2 3 4 13 19 10 6 7 7 7 6 6 6 4 5 8 9 11 8 10 12 11 11 10 11 11 11 13 17
4 4 4 4 4 4 4 4 4 4 4 4 3 2 3 3 6 3 4 5 13 17 8 10 10 7 8 9 8 8 9 9 11 14 13 10 9 8 8 12 11 12 16 18 19 18 18
4 4 4 4 4 4 4 4 3 3 4 4 3 2 3 2 3 3 5 10 16 11 12 8 8 8 10 9 9 9 10 11 8 10 12 13 15 10 7 10 14 14 15 18 21 20 18
5 4 4 4 3 3 3 3 3 4 4 4 4 6 5 3 3 4 8 15 15 12 9 10 9 11 11 9 9 10 11 12 10 10 14 14 13 8 8 8 10 13 16 14 16 14 17
5 5 4 3 3 3 3 3 3 3 4 4 7 7 5 2 3 5 11 12 11 7 7 8 13 10 13 11 11 11 11 9 10 9 8 11 15 10 9 8 10 11 11 15 16 19 21
5 5 4 4 3 3 3 3 4 3 4 4 8 8 4 3 3 8 15 11 9 6 6 9 10 11 11 12 11 11 12 9 8 9 8 11 12 12 9 11 13 13 13 14 14 15 19
5 5 4 4 3 3 3 3 4 4 4 7 9 10 4 4 10 11 13 9 6 7 6 7 8 9 11 10 12 11 12 10 7 8 11 10 13 16 13 10 8 10 12 13 17 18 15
4 5 4 4 3 3 3 3 4 3 4 7 10 9 4 4 14 15 10 8 7 8 8 8 9 8 9 11 13 11 10 7 7 8 11 10 14 17 15 12 10 11 11 11 12 14 16
4 4 4 4 3 3 3 3 4 3 3 6 11 12 9 9 9 12 11 10 10 6 7 7 8 8 10 11 9 12 10 8 7 7 7 8 12 15 18 14 12 14 12 11 13 16 15
4 4 4 4 3 3 3 3 4 3 4 7 10 12 9 12 10 10 10 9 11 11 8 7 9 9 11 13 12 12 10 9 8 7 8 10 15 13 12 12 11 12 12 12 13 13 16
5 4 4 4 4 3 3 3 4 3 4 8 12 11 7 8 9 10 10 11 10 9 9 10 11 9 9 12 11 13 11 11 11 9 10 9 14 13 14 12 12 13 11 11 12 12 13
5 5 4 4 4 4 3 3 3 3 4 10 9 9 9 8 9 10 10 9 10 8 8 7 8 9 10 9 7 7 7 8 8 10 11 12 13 14 17 13 13 16 13 12 12 10 11
5 5 5 4 4 4 3 3 2 3 4 7 9 7 9 11 9 10 8 8 9 8 10 8 7 9 7 5 6 6 7 8 8 8 8 11 13 13 17 15 21 13 10 10 11 10 9
4 5 5 5 4 4 4 3 3 3 3 8 8 7 9 11 9 9 8 8 8 7 8 8 7 6 5 7 11 13 12 11 11 9 10 9 11 15 18 18 14 13 11 12 13 13 10
5 5 5 5 5 4 4 4 3 2 3 7 8 8 8 10 11 7 9 8 10 10 9 8 6 5 7 9 12 16 17 15 16 13 9 10 10 13 16 19 20 14 10 8 9 16 9
5 5 5 5 5 5 4 4 3 2 2 5 7 7 8 10 8 7 9 9 7 8 10 8 8 8 8 12 17 16 16 12 16 16 15 14 14 16 16 18 15 13 11 9 16 16 9
5 5 5 6 5 5 5 4 4 3 2 4 7 6 8 10 8 7 6 8 7 8 10 8 9 8 11 13 13 14 14 13 14 13 14 15 16 16 15 18 19 9 11 13 10 8 8
6 6 6 6 6 5 5 5 4 3 2 2 6 6 6 7 8 5 5 4 5 5 7 6 8 8 8 11 11 11 13 12 13 16 10 15 13 14 14 14 12 9 8 7 7 8 7

GFSGBSN_con_lsi_024.txt.gz
Lid_Strength_Index
3 3 3 3 4 4 4 4 4 4 4 4 3 3 3 3 3 3 3 3 2 3 3 3 3 3 7 12 13 8 3 5 7 8 4 7 11 11 14 13 11 10 9 7 6 6 6
3 3 3 3 3 4 4 4 4 4 4 3 3 3 3 3 3 3 3 3 3 3 3 3 3 3 8 14 8 6 7 7 9 10 10 7 8 9 12 14 12 12 11 10 9 8 8
3 3 3 3 4 4 4 4 4 4 4 4 4 4 3 3 3 3 3 3 3 2 2 2 3 4 8 11 6 6 6 7 8 8 10 10 8 8 10 12 12 12 13 13 12 12 10
4 4 3 4 4 4 4 4 4 4 4 4 4 4 3 3 3 3 3 3 3 2 2 2 2 6 11 6 5 6 6 7 7 7 8 9 9 11 11 10 11 13 14 16 12 12 10
4 4 4 4 4 4 4 4 4 4 4 3 4 3 3 3 3 3 3 3 2 2 2 2 7 8 11 5 6 5 6 7 7 7 8 7 10 12 12 13 15 14 15 16 14 11 11
4 4 3 4 4 4 4 4 4 4 3 3 3 3 4 3 3 3 3 3 3 3 3 3 4 10 10 10 8 7 6 7 8 9 10 11 12 15 15 14 17 16 16 14 14 12 11
4 4 4 4 3 4 3 3 3 4 4 4 3 3 3 3 3 3 5 8 9 10 10 11 10 11 10 8 6 7 6 8 9 11 14 13 15 16 14 13 13 14 14 15 13 10 12
5 4 4 4 4 4 3 3 3 3 3 3 3 3 3 3 3 3 7 10 9 9 12 9 9 9 7 6 8 6 4 9 10 14 13 14 16 14 12 13 14 14 15 16 13 11 12
5 4 4 4 4 4 3 3 3 3 3 3 3 3 3 3 3 7 9 8 7 9 13 10 8 7 5 5 6 6 5 7 9 11 13 15 14 11 12 13 14 15 15 15 14 12 11
5 5 5 4 4 4 3 3 4 3 3 3 3 3 4 4 7 8 8 6 6 8 17 12 8 6 4 5 7 3 3 6 8 11 10 12 10 12 13 14 13 17 13 13 13 14 17
5 5 5 4 4 4 3 4 4 3 3 3 3 3 4 4 8 9 7 6 7 10 21 10 8 3 4 7 6 5 3 6 9 10 10 12 11 12 13 13 12 15 12 13 13 15 17
5 4 4 4 4 4 3 4 4 4 4 3 3 3 3 6 7 6 5 7 8 16 21 11 7 8 8 7 7 5 5 4 5 9 9 10 8 9 10 10 10 11 13 13 14 16 19
5 5 4 4 4 4 4 3 4 3 3 3 3 3 5 5 9 6 7 9 16 19 11 11 10 8 9 9 8 8 8 10 12 15 14 11 10 9 8 11 10 12 16 20 21 21 20
4 4 4 4 4 4 4 4 4 4 4 4 4 5 5 5 6 6 9 13 18 13 12 8 9 9 11 9 9 9 10 12 9 11 14 16 16 10 8 11 13 13 15 20 21 21 20
4 4 4 4 4 3 4 4 4 4 4 4 5 8 8 7 5 8 11 17 17 13 9 10 10 12 12 10 10 10 11 12 10 10 14 15 15 9 8 8 10 13 16 13 17 18 21
4 4 4 4 4 4 4 4 4 4 4 4 9 9 8 6 7 9 12 13 13 9 8 9 13 11 14 12 12 12 12 9 10 8 8 11 15 10 8 8 8 11 11 17 19 21 22
4 4 4 4 4 4 4 4 4 4 4 5 10 10 7 6 7 11 16 14 11 7 7 9 11 12 11 12 12 13 12 9 8 9 8 10 13 12 10 12 13 12 14 14 17 18 21
4 5 5 4 4 4 4 4 4 4 5 6 11 13 7 7 13 15 16 11 8 8 6 8 9 10 11 11 12 12 12 10 7 8 11 10 13 16 13 9 9 11 13 13 17 19 19
5 5 4 4 5 5 4 4 5 4 5 6 10 11 7 8 18 18 12 10 9 9 9 9 10 9 9 11 14 11 11 7 7 9 11 11 14 17 15 13 11 13 11 12 14 16 19
5 5 5 5 4 4 4 4 4 4 5 7 10 14 12 11 12 14 12 10 11 7 8 8 9 8 10 11 10 12 11 8 8 8 6 9 13 15 17 14 13 14 12 11 14 18 18
5 4 4 4 4 4 4 4 4 4 5 9 12 14 12 15 14 14 11 10 11 11 8 8 10 9 11 13 12 12 11 10 8 7 9 10 14 13 13 12 12 12 13 12 14 15 17
5 4 4 4 4 5 5 5 4 4 6 11 15 14 12 14 12 13 12 12 11 10 9 10 11 9 10 12 11 13 11 11 12 9 10 10 14 13 14 11 12 14 12 12 12 14 15
5 4 4 4 4 5 5 5 5 4 7 12 11 11 11 13 14 15 14 11 10 9 8 7 8 10 11 9 7 8 8 8 9 11 11 12 13 15 17 12 13 16 13 12 12 12 13
4 4 4 4 5 5 5 5 5 4 6 8 9 9 11 15 14 13 12 11 11 10 10 8 7 9 7 5 7 8 9 9 9 9 9 12 13 13 17 15 21 12 9 10 12 11 11
4 4 4 5 5 6 6 6 5 5 4 8 8 9 11 13 13 12 11 10 10 9 9 8 7 6 7 10 12 13 13 12 11 11 10 9 12 15 18 18 14 12 11 12 13 13 10
4 5 5 5 6 6 6 6 5 5 4 6 8 7 9 12 14 10 12 12 13 11 9 8 6 7 10 13 15 16 17 15 15 13 11 10 10 14 16 19 21 14 10 8 9 16 9
5 5 6 6 6 6 6 6 5 5 5 5 7 7 8 11 10 10 11 13 10 9 10 8 7 10 11 14 16 16 16 12 16 16 15 14 14 16 16 17 15 11 9 8 16 15 9
6 6 6 6 6 6 6 6 5 5 5 5 6 7 8 10 10 7 9 11 11 9 10 9 9 11 12 14 14 14 15 13 14 13 14 15 16 16 15 17 19 10 11 13 10 8 8
6 6 6 6 6 6 6 6 6 5 4 5 8 7 6 9 9 6 6 6 7 7 7 7 8 9 9 12 13 11 13 12 13 16 11 15 14 14 14 14 11 11 12 10 9 10 7

GFSGBSN_con_lsi_027.txt.gz
Lid_Strength_Index
3 3 3 3 4 4 4 4 4 4 4 4 3 3 3 3 3 3 2 2 2 2 2 2 3 3 6 9 10 7 3 4 5 6 8 5 7 9 11 10 9 9 8 6 5 5 6
3 3 3 3 4 4 4 4 4 4 3 3 3 3 3 3 3 3 3 2 2 2 2 2 2 3 7 12 7 5 5 5 6 7 7 8 6 8 8 8 10 9 8 7 6 6 6
4 3 4 3 3 3 3 3 3 3 3 3 3 3 3 3 3 3 2 2 2 2 2 2 2 4 8 9 5 4 4 5 5 6 8 8 8 6 8 10 7 8 10 9 9 8 7
4 3 3 3 3 3 4 4 4 4 4 4 3 3 3 3 3 3 2 2 2 2 1 2 2 5 9 5 3 4 4 5 5 5 6 6 8 10 8 7 9 10 9 11 9 10 9
4 4 4 4 4 3 3 3 3 3 3 3 3 3 3 3 3 3 2 2 2 2 2 2 5 6 9 4 6 5 4 7 6 6 6 6 8 10 9 11 11 10 13 12 10 8 9
4 4 4 4 4 4 4 3 3 3 3 3 3 3 3 3 3 2 2 2 2 1 2 3 4 8 7 9 7 6 5 5 7 7 9 9 9 11 10 11 15 13 13 11 11 9 8
4 4 4 4 4 4 4 3 3 3 3 3 3 3 3 3 3 2 3 5 7 8 7 9 9 9 8 6 5 6 5 7 7 8 11 10 13 14 12 10 10 11 12 12 10 8 9
4 4 4 4 4 4 4 3 3 3 3 3 3 3 3 3 3 3 5 7 7 7 10 7 7 8 7 7 9 7 5 9 9 10 10 12 14 11 11 10 11 11 12 13 11 9 10
4 4 4 4 4 4 4 4 4 4 3 3 4 3 3 3 3 5 6 6 5 6 10 9 8 8 7 7 9 8 5 6 7 8 8 10 10 10 11 11 12 11 12 12 13 10 9
4 4 4 4 4 4 4 3 3 3 3 4 4 4 4 4 6 6 6 5 4 5 13 12 9 8 7 6 8 4 3 5 7 9 8 9 7 9 9 11 10 13 10 11 11 12 14
4 4 4 4 4 4 4 4 4 4 4 4 4 3 4 4 6 6 5 4 5 7 19 11 9 5 5 8 7 5 2 4 8 8 8 10 9 9 9 9 8 10 9 11 11 13 13
4 4 4 4 4 3 3 3 4 4 3 4 4 3 4 5 5 5 4 5 6 13 19 12 8 9 8 6 6 5 5 4 5 8 8 8 6 7 8 7 8 7 9 10 10 12 17
4 4 4 4 4 4 4 4 3 3 4 4 4 4 5 5 6 4 5 7 13 17 11 12 11 8 8 8 8 7 8 9 11 14 13 10 9 7 7 9 7 8 10 14 16 16 18
4 4 4 4 4 4 4 4 4 4 4 4 4 5 4 4 3 4 7 10 17 14 12 9 9 8 10 8 8 8 9 10 9 10 13 15 16 9 7 8 9 9 10 13 18 17 17
4 4 4 4 4 4 5 5 4 4 4 5 5 5 5 4 4 5 8 13 14 12 10 10 9 11 11 9 9 9 9 10 9 8 13 14 15 8 7 7 7 9 12 9 12 12 15
4 4 4 4 4 4 4 5 5 4 4 5 7 6 5 4 4 5 9 13 12 9 8 8 12 10 13 11 11 10 10 8 9 8 7 10 14 9 9 7 7 9 8 12 11 17 18
5 4 5 4 4 5 5 5 5 4 5 5 7 7 5 5 4 7 11 12 10 8 7 9 10 11 11 11 10 11 11 8 7 8 7 9 12 11 9 11 11 12 11 10 10 12 16
4 4 4 4 4 4 4 4 5 5 5 6 9 10 5 5 9 11 10 10 8 8 7 8 8 9 10 10 11 11 11 9 6 7 10 9 11 14 12 8 7 9 10 10 13 14 14
4 4 4 4 4 4 4 5 5 4 5 7 10 10 6 6 12 11 10 10 9 9 8 8 9 8 8 10 13 11 10 7 6 7 9 9 12 15 12 11 9 10 9 9 10 11 14
4 4 4 3 4 4 4 5 5 5 5 7 10 12 10 9 10 12 12 11 11 7 8 7 8 8 9 11 9 12 11 8 6 7 6 7 11 13 15 13 11 12 11 9 11 14 13
4 4 4 3 3 4 4 5 5 5 5 8 11 12 11 13 12 12 11 11 11 11 8 7 9 9 11 13 11 11 10 9 8 7 7 9 14 11 11 10 10 11 11 11 12 11 14
5 4 4 4 4 4 4 5 5 5 6 9 13 13 11 13 12 11 11 11 11 10 10 10 10 9 9 12 11 12 10 10 11 9 9 9 14 11 13 11 11 12 10 10 10 10 11
4 4 4 4 4 4 5 5 5 5 6 10 10 10 11 12 12 12 11 11 11 10 9 7 8 9 10 9 8 7 7 8 9 10 11 12 13 13 15 11 11 14 11 10 10 9 10
4 4 4 4 5 5 5 5 5 5 5 8 9 9 12 14 13 11 10 10 11 10 9 7 7 9 7 5 6 7 8 9 9 9 9 12 12 12 15 13 19 10 8 9 10 10 9
4 4 4 5 5 5 5 5 5 5 5 7 8 9 12 14 12 11 10 10 10 9 9 8 6 6 5 7 10 12 11 11 11 10 11 10 12 15 16 16 12 11 10 11 12 11 8
4 4 5 5 6 6 5 5 5 5 5 5 7 7 10 13 12 10 10 10 11 10 9 7 6 5 7 9 11 15 16 14 15 13 10 10 10 13 14 17 18 13 9 8 9 15 7
4 5 5 5 5 5 5 5 5 5 4 5 6 6 9 12 10 10 11 11 9 10 10 9 8 7 7 10 14 14 15 12 16 16 15 14 14 16 15 16 13 10 8 7 16 13 8
5 5 5 5 5 5 5 5 5 5 5 5 6 7 9 11 10 8 7 9 9 10 11 8 8 8 8 11 12 13 14 13 14 13 14 15 15 16 15 17 18 9 10 12 9 7 8
5 5 5 5 5 5 5 5 5 5 5 5 7 5 6 10 10 6 5 4 6 6 8 7 8 8 7 10 10 10 13 12 13 16 11 15 13 14 14 14 10 10 12 8 6 7 8

GFSGBSN_con_lsi_030.txt.gz
Lid_Strength_Index
3 4 3 3 3 3 3 3 3 3 3 3 3 3 2 2 2 2 2 2 2 2 2 2 2 2 3 7 9 6 3 2 4 4 6 7 6 6 8 6 6 8 7 5 5 5 5
4 3 3 3 3 3 3 3 3 3 3 3 3 3 3 3 3 3 2 2 2 2 2 2 2 2 5 10 5 4 3 3 4 5 6 6 6 5 7 7 6 5 7 7 6 5 5
3 3 3 3 3 3 3 3 3 3 3 3 3 3 3 3 3 2 2 2 2 2 1 1 2 2 5 7 4 2 3 3 3 4 6 5 6 7 6 8 6 6 7 6 7 6 6
4 3 3 3 3 3 3 3 3 3 3 3 3 3 3 3 3 2 2 2 2 2 1 1 1 3 7 4 2 3 3 4 3 3 4 4 5 7 7 6 7 8 8 10 7 6 7
3 4 3 3 3 3 3 3 3 3 3 3 3 3 3 3 3 2 2 2 2 2 1 1 2 4 8 3 5 4 3 5 4 4 4 5 5 8 8 9 9 9 12 10 9 5 6
4 4 4 4 4 4 4 3 3 3 3 3 3 3 3 3 3 2 2 2 1 1 1 2 3 6 6 7 5 4 3 4 5 6 6 7 8 9 10 10 13 11 10 10 10 7 6
4 4 4 4 4 4 3 3 3 3 3 3 3 3 3 3 3 2 2 3 5 5 5 7 7 8 7 5 4 5 4 5 6 7 9 8 10 12 10 10 9 9 9 9 8 7 7
4 4 4 4 3 4 3 3 3 3 3 3 3 3 3 3 3 3 2 5 6 5 8 6 6 6 5 5 8 6 4 7 8 10 8 10 11 9 9 10 10 10 10 10 8 7 7
4 4 4 4 4 3 3 3 3 3 3 3 3 3 3 3 3 3 4 4 2 3 7 8 6 7 6 5 8 7 6 6 8 9 9 10 8 7 9 10 11 10 11 10 10 8 7
3 3 3 3 3 3 3 3 3 3 3 3 3 4 3 3 4 3 4 3 2 2 10 10 9 7 6 6 8 5 4 6 7 8 7 8 6 7 7 9 9 11 9 9 9 10 12
4 4 3 3 3 3 4 4 4 3 3 3 3 4 3 4 3 4 3 2 2 4 15 10 8 4 5 7 7 7 3 5 7 7 7 8 8 8 9 8 7 9 7 8 9 10 10
3 4 4 3 3 4 4 4 4 4 4 4 4 4 4 4 2 2 2 2 4 11 18 11 8 8 8 7 7 5 5 3 4 7 7 7 5 6 7 6 6 6 8 8 8 10 14
4 4 4 4 4 4 4 4 4 4 4 4 4 4 4 2 4 2 2 4 11 14 10 11 10 8 8 9 7 6 7 7 9 12 10 8 8 6 6 8 6 7 9 13 14 15 16
4 4 4 4 4 4 4 5 5 4 4 4 5 5 4 2 1 2 3 8 14 12 11 8 9 8 9 8 7 7 7 9 7 8 10 13 13 9 6 7 9 9 10 13 16 15 14
4 4 4 4 4 4 4 4 5 5 5 5 5 2 2 1 1 2 6 11 11 11 9 9 8 10 9 8 8 8 8 9 8 7 12 12 12 7 7 6 7 9 12 8 12 11 13
4 4 4 4 4 4 4 4 5 5 4 5 5 3 3 2 1 3 8 12 10 8 8 8 11 9 11 9 9 9 9 7 8 6 6 9 13 8 7 6 6 8 8 15 12 16 16
4 4 4 3 3 3 4 4 4 4 5 5 5 6 4 3 2 6 10 10 9 7 7 8 9 10 9 10 9 9 9 7 6 7 6 7 10 10 8 10 10 11 12 11 10 11 15
4 4 4 4 3 3 3 4 4 5 5 6 6 9 4 3 8 7 10 10 8 8 6 7 7 8 9 9 10 9 10 8 5 6 9 7 10 12 10 7 6 9 11 12 16 14 11
4 4 4 4 3 3 4 4 5 5 5 7 9 8 4 5 10 11 10 9 8 8 8 8 8 7 7 9 12 9 8 6 5 7 8 8 10 14 11 9 8 9 8 10 10 11 14
4 4 3 3 3 3 4 4 4 5 5 6 9 11 7 7 7 11 11 10 9 7 7 6 7 6 8 10 8 11 10 8 7 6 6 7 10 12 14 11 9 11 9 9 9 13 12
4 4 3 3 3 4 4 5 5 5 5 6 9 10 9 10 9 10 9 10 10 10 7 6 8 8 9 12 10 10 9 9 8 7 7 9 13 10 9 9 9 9 10 9 10 9 12
4 3 3 3 4 4 5 5 5 5 5 6 10 11 9 10 9 10 10 10 10 10 8 8 9 8 8 11 10 12 10 10 11 9 9 9 14 11 12 9 9 10 9 9 9 9 9
4 3 3 3 4 5 5 5 4 4 5 8 8 9 11 11 10 12 10 9 9 8 7 6 7 8 9 8 7 6 7 7 8 10 11 11 12 12 15 10 10 12 10 9 9 8 8
3 3 3 4 5 4 4 4 4 4 4 6 8 9 12 13 12 12 11 10 10 8 8 6 6 8 6 4 4 5 6 7 7 8 9 12 11 12 14 11 18 9 7 7 8 7 7
3 3 3 4 4 4 4 4 4 4 4 5 6 9 11 13 11 11 11 10 9 8 7 6 6 5 3 5 9 10 10 10 10 9 10 10 11 14 16 15 11 9 8 8 9 10 7
3 4 4 4 4 4 4 4 4 4 4 4 4 6 9 12 11 10 11 9 10 11 7 6 4 3 4 8 10 14 15 13 15 12 10 10 10 14 14 17 17 12 9 7 8 14 6
4 4 5 5 5 5 5 5 4 4 4 4 4 3 8 12 10 9 11 10 8 9 10 8 7 6 4 9 12 13 14 10 16 16 15 14 14 16 15 17 14 9 8 7 15 12 7
5 5 6 5 5 5 5 5 5 4 4 4 4 2 6 9 9 8 7 9 8 9 11 7 8 7 8 10 11 11 12 11 14 12 14 15 16 15 15 17 18 8 9 12 7 6 6
6 6 6 6 6 6 5 5 5 5 4 4 6 3 3 7 8 5 5 5 5 5 8 8 7 7 7 10 10 10 11 11 12 16 10 15 13 14 14 14 9 9 11 8 6 6 6

GFSGBSN_con_lsi_033.txt.gz
Lid_Strength_Index
3 3 3 3 3 3 3 3 3 3 3 3 3 3 2 2 2 2 2 2 1 1 1 1 1 1 2 5 7 4 3 1 3 4 5 6 6 5 7 6 6 7 6 6 5 5 4
3 3 3 3 3 3 3 3 3 3 3 3 3 3 3 3 3 2 2 2 2 2 2 1 1 1 2 7 3 3 3 3 3 4 5 5 6 5 6 6 6 5 5 5 4 5 5
3 3 3 3 3 3 3 3 3 3 2 2 2 3 3 3 3 2 2 2 2 2 1 1 0 2 4 6 3 2 2 3 3 3 5 4 5 6 6 6 5 6 7 6 5 5 6
3 3 3 3 3 3 3 3 3 3 3 3 3 2 3 2 2 2 2 2 2 2 1 0 1 1 5 3 2 3 3 3 3 3 3 3 4 5 7 6 7 8 7 9 7 5 5
3 3 3 3 3 3 3 3 3 3 3 3 3 2 3 2 2 2 2 2 2 1 1 1 1 2 6 3 5 4 3 4 4 3 3 3 4 6 6 9 10 9 11 9 9 6 5
3 3 3 3 3 3 3 3 3 3 3 3 3 3 3 3 2 2 2 2 1 1 1 0 2 5 4 7 5 4 3 3 5 5 5 5 6 8 8 9 13 11 10 9 9 7 6
3 3 3 3 3 3 3 3 3 3 3 3 3 3 3 3 3 2 2 1 3 4 3 6 6 7 6 4 3 5 4 4 5 6 8 6 8 10 9 8 8 9 10 10 8 6 6
3 3 3 2 3 3 3 3 3 3 3 3 3 3 3 3 3 3 2 4 4 4 7 4 5 5 5 4 7 5 4 7 7 9 7 8 10 8 7 8 9 9 10 10 9 7 6
3 3 3 3 3 3 3 3 3 3 3 3 3 3 3 3 3 3 3 4 2 2 7 6 6 6 6 5 7 6 5 6 7 9 8 10 8 7 8 9 10 10 11 10 10 8 6
4 3 3 3 3 4 4 3 3 3 3 4 3 3 3 3 4 2 3 2 1 2 9 9 8 6 5 5 7 5 4 6 7 9 8 8 7 8 8 9 8 11 8 9 10 10 12
4 4 4 4 4 4 4 4 4 4 4 4 4 3 4 5 2 3 3 1 1 3 15 8 8 4 5 6 6 6 4 5 8 8 7 9 7 8 8 8 7 9 7 8 8 9 9
4 4 4 3 3 4 4 4 4 4 4 4 4 4 4 3 2 2 1 1 3 10 15 10 7 8 7 6 7 5 5 3 3 6 6 7 5 6 7 6 6 6 7 8 8 9 13
4 4 3 3 3 3 4 4 4 4 4 4 4 4 5 2 4 2 1 4 10 12 8 10 9 7 7 7 7 6 6 7 8 10 10 8 8 6 6 8 6 7 9 13 14 14 15
4 4 3 3 3 3 4 4 4 4 4 4 4 5 4 2 1 1 3 7 13 10 9 7 8 7 8 8 7 7 7 8 7 7 10 12 14 10 6 7 9 9 9 13 17 16 14
4 4 3 3 3 3 3 4 4 4 5 5 5 2 2 1 1 2 6 10 10 9 8 9 8 9 9 7 7 7 8 8 7 6 10 11 12 7 6 6 7 9 11 8 12 11 14
4 4 4 3 3 3 3 3 4 4 5 5 4 4 3 2 1 3 7 10 9 8 7 7 10 8 10 9 9 8 9 7 7 6 6 8 12 8 7 6 6 8 7 13 14 17 17
4 4 4 3 3 3 3 3 4 4 5 5 4 6 4 2 3 6 10 9 9 7 6 8 8 9 9 9 8 9 9 7 6 6 6 7 9 9 7 9 10 12 12 10 11 12 17
4 4 3 3 3 3 3 4 4 4 5 5 5 8 3 4 9 7 9 10 9 7 6 6 6 7 9 8 9 9 10 7 5 5 8 7 9 12 10 7 6 7 10 10 17 17 11
4 4 3 3 2 3 3 4 4 4 4 5 7 6 3 5 10 9 8 9 8 7 7 7 8 7 6 9 11 9 8 6 6 7 8 7 11 15 12 9 7 9 8 8 9 10 15
4 3 3 2 3 3 4 4 4 4 4 4 7 9 7 7 6 8 9 9 9 6 7 6 7 6 8 8 7 9 8 7 7 7 6 7 10 12 15 11 13 14 12 8 10 15 13
3 3 2 2 3 3 4 3 3 4 4 4 5 8 8 10 9 9 9 8 9 9 7 6 7 7 8 11 9 10 8 8 7 7 8 9 14 11 10 9 9 9 9 9 10 9 13
3 3 2 3 3 4 4 4 4 4 4 4 8 8 7 9 8 10 9 10 9 8 7 7 8 7 7 10 10 11 9 9 11 9 10 9 14 11 12 9 9 10 9 9 9 9 9
3 3 3 3 3 4 4 4 4 4 3 6 6 7 9 9 9 10 11 10 9 7 6 5 6 7 8 7 6 5 6 6 7 10 11 12 13 13 14 10 10 12 9 9 8 8 8
3 3 3 3 4 4 4 4 4 4 4 3 6 7 10 11 9 10 10 10 9 9 9 6 6 7 5 3 4 4 5 6 7 8 8 12 13 12 14 12 18 9 6 7 8 7 7
3 3 4 4 4 4 4 4 4 4 4 4 3 6 9 12 10 9 9 9 7 7 8 6 5 4 3 5 8 10 10 9 10 9 9 9 12 14 16 15 11 9 8 8 9 9 6
4 4 5 5 5 5 5 5 5 4 4 4 3 3 7 11 9 7 9 9 10 8 8 6 3 2 4 7 9 13 15 13 15 11 9 10 10 14 14 18 19 12 9 6 6 12 6
5 5 5 5 6 6 5 5 5 5 4 4 4 2 6 9 8 7 9 10 8 8 9 7 6 6 4 8 13 13 13 10 14 15 14 14 14 15 14 17 13 9 8 6 14 13 7
6 6 6 6 6 6 5 5 5 5 5 5 5 3 5 8 6 5 6 8 8 8 10 7 7 7 8 10 10 11 11 10 13 11 15 15 16 16 15 17 18 8 9 12 7 7 7
6 6 6 6 6 6 6 6 6 5 5 5 7 3 1 6 6 4 4 4 5 5 6 7 7 8 6 10 10 9 11 10 12 15 10 15 13 14 14 14 8 7 9 8 8 9 6

GFSGBSN_con_lsi_036.txt.gz
Lid_Strength_Index
3 3 3 3 3 3 3 3 3 3 3 3 3 2 2 2 2 2 2 2 1 1 1 1 1 1 2 4 6 3 0 1 2 3 5 5 7 7 8 7 6 8 7 6 6 6 5
3 3 3 3 3 3 3 3 3 3 3 2 2 2 2 2 2 2 2 2 2 2 2 1 1 1 3 6 3 3 3 3 3 4 5 5 6 6 7 7 7 6 6 7 7 6 5
3 3 3 3 3 3 3 3 3 3 3 3 3 3 3 2 2 2 2 2 2 2 1 1 0 1 4 5 3 2 2 4 3 4 5 4 4 6 7 8 6 6 8 7 7 6 7
3 3 3 3 3 3 3 3 3 2 2 3 2 2 3 3 2 2 2 2 2 2 1 0 0 2 5 3 2 3 3 4 3 3 4 3 4 5 7 6 8 9 8 10 7 6 6
3 3 3 3 2 3 2 2 2 2 2 2 2 2 2 3 3 2 2 2 2 1 0 0 2 2 6 2 5 4 4 5 4 4 4 4 5 7 7 9 10 10 13 11 9 6 7
3 3 2 2 2 2 3 3 3 3 2 2 2 3 2 3 3 2 2 2 1 2 1 0 1 5 3 6 5 4 3 4 5 5 5 6 6 8 8 10 14 12 11 10 11 8 6
3 3 3 3 3 3 3 3 3 3 3 3 3 3 3 3 3 3 3 1 4 4 2 5 5 5 6 4 3 5 4 5 5 6 8 7 9 10 8 8 8 9 10 11 9 8 7
3 3 3 3 3 3 3 3 3 3 3 3 3 3 3 3 3 3 3 4 5 4 7 4 4 5 4 4 7 5 4 7 7 9 7 8 10 7 7 7 8 9 10 11 9 8 8
3 3 3 4 4 4 4 4 4 3 4 4 3 3 3 3 3 3 2 4 2 2 7 6 5 6 5 5 7 6 5 6 8 9 9 10 8 7 8 9 9 9 10 11 11 9 8
3 3 3 3 3 3 3 3 3 3 3 4 4 3 3 4 4 3 3 2 2 2 10 8 8 6 5 5 7 5 4 6 7 9 8 9 7 8 8 9 8 11 8 9 10 11 13
4 3 3 4 3 3 3 3 3 3 4 4 4 4 4 4 4 4 3 2 2 3 16 8 7 4 5 7 6 6 4 6 9 9 8 10 9 8 9 8 7 9 7 8 9 11 11
4 4 3 3 3 3 3 3 3 3 4 4 4 4 4 3 3 2 2 2 2 11 16 10 7 8 8 6 6 5 5 3 4 7 7 7 5 6 7 6 7 6 8 8 8 10 14
4 4 3 3 3 3 3 3 3 3 4 4 4 4 5 3 4 2 2 4 10 14 8 10 9 7 7 8 7 6 7 7 8 10 10 8 8 6 7 10 8 8 9 14 15 14 15
4 4 3 3 3 3 3 3 3 3 4 4 5 5 4 4 2 2 4 8 14 10 9 7 8 7 9 7 7 7 7 9 7 8 10 12 13 8 7 8 10 10 11 15 18 16 14
4 3 3 3 3 2 3 3 3 4 4 4 5 2 3 2 2 3 7 12 12 9 8 9 8 9 9 8 8 8 8 8 7 7 10 11 11 8 7 7 8 10 11 9 13 12 14
4 3 3 3 2 2 3 3 3 3 4 5 5 3 3 1 1 4 8 11 9 8 8 8 10 8 10 9 9 9 9 7 7 6 6 8 12 8 7 6 6 8 7 13 13 18 18
4 4 3 3 2 3 3 3 3 4 4 5 4 5 2 1 3 7 11 9 9 7 7 8 9 9 9 10 9 9 9 7 6 7 6 7 9 10 8 9 10 9 12 12 12 15 19
4 3 3 2 2 2 3 3 3 4 4 4 4 8 2 3 9 7 9 8 8 8 7 7 6 7 9 9 9 9 9 8 6 6 9 7 10 13 11 7 6 8 9 12 15 15 12
4 3 3 2 2 3 3 4 4 4 4 5 5 5 2 3 9 9 8 8 8 8 8 7 7 7 7 8 11 9 8 6 6 7 9 9 11 15 13 9 9 10 10 11 12 11 14
4 3 2 2 2 3 3 4 4 4 4 4 5 8 5 5 5 8 9 10 9 7 8 6 7 6 7 8 7 9 9 7 6 7 6 8 11 13 16 13 12 14 11 10 10 16 15
4 3 2 2 3 3 3 4 4 4 4 4 4 7 6 9 8 8 8 9 10 10 7 6 7 7 8 11 9 10 8 8 7 7 8 10 14 11 11 10 9 10 12 11 12 10 13
4 4 2 2 3 3 4 3 4 4 4 4 7 8 7 8 7 7 8 9 10 9 8 8 8 8 7 9 9 10 9 9 10 8 9 9 14 12 14 10 10 11 9 11 11 10 10
5 4 3 3 4 4 4 4 3 4 4 5 5 5 8 9 7 8 8 9 10 8 7 6 7 8 8 7 6 5 5 6 7 10 11 12 13 15 16 11 10 14 10 9 9 8 9
5 4 3 4 4 4 5 4 4 4 4 4 5 5 9 12 9 8 8 8 9 8 8 7 6 7 5 3 4 5 6 6 7 8 8 12 13 14 16 13 19 10 7 8 8 8 7
5 5 5 4 5 5 5 5 5 4 4 5 4 5 8 11 9 9 7 8 8 7 7 6 5 4 3 5 9 10 9 10 9 8 9 9 12 15 17 16 12 10 11 11 12 12 8
6 6 6 5 5 5 5 5 5 5 4 4 4 2 7 10 9 8 8 7 9 9 8 6 5 3 4 7 10 14 15 12 15 11 9 10 10 14 15 18 20 13 9 7 7 13 8
6 7 7 6 6 6 5 5 5 5 5 5 5 2 5 10 7 6 9 8 7 9 11 8 6 6 4 9 13 13 13 9 14 15 13 14 14 16 15 17 14 10 8 7 15 13 8
7 7 8 7 6 6 6 5 5 5 5 5 6 4 5 8 7 6 5 6 6 8 11 8 8 8 8 11 12 11 12 11 12 10 14 15 16 16 15 17 19 8 9 13 9 7 7
8 8 8 7 6 6 6 5 5 4 4 5 8 4 3 5 6 4 5 4 4 5 7 7 7 8 7 10 10 10 11 10 12 15 10 15 13 14 14 14 8 7 9 7 7 8 7

GFSGBSN_con_lsi_042.txt.gz
Lid_Strength_Index
3 3 2 2 2 2 2 2 2 2 2 2 2 2 2 2 2 2 2 2 2 2 2 1 1 1 3 6 5 2 -3 -2 -0 2 5 6 10 12 14 12 11 12 11 11 10 10 9
3 2 2 2 2 2 2 2 2 2 2 2 2 2 2 2 2 2 2 2 2 2 2 1 1 1 4 9 3 3 -0 2 3 5 7 8 10 9 11 12 12 11 11 11 11 11 11
2 3 3 3 3 3 3 3 3 2 2 2 2 2 2 2 2 2 2 2 2 2 2 1 0 1 5 8 3 5 3 6 6 6 7 6 7 9 10 11 10 10 12 11 11 10 10
3 3 3 3 3 3 3 3 3 3 3 3 3 3 2 2 2 2 2 2 2 2 2 1 0 3 8 3 3 4 6 6 5 6 6 6 6 8 10 10 10 13 13 16 13 10 9
3 2 2 2 2 3 3 3 3 3 3 3 3 3 3 3 3 2 2 2 2 1 1 1 4 6 7 1 5 5 5 6 6 5 6 4 7 9 10 13 15 15 17 16 14 11 10
3 2 2 2 2 3 2 2 2 2 3 3 3 3 3 3 3 3 3 3 2 2 2 2 3 7 5 6 6 5 5 5 6 7 7 8 10 12 13 14 18 16 16 14 15 12 12
3 3 3 3 3 3 3 2 2 2 2 2 3 3 3 3 3 3 4 6 9 8 6 7 6 5 4 5 5 6 4 6 7 9 12 10 14 15 13 12 11 12 13 14 12 10 12
3 3 3 3 3 3 2 2 2 2 2 2 2 3 3 3 3 3 6 8 7 8 11 6 6 6 5 5 8 6 4 8 9 12 11 13 15 11 10 10 11 12 13 14 12 10 11
4 3 3 3 3 3 2 2 2 2 2 3 3 3 3 4 4 5 7 5 5 6 11 8 6 6 6 6 8 8 6 8 10 12 12 14 12 9 10 12 11 12 13 12 13 11 11
4 3 3 3 3 3 3 2 2 2 2 3 3 3 4 4 6 7 7 5 6 7 14 10 9 8 7 7 9 6 5 8 10 12 12 13 10 11 12 12 10 13 9 10 11 13 17
4 3 3 3 3 3 3 2 2 2 3 3 4 4 4 4 8 9 6 5 6 7 19 8 9 6 7 9 8 7 5 8 11 11 12 12 11 11 12 10 8 11 8 10 10 12 14
4 3 3 3 3 2 2 2 3 3 3 3 4 4 4 6 7 7 5 6 6 13 18 12 10 10 10 9 8 7 8 7 8 11 11 10 8 9 8 8 8 7 10 10 11 13 16
5 4 3 3 2 2 2 3 3 3 3 3 3 4 4 4 8 6 6 7 13 17 9 12 12 9 10 10 9 8 8 11 13 15 14 11 11 8 7 10 8 9 13 18 19 18 17
5 5 3 3 2 2 2 3 3 3 4 4 4 4 4 4 6 5 7 11 17 11 12 9 10 9 11 10 9 9 10 11 9 10 14 15 15 10 7 10 11 12 12 18 23 21 18
5 5 4 2 2 2 3 3 3 4 4 4 4 6 5 4 3 6 9 15 14 11 10 11 10 12 11 10 10 10 10 11 9 9 14 14 14 8 8 8 9 12 15 10 16 15 19
5 4 4 3 2 2 3 3 3 3 4 4 8 7 6 2 3 7 11 12 10 7 8 9 13 11 13 11 11 11 11 8 9 8 9 11 15 9 8 8 8 10 9 15 16 21 22
5 4 4 4 3 3 3 3 4 3 4 4 8 8 4 4 6 8 13 12 9 7 8 10 11 12 12 12 11 11 11 8 7 8 8 11 13 12 10 11 12 13 14 14 14 16 20
5 5 4 4 4 3 3 4 4 4 4 6 9 10 4 6 12 11 12 9 8 8 7 9 9 10 11 10 11 11 11 9 7 7 11 10 13 16 13 9 8 10 11 12 17 18 17
5 5 5 4 4 5 4 4 4 4 4 7 10 9 5 6 15 13 11 9 8 9 8 9 10 10 9 11 13 10 10 7 6 9 11 10 14 17 15 12 10 12 11 12 13 14 18
5 5 5 4 5 5 5 4 4 4 4 8 9 12 10 9 10 12 12 11 10 7 8 9 9 9 10 11 10 11 10 8 7 7 6 8 12 15 18 15 12 15 12 11 13 17 16
5 5 5 5 5 6 6 5 4 4 4 7 10 12 11 14 13 12 12 10 10 11 8 9 11 10 11 13 11 12 10 9 8 7 8 10 15 13 12 12 12 12 13 12 13 13 16
5 5 5 6 6 7 7 6 5 5 4 8 12 13 12 13 12 12 11 12 11 10 10 11 12 10 11 12 11 12 10 11 11 9 11 10 14 13 14 12 12 13 12 12 12 12 12
5 5 6 6 6 7 7 7 6 5 6 10 9 9 10 12 13 14 13 12 11 10 9 8 10 11 11 10 7 7 7 7 9 11 12 11 13 15 16 12 13 16 13 12 12 11 11
5 5 6 6 7 7 7 7 7 6 6 9 9 8 13 15 13 13 11 11 11 10 11 9 9 11 9 6 7 7 8 8 9 10 10 12 13 13 16 15 20 13 9 10 11 10 11
5 5 6 7 8 7 7 7 7 7 6 10 9 10 9 13 13 12 11 12 11 10 11 10 8 8 8 9 11 13 12 12 11 10 11 9 12 15 17 18 14 12 11 11 12 13 10
5 6 6 7 8 8 8 7 7 7 7 10 10 8 7 10 14 10 12 11 13 14 12 9 7 7 9 10 12 16 17 14 15 13 9 10 10 14 15 19 20 14 10 7 8 15 9
5 6 7 7 7 8 8 8 7 7 7 8 10 9 9 11 10 11 13 13 12 12 11 10 9 10 9 11 15 15 16 11 16 16 16 14 14 16 16 17 15 10 8 7 16 14 9
6 6 7 7 7 8 8 8 8 7 7 7 10 9 10 11 11 10 10 11 12 11 12 11 10 10 12 13 13 13 14 13 13 12 17 15 16 16 15 17 18 8 9 13 10 8 8
6 7 7 8 8 8 8 8 8 7 7 6 10 8 8 10 11 9 8 8 8 8 9 10 9 9 9 10 11 11 13 12 13 16 11 15 13 14 14 14 9 8 10 8 7 8 8

GFSGBSN_con_lsi_045.txt.gz
Lid_Strength_Index
2 2 2 2 3 3 3 3 3 3 3 2 2 2 2 2 2 2 2 2 2 2 1 2 1 1 3 8 6 2 -3 -2 0 2 5 7 10 12 14 13 11 13 12 11 11 11 11
2 2 2 2 2 2 3 3 3 3 3 3 3 2 2 2 2 2 2 2 2 2 2 1 1 1 5 12 4 2 0 2 2 5 8 8 10 9 12 12 13 11 12 11 12 12 11
2 2 2 2 2 2 2 2 2 2 2 2 3 3 2 2 2 2 2 2 2 2 2 1 1 1 6 9 4 4 2 5 5 5 7 7 8 9 10 12 11 11 13 12 11 10 10
2 2 2 2 2 2 2 2 2 2 2 2 2 3 3 3 2 3 2 2 2 2 1 1 1 4 9 4 3 3 6 6 6 6 7 7 7 9 11 11 11 13 14 16 13 11 10
3 2 2 2 2 2 2 2 2 2 2 2 2 2 3 3 3 3 3 3 2 2 1 1 4 7 8 1 4 4 6 6 6 6 6 5 7 10 11 14 15 15 18 17 15 12 12
3 2 2 2 3 3 2 2 2 2 2 2 2 2 2 3 3 3 3 3 3 3 2 2 3 7 6 6 5 5 5 5 7 7 8 8 11 12 14 15 18 16 17 15 16 13 13
4 3 2 2 2 3 2 2 2 2 2 2 2 3 3 3 3 3 5 7 10 10 6 9 6 6 5 4 4 6 5 6 7 9 13 11 14 15 13 13 12 13 14 14 13 11 13
4 3 2 3 3 3 2 2 2 2 2 3 3 3 3 3 3 4 6 8 8 9 12 7 7 6 4 5 8 6 5 9 10 13 11 13 15 12 11 11 12 13 14 14 12 10 11
4 3 3 3 3 3 3 3 2 3 3 3 3 3 3 3 4 6 8 7 5 8 12 9 7 7 7 6 8 8 7 9 11 13 13 15 13 10 11 13 12 13 14 13 13 11 11
4 4 3 3 3 3 2 3 2 3 2 3 3 3 3 3 6 8 8 6 6 8 15 10 9 7 7 8 9 6 6 8 11 13 13 13 11 11 13 13 11 15 11 10 11 13 17
5 5 4 3 3 2 2 2 2 3 3 3 3 3 3 4 8 8 6 6 7 7 19 9 10 6 8 10 9 8 6 8 11 12 12 13 12 12 13 11 9 12 9 10 11 13 15
5 5 4 3 2 2 3 3 3 3 3 4 4 3 3 5 7 6 5 6 6 13 18 12 9 9 10 10 10 8 8 8 9 12 12 12 10 10 10 8 8 8 10 11 12 14 19
5 5 4 4 3 2 3 3 3 3 3 3 3 3 4 4 7 6 6 7 13 17 9 12 12 10 11 11 10 9 10 12 14 16 16 12 12 8 7 10 10 11 14 18 19 19 19
5 4 4 4 4 3 3 3 3 4 4 4 4 4 4 4 6 5 7 10 17 12 12 9 10 10 12 10 10 10 10 13 11 12 14 15 15 10 8 10 13 13 14 18 22 21 18
5 4 4 4 4 4 3 3 4 4 4 4 4 6 6 5 4 7 9 14 15 11 9 10 10 12 12 11 11 11 12 12 10 10 14 15 14 8 8 8 10 13 15 12 16 15 19
5 5 5 4 4 4 5 4 4 4 4 4 8 7 6 4 6 7 11 12 11 7 8 10 13 12 14 13 14 14 13 9 10 8 10 11 16 10 9 9 9 11 10 15 15 21 22
5 5 5 5 4 5 5 5 4 4 4 4 8 8 5 6 6 9 14 12 9 7 7 10 12 13 13 13 13 13 12 9 8 9 9 11 13 13 11 12 13 13 14 14 14 16 20
5 5 5 5 5 5 5 6 5 5 5 5 10 10 5 6 11 13 13 10 8 8 6 8 10 11 12 12 13 12 12 9 7 8 12 11 13 16 13 10 9 10 12 13 17 18 17
5 5 5 5 5 6 6 6 6 5 5 7 9 10 5 7 16 15 12 10 9 9 9 9 10 10 10 13 14 10 10 7 7 9 11 11 14 17 15 13 10 12 11 11 13 14 17
5 5 4 5 6 6 6 6 6 6 6 8 10 13 11 10 11 13 13 12 11 8 9 9 10 9 11 12 11 12 11 8 8 8 6 8 12 15 18 15 12 14 12 12 14 17 17
5 5 5 5 6 7 7 7 6 7 6 10 12 13 12 15 14 13 13 11 12 12 9 10 11 10 12 14 13 12 10 10 8 7 9 10 15 13 12 12 12 13 13 12 14 14 17
5 5 5 6 6 7 7 7 7 7 7 11 13 14 12 13 12 13 13 13 12 11 11 11 12 10 11 13 13 13 11 12 11 9 11 10 15 13 15 12 12 13 12 12 12 12 13
6 5 5 6 6 7 7 7 7 7 8 12 11 11 10 13 14 15 14 13 12 11 10 9 11 12 12 10 9 9 9 8 9 10 12 12 13 15 17 13 13 16 13 13 12 11 12
5 5 5 6 7 7 7 7 7 7 9 12 11 10 12 16 14 14 12 12 12 12 13 10 10 12 9 7 8 9 9 9 9 10 10 12 13 14 17 14 20 13 9 10 11 10 10
6 5 6 6 7 7 7 7 8 8 8 12 12 12 12 13 13 12 11 12 12 11 12 11 9 8 8 9 12 13 13 12 11 10 11 10 12 15 17 17 14 12 11 12 13 13 9
6 5 6 6 7 7 7 7 8 8 8 12 13 10 9 13 16 11 13 12 15 15 13 10 8 7 9 10 12 17 17 14 15 13 9 10 10 14 15 19 20 14 10 8 9 15 9
6 5 6 6 7 7 7 7 8 8 8 10 12 11 11 12 12 12 14 14 13 14 15 11 9 10 7 11 14 15 16 12 16 16 15 14 14 16 15 17 15 10 9 7 16 14 9
6 5 6 6 7 7 7 8 8 8 8 9 11 10 10 12 12 11 11 13 13 13 15 12 11 10 12 13 13 14 14 13 14 13 16 16 15 16 15 17 19 8 9 13 10 9 8
6 6 6 7 7 7 8 8 7 8 8 8 12 10 9 11 12 11 10 9 9 9 9 9 11 10 9 12 11 11 13 12 13 16 10 15 13 14 14 14 9 7 8 8 9 9 8

GFSGBSN_con_lsi_048.txt.gz
Lid_Strength_Index
2 2 1 2 2 2 2 2 2 2 2 2 2 2 2 2 2 2 2 2 2 2 2 2 1 1 4 10 8 2 -2 -1 1 3 6 8 12 13 14 13 12 14 13 12 11 11 11
2 2 2 2 2 2 2 2 1 2 1 2 2 2 2 2 2 2 2 2 2 2 2 2 1 1 6 13 6 3 1 2 3 5 8 7 10 10 12 13 13 12 12 11 11 11 11
3 2 2 2 2 2 2 2 2 2 2 2 2 2 2 3 3 2 2 3 3 2 2 1 1 2 7 11 5 4 3 5 5 5 8 7 8 10 11 13 11 11 13 12 12 11 11
3 2 2 2 2 2 2 2 2 2 2 2 2 2 2 3 3 3 2 2 3 2 2 1 1 4 10 5 4 3 5 6 5 5 7 7 7 10 12 11 11 14 15 18 14 11 10
3 3 2 2 2 2 3 3 2 2 2 2 2 3 2 3 3 3 3 3 3 2 2 1 5 8 8 2 4 4 6 7 7 7 7 5 8 11 11 14 15 16 18 17 15 12 12
4 3 3 2 3 3 3 2 3 2 2 2 2 3 3 3 3 3 3 3 3 2 2 2 3 8 7 6 5 5 6 6 7 8 9 9 11 13 14 15 19 17 17 16 16 13 12
4 4 3 3 3 3 2 2 3 3 3 3 3 3 3 3 3 3 5 8 10 11 7 10 8 8 7 5 5 7 5 7 8 10 13 12 14 16 14 13 13 14 15 15 13 12 13
4 4 4 3 3 3 2 3 2 3 3 3 3 3 3 3 3 3 7 8 8 9 12 8 8 7 5 5 8 6 5 10 10 13 12 14 16 12 11 12 13 14 15 15 13 11 12
4 4 4 4 3 3 3 3 3 3 3 3 3 4 3 3 3 6 8 7 6 8 12 10 8 8 8 7 9 8 7 9 11 13 13 15 13 11 12 13 13 14 14 14 14 11 12
4 4 4 4 4 3 2 2 3 3 3 3 3 3 3 3 6 8 7 6 6 8 14 11 10 8 7 8 10 6 6 8 11 13 13 14 12 12 14 14 12 16 12 12 12 15 19
5 5 4 4 4 4 3 3 3 3 3 3 3 3 3 4 8 7 6 6 7 7 19 9 10 7 9 10 9 8 6 9 11 12 13 14 13 13 14 13 11 14 10 12 13 15 17
5 5 4 4 4 4 4 3 3 3 3 3 3 3 3 6 7 6 5 6 6 13 19 11 9 10 10 9 9 7 8 8 9 12 13 12 11 12 12 10 9 9 11 13 14 16 20
4 5 4 4 4 4 4 4 4 3 3 3 3 3 4 5 8 7 7 7 13 17 9 11 12 10 11 11 10 9 11 12 14 16 16 13 13 10 8 11 10 11 15 19 20 20 19
5 5 5 4 4 4 5 5 5 4 4 4 4 4 4 5 6 6 8 11 17 12 11 9 10 10 12 10 11 11 12 14 11 13 16 16 16 11 8 10 12 14 14 19 21 20 18
5 5 5 4 4 5 5 5 6 5 5 4 5 6 6 5 4 7 10 15 15 12 9 10 11 13 13 11 12 12 14 13 11 12 15 15 14 9 8 9 10 13 15 13 17 17 21
5 5 5 4 4 5 5 6 6 5 5 5 9 8 6 5 6 8 12 13 12 9 9 9 13 12 14 13 14 14 14 11 11 9 10 12 16 10 9 9 10 12 11 17 17 21 22
5 5 5 5 5 5 6 6 6 6 6 6 9 9 6 6 7 10 15 13 10 8 8 9 12 13 12 13 13 14 13 11 9 9 10 11 13 13 11 12 14 14 15 15 15 16 20
5 5 5 4 5 6 6 6 6 6 7 8 11 12 6 7 11 14 14 11 8 9 8 9 10 11 12 12 13 14 13 10 7 8 12 10 13 16 14 10 10 12 13 14 17 18 17
5 5 5 5 5 6 6 6 6 6 7 9 11 12 6 7 16 15 12 11 10 10 10 10 11 10 10 13 14 12 11 7 7 9 11 10 14 18 16 14 11 13 12 12 13 14 17
6 5 5 5 6 6 6 6 6 7 7 10 13 15 12 12 12 14 14 12 11 8 10 10 11 11 12 13 12 12 12 9 8 8 6 8 13 15 17 15 13 14 13 12 13 17 16
6 6 5 5 6 6 7 7 6 7 7 11 14 16 15 17 15 15 15 12 12 12 10 11 12 12 13 15 14 13 12 11 9 7 9 10 14 13 12 12 12 12 13 12 14 14 17
6 6 5 5 6 7 7 7 6 7 8 12 16 16 15 16 14 14 14 15 13 12 12 12 13 12 12 14 13 13 12 13 13 10 11 10 14 13 14 12 12 14 12 12 12 12 12
6 6 5 5 6 7 7 7 7 7 9 13 13 13 13 15 16 16 16 14 13 12 11 10 11 12 13 11 10 10 10 9 10 11 11 12 13 15 17 13 13 16 13 12 12 11 12
6 6 6 6 6 7 7 7 7 7 9 12 13 13 16 18 15 15 13 13 13 13 13 11 10 12 9 7 8 9 10 10 10 10 9 12 13 14 16 15 21 13 10 10 12 11 10
6 6 6 6 6 7 7 7 7 7 8 12 13 14 14 17 15 13 13 13 13 13 13 11 10 8 7 9 12 13 13 12 11 9 10 10 12 15 17 17 14 12 11 12 13 13 9
6 6 5 6 6 7 7 7 7 7 7 12 13 12 13 14 17 12 13 13 16 16 14 11 9 7 8 9 12 17 17 15 16 13 9 9 10 14 15 19 20 13 10 8 9 16 9
6 6 5 6 6 7 7 7 7 8 8 11 12 12 13 14 14 13 15 15 14 15 16 13 10 10 8 12 15 16 16 12 16 16 14 14 14 16 16 17 15 11 9 8 16 15 9
6 6 5 6 6 7 7 7 7 8 8 10 12 11 12 14 13 12 12 14 14 14 16 13 12 11 12 15 13 13 14 13 15 12 15 16 19 16 15 17 19 8 9 13 10 9 9
6 6 6 6 6 7 7 7 8 8 8 8 13 11 10 12 14 12 10 10 10 10 12 12 13 12 10 14 14 14 14 13 14 17 12 18 14 16 13 14 9 7 8 7 7 9 9

GFSGBSN_con_lsi_051.txt.gz
Lid_Strength_Index
3 2 2 2 2 2 2 2 2 1 1 2 1 1 1 2 2 2 2 2 2 2 2 2 2 2 2 7 6 1 -1 -1 1 3 5 6 8 9 10 9 9 10 9 9 8 9 9
3 2 2 2 2 2 2 2 2 2 2 2 2 1 1 2 2 3 2 2 3 2 3 2 2 2 4 10 4 1 -0 1 2 4 5 5 7 7 9 9 9 9 9 9 9 9 10
3 3 2 2 2 2 2 2 2 2 2 2 2 2 2 2 2 2 3 3 2 3 2 2 2 2 5 8 3 2 2 2 2 3 6 5 5 7 7 9 8 9 10 9 9 9 11
3 3 3 2 2 2 3 2 2 2 2 2 2 2 3 3 3 3 3 3 3 3 2 2 1 2 8 4 3 2 2 3 3 3 4 5 5 7 7 7 9 10 11 12 9 9 9
3 3 3 3 2 3 3 3 2 3 2 2 2 2 3 3 3 3 3 3 3 2 2 2 3 5 6 1 3 3 3 5 5 5 5 5 5 7 8 10 11 11 13 13 11 9 9
3 4 4 4 3 3 2 2 2 2 3 3 2 3 3 3 3 3 3 3 2 2 2 2 3 6 4 5 3 3 4 5 6 6 6 6 7 8 9 10 14 14 13 12 12 10 9
4 4 4 4 4 3 3 2 3 2 3 3 3 3 3 3 3 3 3 4 6 7 5 8 7 7 6 4 4 5 4 5 6 7 9 9 9 11 10 10 11 11 12 13 11 9 10
4 4 4 4 4 3 3 2 2 3 3 3 3 3 3 3 3 3 4 5 6 5 8 7 7 6 5 5 8 5 4 7 8 10 9 10 11 9 9 10 10 11 12 12 10 9 10
5 5 4 4 4 4 3 4 3 3 3 3 3 3 3 3 3 4 5 4 3 5 8 7 7 8 7 6 8 7 6 7 9 10 10 11 10 9 10 10 11 11 12 12 12 10 9
4 4 4 4 4 4 4 4 4 4 3 3 3 3 3 3 5 5 5 3 4 4 9 9 8 7 6 6 9 5 5 7 9 10 10 10 9 10 11 11 10 12 10 10 11 12 14
4 5 4 5 4 4 4 4 5 5 4 3 3 3 3 4 5 5 4 4 4 4 15 7 7 4 6 8 8 8 6 7 9 10 10 11 10 11 11 11 9 11 9 10 11 12 13
5 5 5 4 4 4 5 5 5 5 4 4 3 3 3 4 4 3 4 4 3 11 16 10 7 8 8 8 8 6 7 7 8 10 10 9 8 9 10 9 8 9 10 10 12 12 16
5 5 5 4 4 4 5 5 5 5 5 4 4 4 4 4 5 4 4 4 11 14 8 10 10 9 9 9 9 9 9 10 11 13 13 11 11 9 7 10 9 9 11 15 16 15 16
5 5 5 5 4 5 5 6 6 5 5 5 5 5 4 4 3 3 4 7 15 11 11 8 9 9 10 9 9 9 10 11 9 11 12 13 14 10 7 8 10 9 10 14 18 17 15
5 5 5 5 4 5 6 6 6 6 6 6 6 5 4 3 3 4 5 12 12 10 9 10 9 11 10 9 10 10 11 11 10 9 13 13 13 8 7 7 7 10 12 9 13 12 15
5 5 6 5 5 5 6 6 6 6 6 6 6 6 4 4 4 4 7 11 10 8 8 8 12 10 12 11 11 10 11 9 9 8 8 10 14 9 8 7 7 8 8 13 13 19 19
4 5 5 5 5 6 6 6 6 6 7 7 7 7 4 5 4 6 10 10 8 7 7 9 10 11 11 11 10 11 11 9 8 8 7 8 11 11 9 10 10 10 11 11 12 13 18
5 5 5 5 5 6 6 6 6 7 7 7 8 10 5 5 9 10 10 9 8 8 7 8 8 9 10 10 11 11 11 9 7 7 10 8 11 14 11 7 7 8 10 10 15 16 14
6 6 6 5 6 6 6 6 6 7 7 8 10 10 6 6 11 11 10 10 9 9 8 9 9 9 9 10 12 10 9 7 7 8 9 9 12 15 13 11 9 11 10 10 11 13 16
7 6 6 5 5 6 7 7 6 7 7 9 10 12 11 10 11 12 12 11 10 7 8 8 9 9 9 11 9 11 10 8 7 7 6 7 11 13 15 12 11 13 11 10 12 17 14
7 7 6 6 6 6 7 7 7 7 7 9 12 14 13 15 14 13 12 12 11 11 9 8 10 10 11 12 11 11 9 9 7 6 7 8 13 11 11 10 10 11 12 11 12 12 16
7 7 6 6 6 6 7 7 7 7 7 9 12 13 12 14 14 14 13 12 12 11 11 11 11 10 9 11 10 11 9 9 10 8 9 8 14 11 13 10 11 13 11 11 11 11 11
8 7 6 5 6 6 7 7 7 7 9 10 10 10 12 15 15 15 13 12 12 11 11 10 10 10 10 8 7 7 7 7 7 9 10 10 12 14 15 11 12 15 11 10 10 9 10
8 7 6 6 6 6 7 7 7 7 9 10 10 11 13 16 15 15 13 12 12 12 12 10 9 10 7 5 5 5 6 7 8 8 8 11 11 12 15 13 19 10 8 8 10 9 8
8 7 6 6 6 6 7 7 7 7 8 10 10 10 12 16 15 14 12 12 11 11 12 11 9 7 5 7 9 11 10 11 11 9 10 9 11 15 17 16 13 11 11 11 12 12 8
8 7 6 6 6 7 7 7 7 8 8 9 10 9 11 14 15 12 13 12 13 12 12 11 8 6 6 8 10 15 15 13 15 13 9 9 10 13 15 18 19 12 9 7 8 15 8
8 7 7 6 6 7 7 7 7 8 8 9 9 9 11 15 13 12 13 14 11 11 13 11 10 9 7 9 12 14 14 12 15 15 13 13 13 15 15 16 13 9 8 7 16 14 7
8 7 7 6 6 7 7 7 7 7 8 9 10 9 11 14 13 12 11 12 11 11 12 10 10 9 9 11 12 11 12 11 12 11 13 14 15 15 14 16 17 8 9 13 9 7 7
8 7 7 6 6 7 7 7 7 7 8 8 10 9 9 12 13 10 9 9 9 9 10 9 10 10 8 10 9 10 11 10 12 15 9 14 12 14 13 14 7 7 8 6 5 7 7

GFSGBSN_con_lsi_054.txt.gz
Lid_Strength_Index
2 2 2 2 2 2 2 2 2 2 2 2 1 1 2 2 2 2 2 2 2 2 2 2 2 2 1 5 5 -0 -1 -1 1 3 4 5 6 7 8 8 7 8 7 6 6 6 6
3 3 2 2 2 2 2 2 2 2 2 2 2 2 2 2 2 2 2 2 2 2 3 3 2 2 2 8 2 -0 -1 0 2 3 5 5 6 5 7 8 8 7 7 7 6 6 6
3 3 3 3 3 3 2 2 2 2 2 2 2 2 2 2 2 2 2 2 3 3 3 2 2 1 4 6 2 1 -0 1 2 3 5 4 5 6 6 7 7 7 9 7 7 6 7
3 3 3 3 3 3 3 2 2 2 2 2 2 2 2 2 2 2 3 2 3 3 3 3 2 2 6 3 1 1 1 2 1 2 3 3 4 5 6 6 7 8 8 10 7 8 7
3 3 3 4 4 3 3 3 3 2 2 2 3 2 2 3 2 2 2 2 2 2 2 2 2 3 6 1 3 2 1 4 4 3 3 3 4 5 6 8 9 9 10 10 9 7 7
4 4 3 4 3 3 3 3 3 2 3 3 2 2 2 2 3 2 3 2 1 1 1 1 2 5 4 5 3 2 2 3 5 5 5 5 5 7 7 8 11 10 11 10 10 8 8
4 4 4 3 3 3 3 3 3 3 3 3 3 3 2 2 2 3 2 1 3 4 2 5 6 6 5 4 2 4 3 4 4 5 8 6 8 9 8 8 8 9 10 10 9 8 9
4 4 4 4 4 4 4 4 4 4 4 3 3 3 3 2 3 2 1 3 4 3 6 4 4 5 4 4 6 5 4 7 7 8 7 8 9 8 8 8 9 9 10 10 9 8 9
4 4 4 4 4 4 4 4 4 4 4 4 4 3 3 3 2 2 2 3 1 2 5 5 4 5 5 4 7 7 5 6 8 9 8 9 9 8 8 9 9 9 10 10 10 9 8
4 4 4 4 4 4 4 5 5 5 5 4 4 4 3 3 3 1 2 1 1 2 8 8 6 5 4 4 7 5 4 6 7 9 8 8 7 8 9 9 9 10 9 9 10 10 12
4 5 4 4 4 4 5 5 5 5 5 5 5 4 4 4 1 2 2 1 1 2 14 7 6 2 4 6 6 6 4 6 8 8 8 9 9 9 9 9 8 9 8 9 9 10 10
4 5 5 5 4 5 5 5 5 5 5 5 5 4 4 2 1 2 1 1 1 10 15 9 6 7 6 6 6 5 5 5 6 8 8 8 6 7 7 7 8 8 9 8 8 9 13
5 5 4 4 5 5 5 6 5 5 6 5 5 5 4 3 3 0 1 2 10 13 7 9 9 7 7 7 6 6 6 7 9 11 10 9 9 8 7 9 7 8 9 12 13 13 13
5 5 4 4 5 5 6 6 6 6 6 6 6 6 4 2 1 0 2 6 13 10 9 7 7 7 9 7 7 7 7 8 7 8 10 11 12 9 6 7 8 8 9 12 16 15 13
6 5 4 4 5 6 6 6 6 6 6 6 6 2 2 1 2 2 5 10 10 9 8 8 7 9 8 8 8 8 8 8 7 7 10 11 12 8 8 6 7 9 11 8 11 11 13
7 6 5 5 5 6 6 6 6 6 6 6 4 3 3 3 2 3 7 10 8 7 7 7 10 9 10 9 9 9 9 8 8 6 6 8 13 8 7 7 6 7 7 12 11 16 16
7 6 6 5 5 6 6 6 6 6 7 7 4 6 4 3 3 6 9 9 8 6 6 8 9 9 8 9 8 9 9 8 7 7 6 7 9 9 8 9 9 9 10 9 10 12 16
7 7 6 6 5 6 6 7 7 7 7 6 5 8 3 3 8 7 9 9 9 7 6 7 7 7 8 8 9 9 9 8 6 6 8 7 9 12 10 7 6 7 9 9 14 14 12
7 7 7 6 6 6 6 7 7 7 7 6 8 6 3 4 10 11 10 10 8 8 8 8 8 7 7 8 10 8 8 6 6 6 8 7 10 14 12 9 8 9 8 8 9 10 14
7 7 7 6 6 6 7 7 7 7 7 7 9 10 8 6 8 11 12 11 10 7 7 7 7 7 7 8 7 9 9 7 6 6 6 6 10 12 14 11 10 11 10 9 11 16 13
7 8 7 6 6 6 7 7 7 7 7 7 9 10 10 12 11 11 11 12 11 11 8 7 8 8 8 10 9 9 7 7 6 5 6 7 12 10 9 9 9 9 9 9 10 11 15
7 8 7 7 6 6 7 7 7 7 8 7 11 11 9 11 11 11 13 12 11 10 10 10 10 8 7 9 8 10 8 7 8 6 7 7 13 10 11 9 9 10 9 9 9 9 10
7 8 7 7 6 7 7 7 7 7 8 9 8 8 10 11 12 12 12 12 12 10 9 9 8 8 9 8 6 5 5 5 6 8 9 10 11 13 14 10 10 13 10 9 9 8 8
8 8 7 7 6 7 7 7 7 8 8 8 9 9 11 12 12 13 13 12 12 11 11 9 8 9 7 4 4 4 5 6 6 6 7 10 11 12 14 12 18 9 7 7 8 8 7
8 8 8 7 6 7 7 7 7 8 8 8 8 9 10 13 12 13 12 12 11 9 10 9 8 6 5 6 9 10 10 11 10 9 9 8 11 15 16 15 12 10 10 10 11 11 7
8 8 8 7 7 7 7 7 7 7 8 8 8 7 9 12 11 12 13 11 11 10 9 9 6 5 5 7 9 14 14 12 15 13 8 9 9 13 14 18 17 10 8 7 8 14 8
8 8 8 7 7 7 7 7 7 7 8 8 8 7 9 12 11 11 11 11 9 9 9 8 8 7 5 8 12 13 14 10 14 14 12 13 13 15 14 16 12 8 7 6 15 13 7
7 8 8 7 7 6 7 7 7 7 8 8 8 7 9 11 10 10 10 10 9 8 9 7 7 7 8 9 9 9 11 10 11 10 13 14 15 15 13 16 17 6 8 13 8 6 6
7 8 8 7 7 6 7 7 7 7 7 7 9 7 7 11 10 8 8 7 7 7 8 6 7 7 7 9 9 10 11 10 11 14 8 14 11 14 14 13 7 5 7 5 5 6 6

GFSGBSN_con_lsi_057.txt.gz
Lid_Strength_Index
2 2 2 2 3 3 3 2 2 2 2 2 1 1 1 2 2 2 2 2 2 2 2 2 2 1 1 3 5 -1 -2 -1 -0 2 3 4 5 5 7 6 5 6 5 4 4 4 4
3 2 3 3 3 3 3 2 2 2 2 1 2 2 2 2 2 2 2 2 2 2 2 2 2 2 2 6 1 -1 -0 0 1 3 3 4 5 4 5 6 6 5 6 5 4 5 4
3 3 3 3 3 3 3 3 2 2 2 2 2 2 3 2 2 2 2 2 2 2 2 3 2 1 3 4 1 -0 -0 1 1 2 3 3 3 5 5 6 5 6 8 7 6 6 5
3 3 3 3 3 3 3 3 3 3 3 2 2 2 2 2 2 2 2 2 2 2 2 2 2 1 4 3 1 1 0 1 2 2 2 2 3 4 5 4 6 7 7 9 7 6 6
3 4 4 4 3 3 3 3 3 4 3 3 3 2 2 2 2 2 2 2 1 1 1 2 2 2 5 2 4 2 1 3 3 2 2 2 3 5 5 7 8 7 10 9 7 6 7
4 4 4 4 4 4 3 3 3 4 4 4 3 3 3 3 2 3 2 2 1 1 1 0 0 4 3 5 3 3 2 3 4 4 4 5 5 6 6 7 11 9 9 8 8 6 7
4 4 4 4 4 4 4 4 4 4 4 4 4 3 3 3 3 3 2 0 3 4 2 4 4 4 4 3 2 3 3 4 4 5 7 5 7 8 7 6 6 8 8 9 7 6 8
4 4 4 4 4 4 4 4 5 5 5 4 4 4 3 3 3 3 2 2 3 2 5 3 3 3 3 3 6 5 3 6 6 8 6 7 8 6 6 6 7 7 8 8 7 6 7
4 4 4 4 4 4 4 5 5 5 5 4 5 4 4 3 3 2 1 3 1 1 5 5 4 4 3 2 5 5 4 6 7 8 8 8 7 7 7 7 8 8 9 8 9 7 7
4 4 4 4 4 4 4 5 5 5 5 5 5 4 4 4 5 1 2 1 0 1 8 7 6 4 3 3 5 2 3 5 7 8 7 8 6 8 8 8 7 9 7 7 8 9 11
4 4 4 5 4 4 5 5 6 5 5 5 5 5 4 4 1 2 2 1 1 1 15 7 6 2 3 5 5 5 2 4 7 7 7 8 7 8 8 8 6 8 6 8 8 9 9
4 4 4 5 4 4 5 6 6 6 5 5 5 5 4 2 1 2 1 1 1 10 15 8 6 6 6 5 5 4 4 3 4 6 6 7 5 6 7 6 6 6 7 8 8 9 13
4 5 5 5 5 5 6 6 6 6 6 6 6 5 5 2 3 1 1 2 10 13 7 8 7 6 6 7 6 6 6 7 8 10 10 7 7 6 6 9 6 7 9 12 13 13 14
6 6 6 5 5 5 6 6 6 6 6 6 6 6 4 2 1 1 2 6 13 9 8 6 7 6 8 6 6 6 7 8 6 7 9 11 12 8 6 8 9 9 9 12 16 15 13
7 7 6 6 5 6 6 6 7 7 7 7 7 2 2 0 1 2 5 10 10 8 7 7 7 8 8 7 7 7 7 8 7 6 10 11 11 7 6 6 7 9 11 8 11 10 13
7 7 7 6 6 6 6 7 7 7 7 7 5 3 3 1 1 3 7 10 8 6 6 6 9 8 9 8 8 8 8 7 7 6 5 8 12 7 7 6 6 7 7 13 11 16 16
7 7 7 6 6 6 6 7 7 7 7 7 4 6 2 1 2 5 9 8 8 6 6 7 8 8 8 8 8 8 9 7 6 6 5 7 9 9 7 9 10 9 10 9 9 13 17
7 7 7 7 6 6 7 7 7 7 8 7 4 8 2 2 7 6 9 8 10 8 6 6 6 7 8 8 8 8 9 7 6 5 8 6 9 12 10 7 6 7 9 10 13 13 11
7 7 7 7 6 6 7 7 7 7 8 7 7 7 3 4 9 9 8 9 9 9 8 8 7 6 6 8 10 8 7 6 5 6 7 7 11 16 12 9 7 8 8 8 9 10 13
7 7 7 7 6 6 7 7 7 7 8 7 7 9 7 6 6 9 10 10 11 9 8 7 7 6 7 8 7 9 8 7 5 5 6 6 9 11 14 12 12 14 11 9 10 15 14
7 8 7 7 6 6 7 7 7 8 8 6 7 9 9 11 9 9 9 10 11 10 7 7 8 7 8 9 8 8 7 7 6 5 6 6 11 10 10 9 9 10 10 9 10 10 13
7 8 8 8 7 7 7 7 7 8 8 6 10 10 9 10 8 9 11 10 11 9 9 9 9 8 7 8 8 9 7 7 8 6 6 6 12 10 12 9 9 10 9 8 8 8 9
7 8 8 8 7 7 7 7 8 7 8 8 8 7 9 9 9 10 10 11 11 9 8 8 8 8 8 7 6 5 5 5 5 7 8 9 11 12 15 10 11 13 9 9 8 7 8
7 7 8 8 7 7 7 7 8 7 8 8 8 9 10 11 10 10 11 11 11 10 10 8 7 8 6 4 4 4 5 5 5 6 6 9 10 11 14 11 17 9 7 7 8 7 7
7 7 7 8 8 7 7 7 7 7 7 8 8 9 10 12 10 10 11 11 10 8 8 8 7 5 4 5 8 10 10 11 10 8 8 7 10 14 16 15 11 9 9 9 10 10 7
7 7 7 8 8 7 7 7 7 7 7 7 7 7 9 11 10 10 11 10 10 9 8 7 5 3 4 7 8 13 13 11 14 12 8 8 8 13 13 18 18 12 8 6 6 13 7
7 7 7 8 8 7 6 6 7 7 7 7 7 6 9 11 9 9 11 11 8 7 8 7 7 5 4 7 10 12 12 9 14 12 14 13 12 15 14 16 12 8 7 6 14 12 7
6 7 6 7 7 7 6 6 6 7 7 7 8 6 9 10 9 8 9 9 7 7 8 6 7 6 6 10 11 11 11 10 11 9 12 13 14 14 14 17 17 7 7 12 8 6 6
6 6 6 7 7 6 6 6 6 7 7 7 9 7 7 10 9 7 7 6 6 5 6 6 7 6 6 8 9 9 10 9 10 14 8 14 11 14 14 13 7 5 6 5 5 6 6

GFSGBSN_con_lsi_060.txt.gz
Lid_Strength_Index
3 3 2 3 3 3 3 3 2 2 2 2 2 2 2 2 2 2 2 2 2 2 2 2 2 2 2 4 4 0 -2 -2 0 1 3 4 5 5 7 6 5 7 6 5 4 4 4
3 3 3 3 3 3 3 3 3 3 2 2 2 2 3 3 2 2 2 2 2 2 2 2 2 2 3 6 0 -0 1 1 1 2 3 4 5 4 6 6 6 5 5 5 5 5 5
3 3 3 3 3 3 3 3 3 3 3 3 3 3 3 2 2 2 2 2 2 2 2 2 2 2 4 4 2 -0 1 1 1 2 3 3 3 5 5 7 5 6 7 6 6 6 6
3 3 4 3 3 3 4 3 3 3 3 3 3 3 3 2 2 2 2 2 2 2 1 1 2 2 5 1 1 2 0 1 1 1 3 2 2 4 5 5 6 7 7 10 7 6 6
3 4 4 3 3 4 4 4 4 4 4 4 4 3 3 3 2 2 2 2 2 1 0 1 2 3 5 2 4 2 1 3 2 2 2 2 3 5 5 7 9 8 11 10 9 6 6
3 3 3 4 4 4 4 4 4 4 4 4 4 4 3 3 3 2 2 2 1 1 1 1 1 4 3 4 4 3 2 2 4 4 4 5 5 7 7 8 12 10 10 9 9 7 7
3 3 4 4 4 4 4 4 4 5 5 4 4 4 4 3 3 3 3 1 3 4 2 5 4 4 3 2 1 3 3 4 4 5 8 6 8 9 8 7 7 8 8 10 8 6 7
3 4 4 3 4 4 4 5 5 5 5 5 5 4 4 3 3 3 3 3 3 3 6 3 3 3 2 2 5 3 2 6 6 9 7 8 9 6 6 6 7 8 9 9 8 7 7
3 3 4 3 3 4 4 5 5 5 5 5 5 5 4 4 3 4 2 3 1 1 6 4 4 4 4 3 5 4 3 5 7 8 8 9 8 6 7 7 8 8 9 9 9 7 7
3 3 3 3 4 4 5 4 5 5 5 5 5 5 4 4 5 2 2 1 1 1 8 7 6 5 4 4 6 3 2 4 6 8 8 8 6 7 8 9 8 10 7 8 8 9 12
5 4 5 5 4 5 5 5 6 6 6 6 5 5 5 5 3 3 3 2 1 2 17 7 6 2 4 5 5 5 2 4 7 7 7 8 8 8 8 8 7 9 6 8 8 9 10
6 6 6 6 5 5 6 6 6 6 6 6 6 6 5 3 3 1 1 1 2 10 17 8 6 7 6 5 5 4 5 4 4 6 6 7 5 6 7 6 7 6 8 8 8 9 13
7 7 6 6 6 6 6 6 6 6 6 6 6 6 6 3 4 2 2 4 10 14 7 8 8 6 7 7 6 6 6 7 8 10 10 8 8 6 6 8 7 8 9 13 14 14 15
7 7 6 6 6 6 6 7 7 7 7 6 7 7 5 3 2 2 3 7 14 9 8 6 7 6 8 7 7 7 7 9 7 8 10 13 15 8 6 9 10 9 10 14 19 18 15
7 7 7 7 6 6 6 7 7 7 7 7 8 3 3 2 0 2 6 11 11 8 7 8 7 9 9 7 8 7 8 8 7 7 11 13 12 7 6 6 7 9 11 8 13 13 15
7 7 7 7 7 6 6 7 7 7 7 8 7 3 3 0 1 3 7 10 8 6 7 7 10 8 10 9 9 8 9 7 8 7 6 8 12 7 7 7 7 8 7 12 13 18 18
6 7 7 7 7 6 6 7 7 7 8 8 6 5 2 1 2 6 10 9 7 6 7 9 9 9 8 9 8 9 9 7 7 7 6 7 9 10 7 9 10 10 11 10 11 14 19
7 7 7 7 6 6 6 7 7 8 8 8 6 8 2 3 9 7 8 8 9 8 7 8 7 7 8 8 9 9 9 8 6 6 9 9 12 13 10 7 7 8 10 10 15 16 12
7 7 7 7 7 6 6 7 7 8 8 9 9 7 2 4 10 9 8 9 8 9 9 8 8 7 6 8 10 8 8 6 6 7 9 8 12 15 13 10 8 11 11 10 11 11 15
6 7 7 7 7 6 6 7 7 8 8 9 8 10 7 7 7 9 9 10 10 8 9 7 7 6 7 8 7 8 8 7 6 6 6 6 9 11 15 12 12 14 12 10 11 16 15
6 6 7 7 7 6 6 7 7 8 8 8 7 9 8 11 9 9 9 9 11 10 8 7 8 8 8 10 9 9 7 7 6 6 7 8 12 10 9 9 9 12 11 10 12 11 14
5 5 6 7 7 6 6 7 7 8 8 7 10 11 8 10 8 9 9 10 10 10 10 10 9 8 8 9 8 9 8 8 8 6 8 7 14 11 12 9 9 10 9 9 9 9 9
4 5 6 6 7 6 6 7 7 8 8 9 7 8 10 10 9 10 10 10 11 10 9 8 8 8 9 7 6 6 5 6 6 7 8 8 10 12 15 10 10 14 10 10 9 8 8
4 4 5 6 7 7 6 6 7 8 8 9 8 9 11 12 10 10 10 10 11 10 10 8 7 8 6 4 4 4 5 6 6 6 6 9 11 11 15 12 18 10 8 9 10 9 8
4 4 5 5 6 7 6 6 7 7 7 9 8 9 11 13 11 10 10 11 11 9 8 7 7 5 4 5 8 9 12 11 9 7 7 7 10 14 16 15 12 10 10 11 12 12 7
3 4 4 5 6 6 6 5 6 7 7 8 8 7 9 12 11 10 11 10 11 10 8 7 5 4 4 7 8 13 14 12 14 11 7 8 9 13 13 18 18 13 9 7 7 14 8
2 3 4 4 5 7 6 5 6 7 7 8 8 5 10 12 10 9 11 11 10 9 9 6 6 6 4 8 12 13 13 9 14 13 15 13 12 15 14 16 12 9 7 6 14 13 7
3 3 3 4 4 5 6 6 5 7 7 8 8 6 9 12 11 9 8 9 9 8 9 7 7 7 7 10 11 11 11 10 11 10 12 13 14 14 14 17 17 7 8 12 9 6 6
3 3 4 4 4 5 6 6 5 6 7 7 10 6 6 10 11 8 8 7 7 6 7 6 7 7 7 9 9 9 11 10 11 15 8 14 12 14 13 13 8 6 7 5 5 6 6

GFSGBSN_con_lsi_063.txt.gz
Lid_Strength_Index
3 3 3 3 3 3 3 3 3 3 3 3 3 3 3 3 2 2 2 2 1 2 2 2 1 1 3 6 6 0 -2 -2 1 2 3 4 7 9 11 10 9 10 9 7 6 6 6
3 3 3 4 3 3 3 3 3 3 3 3 3 3 3 3 2 2 2 2 2 2 2 2 1 2 4 9 2 0 -0 1 2 3 4 5 7 7 9 9 10 9 8 8 7 7 7
3 3 4 4 4 4 4 4 4 4 4 3 4 4 3 3 3 3 2 2 2 2 2 1 1 2 5 6 2 1 2 3 3 3 4 4 5 7 8 9 8 8 10 9 8 8 8
3 3 3 3 3 4 4 4 4 4 4 4 4 4 4 3 3 3 3 2 2 2 2 1 1 3 7 2 2 3 3 3 2 2 3 4 4 7 8 8 8 10 10 14 10 8 7
3 3 4 3 3 3 4 4 4 5 5 4 4 4 4 3 3 3 2 2 2 1 1 1 4 6 6 1 4 3 3 3 3 3 4 3 5 8 8 11 12 12 14 13 11 8 8
2 3 3 5 3 3 3 4 4 5 5 5 4 4 4 4 4 3 3 3 2 2 2 2 3 6 4 4 4 4 3 3 4 5 6 7 8 10 11 13 16 13 13 11 11 9 9
3 3 3 3 5 4 4 4 4 5 5 5 5 4 4 4 3 3 4 4 5 6 4 6 5 5 4 3 3 4 2 4 5 7 11 9 12 13 11 9 9 9 10 11 9 8 9
5 4 4 3 3 4 5 5 5 5 5 5 5 5 5 4 4 3 5 6 6 6 8 4 3 4 2 4 5 4 2 6 7 10 9 11 13 9 7 7 8 9 10 11 9 8 10
6 6 6 6 5 5 5 5 5 5 6 6 6 5 5 4 4 6 6 3 3 4 9 6 4 4 5 5 6 6 5 6 8 9 9 11 10 7 8 9 9 10 11 11 11 9 10
6 6 6 6 6 6 5 5 6 6 6 6 6 6 5 5 6 5 5 3 4 4 12 9 7 6 5 5 7 4 4 6 8 10 9 10 7 8 9 9 9 12 9 9 9 11 15
6 6 6 6 6 6 6 6 6 6 6 6 6 6 6 6 7 6 4 4 4 5 19 8 7 4 5 7 6 6 4 5 8 9 9 10 9 9 10 9 8 11 8 9 9 12 13
6 6 6 6 6 6 6 6 6 6 6 6 6 6 6 5 6 5 3 4 5 13 19 9 8 8 9 8 7 5 6 5 6 8 8 9 6 7 8 7 7 7 8 10 11 13 17
6 6 6 6 6 6 6 6 6 7 7 7 6 7 8 6 7 4 4 6 13 17 8 9 9 8 8 8 7 7 8 9 11 13 13 10 9 7 6 9 8 9 13 16 17 17 17
6 6 6 6 6 6 6 6 7 7 7 7 7 7 7 6 5 4 5 10 17 10 10 7 8 9 10 8 8 8 8 10 8 9 12 15 16 10 7 10 12 12 13 16 21 20 17
6 6 6 7 7 6 6 6 7 7 8 8 8 6 6 4 4 4 8 14 13 10 7 9 9 10 10 8 8 9 9 9 8 8 13 14 15 9 8 8 9 12 15 10 14 13 18
6 6 6 7 7 7 6 6 7 7 8 8 10 8 5 2 2 5 11 12 11 7 8 9 12 10 12 10 10 10 10 8 9 7 7 11 15 9 8 7 8 10 9 15 15 21 21
5 6 6 6 6 7 6 6 7 7 8 8 9 8 4 2 3 8 14 11 9 6 8 10 11 12 11 11 10 10 10 8 7 8 8 10 13 13 9 11 12 11 13 12 13 16 21
4 5 5 6 6 6 6 6 7 7 8 10 11 12 4 4 11 11 12 9 9 9 8 9 9 10 10 10 10 10 10 9 6 7 11 10 13 16 13 9 8 9 12 13 18 18 16
3 4 4 5 5 6 6 6 7 7 8 11 13 10 5 6 13 13 10 10 9 9 10 10 10 9 8 10 12 9 9 6 6 8 11 10 13 18 15 11 9 12 11 11 13 14 17
3 4 4 4 5 5 5 5 6 7 8 10 12 11 9 9 9 11 12 11 11 8 9 9 9 9 10 10 10 11 9 7 6 7 7 8 12 14 17 14 12 14 12 11 13 17 16
3 3 4 4 4 5 4 5 5 7 8 9 10 11 10 13 12 11 10 10 11 11 10 10 11 11 11 13 11 11 9 8 7 7 8 10 15 12 12 11 10 11 11 11 13 12 16
3 3 3 4 4 5 4 4 5 6 7 8 11 12 12 13 11 11 10 11 12 11 12 12 12 10 10 12 11 12 10 10 10 8 10 9 15 13 14 10 10 11 10 10 10 11 11
3 3 3 4 4 5 5 4 5 6 7 11 9 9 12 12 12 12 11 11 11 11 10 10 10 11 11 9 8 8 8 8 9 10 11 11 13 14 17 11 12 15 12 12 11 10 11
2 2 3 3 4 5 4 4 5 6 7 9 10 10 12 14 12 12 11 10 12 12 13 11 9 10 8 6 6 7 8 8 8 9 9 11 12 14 16 14 20 13 9 9 11 10 9
2 2 2 3 4 5 5 4 4 6 7 9 9 10 12 14 12 12 11 11 11 11 10 10 8 7 6 8 10 12 13 12 10 9 9 9 12 15 18 18 14 12 11 12 12 12 9
1 2 2 3 4 4 5 4 3 5 7 8 9 7 10 13 12 10 12 11 13 13 11 9 6 6 7 9 11 16 17 13 15 13 9 9 10 14 16 19 20 14 9 7 8 15 8
2 2 2 3 3 4 4 4 3 4 6 8 9 7 10 13 11 10 12 12 11 12 12 9 9 8 7 11 14 15 16 10 16 15 14 14 14 16 16 17 14 9 8 7 16 14 8
2 2 2 2 3 4 4 4 5 4 6 7 9 8 9 12 11 10 9 11 11 11 13 10 10 8 9 12 13 13 14 12 14 11 13 15 16 16 15 17 19 8 8 12 9 8 8
2 2 2 2 3 4 4 4 5 4 6 7 10 7 7 10 11 9 9 8 9 9 10 10 9 8 8 11 11 10 12 12 13 17 10 15 12 14 14 14 8 7 9 8 8 9 8

GFSGBSN_con_lsi_066.txt.gz
Lid_Strength_Index
3 3 3 3 4 4 4 4 4 4 4 4 4 3 3 3 3 2 2 2 2 2 2 2 2 2 4 7 7 3 -2 -2 -0 3 4 5 7 9 11 11 11 13 11 9 8 7 7
3 3 3 3 4 4 5 4 4 4 4 4 4 4 3 3 3 3 2 2 2 2 2 2 2 2 5 10 5 0 -0 0 2 5 6 5 7 8 10 11 12 10 10 10 9 9 9
2 2 3 4 4 3 3 4 5 4 4 4 4 4 4 3 3 3 3 3 3 2 2 2 2 2 5 8 3 1 2 4 3 4 5 4 6 8 9 10 9 9 11 10 10 10 9
2 2 3 3 3 4 5 4 5 5 5 5 4 4 4 4 3 3 3 2 2 2 2 2 2 4 9 3 3 4 3 4 3 3 4 4 6 8 9 9 9 11 12 15 12 10 9
5 5 4 3 3 3 3 4 4 5 5 5 5 4 4 4 4 3 3 3 2 2 1 2 5 6 8 1 3 2 3 4 4 3 4 3 6 9 9 12 14 13 16 14 12 10 9
5 5 5 5 4 4 5 5 5 5 5 5 5 5 5 4 4 4 3 3 3 3 2 2 3 8 5 5 5 4 4 3 5 6 6 7 10 11 13 14 17 15 14 13 13 10 10
6 6 6 6 6 6 5 5 5 5 5 6 5 5 5 5 4 4 5 6 7 7 6 7 6 6 4 2 4 5 4 4 5 7 11 10 13 14 12 11 10 11 12 12 10 9 10
6 6 6 6 6 6 6 5 6 5 5 6 6 6 5 5 5 5 7 8 5 8 10 5 4 5 3 3 5 5 3 7 8 11 10 12 14 10 9 9 10 10 11 12 10 8 10
6 6 6 6 6 6 6 6 6 6 6 6 6 6 6 5 5 6 7 5 3 5 10 7 5 5 4 4 6 7 5 7 9 10 10 12 10 8 9 10 11 11 12 12 12 9 10
6 6 6 6 6 6 6 6 6 6 6 6 6 6 6 6 7 7 7 4 5 6 13 10 7 6 6 6 8 5 4 7 9 10 10 11 9 9 10 10 10 13 10 10 10 12 15
6 6 6 6 6 6 6 6 6 6 6 6 6 6 6 7 10 9 6 5 5 6 19 7 8 6 6 8 7 6 5 7 10 10 10 11 10 10 11 10 9 11 9 10 10 13 15
6 6 6 6 6 6 6 6 6 6 6 6 7 6 6 8 9 7 6 6 7 13 19 9 8 9 10 8 8 7 7 7 7 9 10 10 8 9 10 7 8 8 9 11 12 14 17
5 6 6 6 6 6 6 6 6 6 6 7 7 7 8 8 10 7 7 8 14 17 8 10 9 9 11 10 10 9 10 11 12 14 14 10 10 7 7 10 8 10 13 17 18 19 17
5 5 5 6 6 6 6 6 6 6 7 7 8 8 8 8 9 7 7 11 17 11 10 8 9 9 11 10 10 9 9 11 9 9 13 15 17 10 8 10 12 12 13 18 21 20 16
4 4 5 5 5 5 6 6 6 6 7 8 8 10 8 7 8 7 10 15 14 11 9 10 10 12 12 10 11 10 11 10 9 9 13 15 16 8 8 7 9 12 16 11 16 15 18
4 4 4 4 4 5 5 5 5 6 7 8 11 10 8 5 6 8 12 14 12 9 9 9 13 11 14 13 12 12 11 8 9 8 8 11 16 10 8 7 8 11 10 16 16 21 22
3 3 4 4 4 4 4 4 5 5 7 8 11 11 6 4 6 11 15 13 10 8 9 10 12 13 13 13 12 12 11 8 7 8 8 11 13 13 10 11 12 12 13 14 15 16 21
3 3 3 4 4 4 4 4 4 5 7 9 12 14 7 6 11 13 14 10 10 10 8 10 10 11 12 12 12 12 11 9 6 7 11 10 13 17 14 9 8 10 12 13 18 19 17
3 3 3 3 4 4 4 4 4 4 6 10 12 12 7 7 14 14 12 11 10 10 10 10 11 10 11 13 14 10 10 7 7 8 11 10 14 17 15 12 9 12 11 12 13 14 17
2 2 3 3 4 4 4 3 4 4 5 9 12 12 10 10 10 13 13 12 11 8 10 11 11 11 12 13 11 12 11 8 6 7 7 8 12 14 18 15 12 14 12 11 13 17 17
2 2 2 3 4 4 4 3 4 4 5 7 10 11 12 15 13 12 11 12 12 13 11 11 12 11 13 15 13 13 10 9 8 7 9 10 14 13 12 11 11 12 12 11 14 13 16
2 2 2 3 3 4 4 3 4 4 5 6 10 13 12 14 12 11 11 12 12 12 12 12 13 12 12 14 13 13 12 12 11 10 12 11 15 13 14 11 11 12 11 11 10 11 12
2 2 2 2 3 4 5 4 4 4 5 8 8 9 11 13 12 12 11 11 11 11 11 11 12 12 13 11 9 10 10 10 10 12 13 13 14 15 17 12 13 16 13 12 12 11 11
2 2 2 2 3 4 5 4 3 4 5 7 8 9 12 15 13 12 11 11 11 11 13 11 10 13 9 8 8 9 10 9 10 10 10 13 14 14 16 14 20 13 9 10 11 10 10
2 2 2 2 2 3 5 5 4 4 5 6 8 9 11 15 13 13 11 11 11 11 12 10 9 9 8 9 11 12 12 12 11 9 9 10 13 15 18 19 14 13 11 11 12 12 9
2 2 2 2 2 3 4 4 4 3 4 6 7 7 9 13 14 11 12 11 13 13 12 10 8 8 9 11 12 16 17 14 15 12 9 9 10 14 15 19 20 14 9 7 8 15 9
2 2 2 2 2 3 3 4 4 4 4 6 7 7 9 14 12 11 12 12 10 12 13 11 11 10 9 13 15 15 15 11 16 16 16 14 15 16 16 17 15 10 8 8 15 15 9
2 2 2 2 2 2 3 3 3 4 3 6 7 7 9 12 11 10 9 11 11 12 14 11 11 10 12 14 13 13 14 13 14 12 14 15 15 19 16 17 18 8 9 13 11 9 9
2 2 2 2 2 2 3 3 3 4 3 5 9 6 7 10 11 8 8 8 8 9 12 11 11 11 10 13 13 11 12 12 13 16 10 15 13 14 14 15 9 8 9 8 9 9 9

GFSGBSN_con_lsi_072.txt.gz
Lid_Strength_Index
4 4 4 5 5 4 4 3 3 4 4 5 5 5 5 4 4 4 3 3 3 3 3 3 2 2 5 10 9 6 -1 -1 0 4 8 7 9 11 13 13 12 13 12 10 10 10 10
4 4 4 5 5 5 5 5 5 5 5 5 5 5 5 5 4 4 4 4 3 3 3 2 2 3 7 13 8 3 0 1 3 6 7 7 8 8 11 12 12 12 12 11 11 11 11
5 4 4 5 5 5 5 5 5 4 5 4 5 5 5 5 4 4 4 4 3 3 3 2 3 3 7 11 4 5 1 4 4 5 7 6 6 9 11 12 11 11 13 12 11 11 10
5 5 5 5 5 5 5 5 5 5 5 5 5 5 5 5 5 4 4 3 3 3 3 2 3 5 11 6 5 4 3 4 5 5 6 5 7 9 11 11 11 13 14 16 13 11 10
4 5 5 5 5 5 5 5 5 5 5 5 5 5 5 5 5 5 4 4 4 3 3 3 6 9 9 2 4 3 4 5 5 4 5 4 7 10 11 13 15 15 18 17 14 12 11
5 5 5 5 5 5 5 5 5 5 5 5 5 5 5 5 5 5 5 5 3 3 3 4 4 10 7 6 4 3 4 4 5 6 8 8 11 13 14 14 18 17 17 16 15 12 12
5 5 6 6 6 6 6 5 5 5 5 5 5 5 5 5 5 5 7 8 9 10 7 9 9 9 7 5 4 7 4 5 6 8 11 11 13 15 14 13 13 13 15 15 13 10 12
5 5 5 6 6 6 5 5 5 5 5 5 5 5 5 6 5 6 8 10 8 8 11 7 6 7 6 6 7 6 6 9 9 12 11 13 14 12 11 11 12 13 14 14 12 11 12
5 5 5 5 6 5 5 5 5 5 5 5 5 5 5 5 6 8 10 8 6 7 11 9 7 7 7 6 8 7 7 9 11 12 12 14 12 10 11 12 12 13 14 14 14 11 11
4 5 5 5 5 4 4 4 5 5 4 5 5 6 6 6 9 10 10 7 7 7 14 11 10 7 6 6 8 5 6 8 10 12 12 13 11 11 13 13 12 15 11 12 12 14 16
4 4 4 4 4 4 4 4 5 4 4 4 5 5 5 6 11 11 8 8 9 8 19 9 9 6 8 9 9 8 7 8 11 12 12 13 13 13 13 12 9 11 9 10 11 13 16
3 4 4 3 3 4 4 4 4 4 4 4 5 5 5 9 10 10 8 9 8 13 18 10 10 11 11 10 10 9 8 8 8 11 12 12 10 11 11 9 8 8 10 11 14 16 18
3 3 2 3 3 4 4 4 4 4 4 4 4 5 6 8 11 9 9 9 15 17 10 12 11 10 12 12 11 11 11 13 14 16 16 13 12 10 8 11 9 10 14 19 20 20 18
2 2 2 3 3 3 4 4 4 4 4 4 4 5 7 7 8 9 8 12 18 14 12 10 11 11 13 11 11 11 12 13 11 13 15 16 17 11 8 10 13 13 13 18 23 21 17
2 2 2 3 3 3 4 4 4 4 4 4 5 9 9 7 6 8 10 15 16 13 11 12 11 13 13 12 12 12 13 13 11 11 15 16 15 9 8 8 10 13 16 13 17 16 19
2 2 2 3 3 3 4 4 4 4 4 5 8 11 8 5 6 8 12 15 12 10 10 11 14 12 14 14 13 13 14 11 11 10 12 13 16 11 9 8 9 12 10 17 16 21 23
2 2 2 2 3 3 4 4 4 4 4 5 10 10 7 7 5 9 14 12 10 9 10 11 13 13 13 13 13 14 13 11 10 11 11 13 14 14 11 12 13 13 15 14 14 16 21
2 2 2 2 2 3 3 4 4 4 4 7 10 12 7 6 9 13 14 11 9 10 9 10 10 11 12 12 13 13 13 12 9 10 13 12 14 16 13 10 9 11 13 14 18 19 17
2 3 2 2 2 2 3 4 4 4 4 8 12 12 8 7 12 13 11 10 9 10 10 11 12 11 12 13 15 12 12 10 9 10 11 10 15 18 16 14 11 13 12 12 13 14 17
3 3 3 2 2 2 3 4 4 4 4 9 11 13 12 11 11 12 12 11 11 8 9 10 12 11 12 13 12 14 13 11 10 10 6 9 14 15 17 15 14 15 13 12 13 19 16
3 2 2 2 2 2 3 3 4 4 4 8 10 12 13 15 13 12 12 10 11 11 10 10 12 12 13 16 14 14 14 13 12 7 9 12 14 14 13 12 12 12 13 12 14 14 16
2 2 2 2 2 2 3 4 4 4 5 10 12 12 11 12 11 12 10 11 11 10 11 12 12 12 12 15 14 15 14 15 14 12 12 12 15 14 15 12 12 13 12 12 12 13 13
2 2 2 2 2 2 3 4 4 3 5 11 9 9 10 10 10 11 10 9 10 10 10 10 11 12 13 12 11 12 12 13 13 12 14 14 14 16 16 14 13 16 13 13 12 11 12
3 3 2 2 2 3 3 4 4 4 5 8 9 9 10 12 11 11 10 10 11 11 11 11 10 11 10 8 10 12 13 12 11 11 12 15 15 13 17 15 19 13 10 10 11 10 10
2 2 2 2 2 2 2 4 5 4 4 8 7 8 10 12 11 11 10 10 10 9 11 10 9 8 8 11 13 15 15 13 11 10 12 11 11 15 17 19 14 13 11 11 13 13 10
2 2 2 2 2 2 2 3 4 4 4 6 7 7 8 11 12 9 11 11 12 12 11 11 9 8 9 12 14 17 18 14 16 13 10 11 10 13 15 19 20 13 9 8 9 15 11
3 2 2 2 2 2 2 2 4 4 4 5 6 6 8 10 9 9 11 11 10 11 13 12 11 10 9 14 16 17 17 11 16 16 16 16 13 16 16 17 15 10 9 9 16 16 11
3 3 2 3 2 2 2 2 3 4 3 5 7 5 7 9 9 8 8 10 10 10 13 11 12 11 11 15 15 15 16 14 14 13 15 14 15 15 15 17 18 9 10 15 13 11 10
3 3 3 3 3 3 2 2 3 3 3 4 7 5 5 9 9 8 7 7 8 8 10 10 12 12 10 14 15 15 16 15 16 19 10 15 12 14 14 16 11 10 11 10 10 11 11

GFSGBSN_con_lsi_075.txt.gz
Lid_Strength_Index
4 4 4 4 4 5 5 4 4 4 4 5 5 5 5 5 5 5 4 4 4 4 3 3 3 3 3 7 8 3 -1 -1 -0 1 5 6 7 7 9 9 9 10 9 8 8 8 8
4 4 4 4 4 4 4 5 4 4 4 4 4 5 5 5 5 5 4 4 4 4 4 3 3 3 5 10 6 2 -0 0 1 4 5 4 4 5 7 8 9 9 9 9 8 8 8
4 4 4 4 5 4 5 5 5 4 4 4 4 5 5 5 5 5 4 4 4 4 3 3 3 4 6 9 3 2 0 2 3 4 5 4 4 6 6 8 7 8 10 9 8 8 9
5 5 4 4 5 5 5 5 5 5 4 4 4 4 5 5 5 5 5 4 4 4 4 3 3 4 8 5 4 3 0 3 3 3 4 3 4 5 7 7 8 9 10 11 9 9 8
5 5 5 5 5 5 6 5 5 5 5 4 4 5 5 5 5 5 5 5 4 4 4 3 5 6 8 2 4 2 2 4 4 3 3 3 5 7 7 9 10 10 12 12 11 8 9
5 5 5 5 5 5 5 5 5 4 4 4 4 5 5 5 5 5 5 6 4 3 4 4 5 8 6 5 3 3 3 4 5 5 6 6 7 8 9 10 13 13 12 12 12 9 9
5 5 5 5 5 5 5 5 5 4 5 4 4 4 5 5 5 5 7 7 8 8 6 7 7 8 6 4 3 5 4 5 5 6 8 8 9 10 9 9 10 11 11 12 10 8 10
5 5 4 5 5 5 5 4 3 3 3 4 4 4 5 5 5 6 7 9 7 6 9 6 6 6 5 5 7 5 4 7 8 10 9 9 10 8 8 9 10 10 11 11 9 8 9
4 5 4 4 4 4 4 3 4 4 4 4 4 4 5 5 6 7 8 8 6 6 9 8 7 7 6 5 7 7 6 7 8 10 10 10 10 9 10 10 11 10 11 11 11 9 8
4 3 3 4 4 4 4 4 4 4 4 4 4 4 4 5 7 8 8 6 6 7 12 10 9 7 6 6 8 5 5 7 9 10 10 10 9 10 10 10 10 12 9 10 10 10 13
3 3 3 3 3 3 3 4 4 4 4 4 4 3 4 5 7 9 7 7 6 7 17 9 9 5 6 8 8 7 5 7 9 10 9 10 10 11 11 10 9 10 8 9 9 10 11
2 2 2 2 2 3 3 4 4 4 4 4 4 3 4 6 7 6 6 6 5 12 18 10 9 10 9 9 9 7 7 6 7 9 9 9 8 9 9 8 8 7 9 9 10 10 14
2 2 2 2 2 3 3 4 4 4 4 4 4 4 5 5 7 6 5 6 12 15 9 12 12 10 11 11 10 9 9 10 10 12 12 10 10 9 7 9 8 8 10 14 15 14 15
2 2 2 2 2 3 3 3 4 4 4 4 4 5 5 5 5 5 4 7 15 12 11 10 11 10 11 10 10 10 10 11 10 11 12 13 14 10 8 9 11 10 11 14 18 17 15
1 2 2 2 2 3 3 3 4 4 4 4 5 6 6 4 4 4 6 11 12 11 10 11 11 13 11 10 11 10 11 11 9 9 12 13 13 9 9 8 8 11 12 10 13 13 16
1 2 2 2 3 3 3 3 4 4 4 4 7 8 5 4 3 4 8 12 10 8 9 10 14 12 14 12 12 11 11 9 10 9 9 11 14 11 9 8 8 9 8 14 15 20 18
2 2 2 2 3 3 3 3 3 4 4 5 6 6 5 4 3 6 10 10 9 7 7 10 11 12 12 12 12 12 12 10 9 9 8 9 12 13 10 10 11 11 12 12 13 15 18
2 2 2 2 2 3 3 3 3 4 4 6 7 8 4 4 7 9 10 9 8 7 6 8 8 11 11 11 12 12 12 11 8 8 11 10 11 14 12 9 8 9 10 11 16 16 15
2 2 2 2 2 3 3 3 4 4 4 7 8 8 4 4 11 10 9 9 8 8 8 9 9 10 10 12 13 12 11 9 8 9 10 9 12 15 14 11 9 11 10 10 11 12 16
2 2 2 2 2 2 3 3 4 4 4 6 7 10 8 8 8 10 11 10 10 7 8 8 9 10 11 12 11 12 12 10 9 9 8 8 11 12 15 13 10 12 10 10 11 15 14
2 2 2 2 2 2 2 3 4 4 4 5 7 10 10 12 10 10 11 10 10 10 8 8 9 10 12 14 13 13 11 11 10 8 9 9 12 11 10 10 10 11 11 10 12 11 15
2 2 2 2 2 2 2 3 5 4 5 7 8 8 8 9 9 10 10 10 10 10 9 10 11 10 11 13 13 13 12 11 12 10 9 10 12 11 12 10 10 12 10 10 10 10 11
3 2 2 2 2 2 2 3 5 4 5 8 8 7 8 10 10 11 10 10 10 10 9 8 9 11 12 11 9 9 9 10 10 11 11 10 11 12 14 11 11 14 12 11 11 10 11
2 2 2 2 2 2 2 3 5 4 6 7 8 8 10 11 10 11 10 10 10 9 10 9 9 11 9 7 7 8 10 10 10 10 9 10 11 11 14 13 18 11 9 9 11 10 8
2 2 2 2 2 2 2 2 4 4 5 6 7 7 9 11 10 11 10 10 9 9 10 10 9 7 6 8 11 12 12 11 10 10 9 9 10 14 16 16 12 12 11 11 12 12 9
2 2 2 2 2 2 2 2 3 4 4 6 6 6 7 10 11 9 10 10 11 11 11 10 7 7 8 10 11 15 15 13 14 12 9 9 9 12 15 18 18 12 9 8 9 14 10
2 3 3 2 2 2 2 2 3 4 4 5 6 6 7 10 9 9 10 11 9 10 12 11 10 10 7 12 13 14 14 11 15 14 14 13 13 15 15 16 13 9 8 8 15 14 10
3 3 3 3 2 2 2 1 2 3 4 5 6 5 7 9 9 8 7 9 9 10 12 10 10 10 10 13 13 13 13 13 13 11 13 13 14 14 14 16 17 8 10 13 11 10 11
2 2 2 3 2 2 2 2 2 3 4 4 7 5 5 8 8 6 6 5 7 8 10 10 11 11 10 12 12 12 13 13 12 14 9 14 12 14 13 13 9 8 9 9 10 11 11

GFSGBSN_con_lsi_078.txt.gz
Lid_Strength_Index
3 3 3 3 3 4 4 4 4 4 4 4 4 4 4 5 5 5 5 4 4 4 4 4 3 3 3 5 6 1 -1 -2 -1 1 3 4 5 6 7 6 7 7 7 6 6 6 6
4 4 4 4 4 4 4 4 4 4 4 4 4 4 4 5 5 4 4 5 4 4 4 4 3 4 4 8 4 0 -0 1 2 2 2 3 5 4 6 6 7 6 7 7 6 6 6
4 4 4 4 4 5 5 5 4 4 4 4 4 4 4 5 5 5 5 5 4 4 4 3 3 3 5 6 3 0 0 1 1 3 4 2 3 4 5 7 6 7 8 7 7 6 7
5 5 5 4 4 5 5 5 5 4 4 4 4 4 4 4 4 5 5 4 5 5 4 3 3 3 6 4 3 3 0 2 1 2 2 2 2 3 5 5 6 8 8 9 7 7 7
5 5 5 5 4 4 5 5 5 5 4 4 3 4 4 4 5 5 5 5 5 5 4 3 4 5 6 2 3 2 1 3 3 3 2 2 2 4 5 7 8 8 10 10 9 7 7
4 5 4 5 4 4 4 4 4 4 4 3 3 3 4 4 4 5 5 6 5 4 4 3 4 6 4 5 3 2 1 2 4 3 4 4 4 6 6 8 11 10 10 9 9 7 7
4 4 4 4 4 4 4 4 3 3 3 3 3 4 4 4 4 5 5 5 5 6 5 6 6 6 6 3 2 3 2 3 4 5 7 5 7 8 7 7 8 8 9 10 8 7 7
4 4 4 3 3 3 3 3 3 3 3 4 3 3 3 4 4 5 5 7 6 5 8 5 6 5 4 4 6 4 2 6 6 8 6 7 9 7 7 7 8 8 9 9 8 7 7
4 4 4 2 3 3 3 3 3 3 4 4 4 4 3 4 5 5 5 6 3 4 8 8 7 6 5 4 6 5 4 5 7 7 7 8 8 7 8 8 9 8 9 9 9 7 6
4 4 2 2 2 2 2 3 3 3 3 4 4 4 3 4 5 4 6 4 3 4 9 9 8 7 6 5 7 4 4 5 7 8 8 8 6 8 9 9 9 10 8 9 9 9 11
3 3 2 2 2 2 3 3 3 3 4 4 4 4 3 4 4 5 4 3 3 3 14 7 7 4 6 8 7 6 3 5 8 8 8 9 8 9 9 9 8 9 8 8 8 9 9
3 1 1 2 2 2 2 3 3 3 4 4 4 3 4 4 3 3 3 3 2 9 14 9 7 8 8 8 8 7 6 4 5 7 7 7 6 8 8 8 8 7 8 8 8 9 13
1 1 1 2 2 2 3 3 3 4 4 4 4 4 3 2 4 3 3 3 10 12 7 9 9 9 9 10 9 8 8 8 9 11 10 8 8 7 7 9 7 7 9 13 13 13 13
1 1 1 1 2 2 3 3 4 3 4 4 4 4 4 2 1 2 1 6 13 10 10 8 8 8 10 9 9 9 9 10 8 9 10 11 12 9 7 8 9 9 9 13 18 15 13
1 1 1 1 2 3 3 3 4 4 4 4 5 1 1 1 0 1 4 10 10 9 8 9 8 9 9 9 10 10 10 9 8 8 11 11 12 8 7 7 8 9 11 8 12 11 13
1 1 1 1 2 2 3 3 3 4 4 4 3 2 3 1 -0 1 6 10 8 7 7 7 11 9 11 10 11 11 11 8 9 7 7 9 12 9 8 7 8 9 7 12 11 17 16
1 1 1 2 2 2 3 3 3 4 4 4 2 4 2 1 0 4 9 8 7 6 6 8 9 10 9 10 10 11 11 9 8 8 7 8 10 11 9 10 10 10 10 10 10 13 16
1 1 2 2 2 2 2 3 3 4 5 4 3 6 2 1 6 5 7 7 7 6 5 7 7 8 9 9 10 10 11 10 7 7 9 7 10 12 11 9 8 8 9 8 14 14 13
1 2 2 2 2 2 2 3 3 4 5 4 5 4 1 1 9 7 7 7 6 7 7 8 8 7 7 9 11 9 9 8 7 8 9 8 11 13 13 10 8 9 8 8 9 10 14
2 2 2 2 2 2 2 2 3 4 4 4 5 7 4 4 4 7 9 8 9 6 7 6 7 6 8 9 9 11 10 9 8 8 7 8 10 12 14 11 9 10 9 8 9 14 13
2 2 2 2 2 2 2 2 3 4 4 4 5 8 7 8 6 8 7 8 9 10 7 7 9 9 9 11 10 11 10 9 9 8 8 8 12 11 10 9 9 9 9 9 10 9 12
2 1 2 2 2 2 2 2 3 4 4 3 6 7 6 7 8 9 8 9 10 10 9 10 10 9 9 11 10 11 11 10 10 9 9 8 12 10 11 9 9 10 9 8 9 9 9
2 2 1 2 2 2 2 2 4 4 4 3 4 4 6 8 10 10 9 10 10 9 8 7 8 9 10 9 8 8 8 7 8 9 10 9 10 11 13 10 10 12 10 10 9 8 10
1 1 2 2 2 2 2 2 4 4 4 4 3 4 7 10 9 9 9 9 9 9 9 8 7 9 8 6 6 7 7 7 8 8 8 9 10 10 13 11 16 10 7 8 9 8 7
1 1 2 2 2 2 2 2 3 4 4 3 3 4 6 10 8 9 9 9 8 7 8 8 7 7 6 8 10 11 10 10 9 8 8 7 9 13 15 14 11 9 10 10 10 10 8
1 1 1 2 2 2 2 2 2 4 4 3 3 2 7 10 9 8 9 8 10 10 9 9 6 5 7 10 11 15 16 12 14 12 8 7 8 12 13 17 16 11 8 7 8 13 9
1 1 1 2 2 2 1 1 2 3 4 4 4 4 7 10 8 6 9 10 8 8 10 10 9 8 7 11 14 14 13 10 13 13 14 13 13 15 14 15 11 8 7 7 14 13 9
2 2 2 2 2 2 1 1 1 3 3 4 5 4 6 9 8 7 7 8 8 9 11 9 10 9 10 12 13 12 12 10 11 10 11 12 14 14 12 15 17 6 7 12 10 9 10
2 2 2 2 2 1 1 1 1 2 3 4 6 4 5 8 7 5 4 5 5 6 8 9 10 11 10 12 10 10 11 10 11 13 8 13 10 13 11 12 7 6 7 7 8 10 10

GFSGBSN_con_lsi_081.txt.gz
Lid_Strength_Index
4 4 4 4 4 4 4 4 4 4 4 4 4 3 3 4 4 4 5 4 4 4 4 4 4 3 3 4 4 -1 -1 -1 -1 1 3 3 4 4 6 5 5 6 5 5 4 4 5
5 4 4 4 4 4 4 4 4 4 4 4 4 4 4 3 4 4 4 5 5 5 4 4 4 3 3 6 3 0 -0 -0 0 1 2 3 4 3 4 5 5 4 5 5 5 5 5
4 5 5 5 5 4 5 4 4 4 4 4 3 4 3 3 4 4 4 5 5 5 4 4 3 3 4 4 3 0 0 1 0 2 3 2 2 4 4 5 4 5 7 6 6 5 6
4 4 5 5 5 5 5 5 4 4 4 3 4 4 3 3 4 4 4 5 5 5 5 4 3 3 5 2 2 2 0 1 0 1 2 1 1 3 4 4 6 7 6 8 6 5 6
4 4 4 4 4 4 4 4 4 4 3 3 3 3 3 3 4 4 4 5 5 5 5 5 4 4 5 3 4 3 0 2 2 2 1 1 2 4 4 6 7 7 9 8 7 5 6
4 4 4 4 4 4 3 3 3 3 3 3 3 3 3 3 3 4 4 5 5 4 4 4 3 6 3 5 3 2 1 1 3 3 3 3 4 6 6 7 10 9 9 8 8 6 6
4 4 4 4 4 3 3 3 3 3 3 3 3 3 3 3 3 4 5 3 4 4 4 6 6 6 5 3 2 3 2 3 3 4 6 4 7 8 7 6 6 7 8 8 7 6 7
3 4 4 4 3 2 2 2 2 3 3 3 3 3 3 3 3 4 4 4 5 4 7 4 5 6 4 4 5 4 2 5 5 7 5 6 8 6 6 6 7 7 8 8 7 6 6
2 3 3 3 2 2 2 2 2 3 3 3 4 4 3 3 3 4 3 4 3 3 6 6 5 5 5 5 6 6 3 5 6 7 6 8 7 6 6 7 8 8 8 8 8 7 6
2 3 3 2 2 2 2 2 2 2 3 3 4 4 3 3 4 1 3 2 2 2 9 7 6 5 5 5 7 5 5 4 6 7 6 7 5 6 7 8 7 9 6 7 8 9 11
2 2 2 2 2 2 2 2 2 3 3 4 4 4 4 4 3 3 3 2 1 2 17 6 6 2 4 6 6 6 4 6 7 7 6 8 7 7 8 7 7 8 6 7 7 9 9
2 2 1 1 1 2 2 3 3 3 3 4 4 4 3 2 2 1 1 2 2 10 15 8 6 6 7 6 7 6 6 5 4 6 6 6 5 6 6 6 7 6 7 7 7 9 13
2 1 1 1 1 1 2 3 3 3 3 4 4 4 4 1 2 1 0 2 10 12 7 9 8 6 7 8 8 7 8 8 9 10 10 9 7 6 6 8 7 7 9 13 14 13 14
1 1 1 1 1 1 2 3 3 3 3 4 4 5 2 1 -0 -0 1 6 13 9 9 6 7 7 8 7 8 8 8 9 7 8 10 11 13 8 6 7 8 8 9 13 18 16 13
1 1 1 1 1 2 2 3 3 3 4 5 5 -0 0 -1 -1 -1 4 11 10 8 7 8 7 9 9 8 8 8 8 9 8 7 11 11 12 7 7 6 7 9 11 8 12 11 13
1 1 1 1 1 2 2 2 3 3 4 5 3 1 1 -0 -2 1 6 10 8 6 6 6 10 8 10 10 10 9 10 8 8 7 6 9 13 8 7 7 6 8 7 11 11 17 17
1 1 1 1 2 2 2 2 3 3 4 5 2 4 1 -1 -0 4 9 8 7 5 5 7 8 9 9 9 9 9 10 8 7 7 7 8 10 10 8 9 10 9 10 10 10 11 16
1 1 1 1 1 2 2 2 3 3 5 3 2 6 1 -1 6 5 7 7 7 6 5 6 6 7 9 8 9 9 9 8 7 7 9 7 10 13 10 7 7 8 9 9 12 14 12
1 1 1 1 2 2 2 2 2 3 4 3 4 4 0 1 8 7 6 7 6 6 7 7 8 7 6 9 10 8 8 6 6 8 9 7 10 14 12 9 8 10 9 8 8 9 13
1 1 1 1 1 2 2 2 2 3 4 3 3 6 3 2 3 7 8 8 8 6 6 6 7 6 8 9 7 9 9 7 7 7 7 7 9 11 14 11 9 11 9 8 8 13 12
1 1 1 1 1 2 2 2 2 3 4 3 3 6 5 7 6 6 7 7 8 9 6 6 8 8 9 11 10 9 8 8 7 6 8 8 12 10 10 9 9 9 9 8 9 9 11
1 1 1 1 1 1 1 2 2 3 4 3 5 5 3 5 6 7 8 8 9 9 8 9 9 9 8 10 10 12 9 8 9 7 8 7 12 10 11 9 9 10 8 8 8 8 8
1 1 1 1 1 1 1 2 3 3 4 3 2 2 4 6 7 7 7 8 8 7 6 6 7 9 9 8 6 6 6 6 7 9 9 10 11 12 13 9 9 11 9 9 8 7 8
1 1 1 1 1 1 1 2 2 4 4 2 2 3 7 8 7 8 8 7 8 8 8 6 6 7 6 4 4 5 6 7 7 8 7 10 10 10 13 11 16 10 7 7 8 7 7
1 1 1 1 1 1 1 1 1 3 4 3 1 4 6 8 7 8 8 8 7 6 7 7 6 5 3 6 10 11 10 11 9 8 8 8 9 13 15 14 11 9 9 9 10 9 7
1 1 1 1 1 1 1 1 1 3 4 4 2 2 4 7 8 7 8 8 8 8 8 7 5 4 5 6 11 14 16 13 14 12 7 8 8 11 12 17 16 11 7 5 6 12 8
1 1 1 1 1 1 1 0 1 2 3 4 2 1 4 8 6 6 8 8 7 8 8 7 7 6 5 11 14 13 13 10 14 14 13 12 12 13 13 15 11 8 6 5 13 13 8
1 2 2 1 1 1 1 0 1 1 2 3 3 3 5 8 6 6 6 7 7 8 9 7 7 8 9 12 12 11 12 11 11 10 12 13 14 14 12 15 16 6 6 11 8 8 9
2 2 1 2 2 1 1 1 1 1 2 2 5 3 3 7 7 3 3 3 5 5 7 8 7 8 8 11 10 10 11 9 10 14 8 12 10 12 11 11 6 5 6 6 7 9 10

GFSGBSN_con_lsi_084.txt.gz
Lid_Strength_Index
4 4 4 4 4 4 4 4 4 4 3 4 4 4 3 4 3 3 3 4 4 4 4 4 4 4 4 5 5 -0 -1 -1 1 3 4 3 4 4 6 5 5 6 5 5 4 5 5
4 4 4 4 4 4 4 4 5 4 4 4 3 4 3 3 4 3 3 4 4 5 5 5 4 4 5 7 3 -0 1 1 1 2 3 3 4 3 4 5 6 5 5 5 5 5 5
3 4 4 4 4 4 4 4 4 4 3 3 3 3 3 4 3 3 3 4 4 5 5 4 4 4 5 5 2 2 1 1 0 1 2 2 2 4 4 5 4 5 6 6 5 5 6
3 3 4 4 4 4 4 4 3 3 3 3 3 3 3 3 3 3 3 4 4 5 5 5 5 4 6 2 1 2 1 2 1 1 2 2 2 3 4 4 5 6 6 9 6 5 5
3 3 3 3 3 3 3 4 2 2 3 3 3 3 3 3 3 4 3 4 4 4 4 4 5 5 7 2 5 3 2 2 2 2 2 1 2 4 4 7 8 7 10 9 8 5 6
3 3 3 3 3 3 3 2 2 2 2 2 3 3 3 3 3 3 4 4 4 4 4 3 3 6 5 5 5 4 2 1 3 3 4 3 4 6 6 8 11 10 10 9 9 7 6
2 3 3 3 3 3 3 2 2 2 2 2 3 3 3 3 3 4 4 3 4 5 4 5 6 7 6 4 3 4 2 2 3 4 7 5 7 9 7 7 7 8 9 9 8 6 7
3 2 3 3 3 3 2 2 2 2 2 2 2 3 3 4 3 3 5 5 4 4 8 4 4 5 4 4 6 5 4 6 5 7 6 7 9 6 6 6 7 8 9 9 7 6 7
3 2 2 3 2 2 2 2 2 2 2 3 3 3 3 4 4 4 4 3 2 3 6 5 3 4 4 4 6 6 5 6 7 7 7 8 7 6 7 7 8 8 9 9 9 7 7
3 2 2 2 2 2 2 2 2 2 2 3 3 3 4 4 4 1 3 1 2 2 9 7 6 5 4 4 7 4 4 6 7 8 7 7 6 7 7 8 7 9 7 7 8 9 11
3 2 2 2 2 2 2 2 2 2 2 3 3 3 4 4 3 2 2 1 2 2 19 7 6 2 3 6 5 6 3 6 8 8 7 8 7 7 8 8 7 8 6 7 8 9 10
2 1 1 1 1 1 2 2 2 2 3 3 3 3 4 2 2 1 1 1 2 11 18 8 5 6 7 6 6 5 6 5 5 8 7 7 5 6 7 6 6 6 7 8 8 9 14
2 1 1 1 1 1 2 2 2 2 3 3 3 4 5 2 2 0 0 2 11 15 7 9 8 6 7 7 6 6 7 8 9 11 10 8 7 6 6 8 6 7 9 14 15 15 16
2 2 1 1 1 1 2 2 2 2 3 3 4 5 2 1 -0 -1 1 7 15 10 9 6 7 7 8 7 7 7 7 9 7 8 10 12 14 8 6 8 8 8 9 14 19 17 14
2 1 1 1 1 1 2 2 2 2 3 3 5 0 1 -0 -1 -0 5 12 12 9 7 8 7 9 8 8 8 8 8 9 7 7 11 12 12 7 6 6 7 9 11 8 12 11 14
2 1 1 1 1 1 1 2 2 2 3 4 4 2 2 -1 -1 2 7 11 8 6 6 7 10 8 10 10 10 9 10 7 8 6 6 9 14 8 8 6 6 8 7 12 11 18 18
2 1 1 1 1 1 1 1 2 2 3 4 3 5 1 -1 -0 5 10 9 7 5 5 8 9 9 9 9 9 10 10 8 6 7 6 8 10 11 8 10 10 9 10 10 10 12 17
2 1 1 1 1 1 1 2 2 3 4 3 3 7 1 -0 6 6 8 7 7 6 5 6 6 8 9 9 10 9 9 8 6 6 9 7 10 14 11 8 7 8 9 9 15 15 13
2 1 1 1 1 1 1 2 2 2 4 4 5 4 1 1 9 8 7 7 6 6 6 7 8 7 7 9 11 9 8 6 6 6 8 8 12 16 13 10 8 9 9 9 9 10 13
2 1 1 0 1 1 1 1 1 2 3 4 4 7 4 3 4 7 8 8 8 5 6 6 7 6 8 9 8 10 9 7 6 6 5 7 9 12 15 13 11 12 9 8 9 13 12
2 1 0 0 0 1 1 1 1 2 3 4 4 6 5 8 7 7 6 7 8 8 6 6 8 9 9 11 10 10 9 9 7 6 7 7 12 10 10 9 10 10 10 10 11 9 11
2 1 0 0 0 0 1 1 1 1 3 3 6 6 4 6 5 7 7 8 9 8 8 8 9 8 8 10 10 11 9 9 10 7 7 7 12 10 12 10 10 11 10 10 9 9 9
2 1 0 0 0 0 0 0 1 1 3 3 3 2 4 6 6 7 7 8 8 7 6 6 7 8 9 8 7 6 6 6 7 9 10 10 11 13 15 10 10 13 10 9 9 8 9
2 1 0 -0 0 0 0 0 1 1 3 3 3 4 6 8 7 7 7 7 7 7 8 6 6 8 6 3 4 5 6 6 7 7 7 10 11 12 15 12 17 10 7 7 9 8 7
1 1 0 -0 -0 1 0 0 0 1 2 2 2 3 6 9 7 7 7 7 7 7 7 7 6 4 3 5 9 11 11 10 10 8 8 8 11 15 16 15 12 10 9 9 10 10 8
1 0 0 -0 0 0 0 1 1 1 1 2 1 1 4 8 7 6 8 8 9 9 8 7 5 3 4 7 10 14 16 14 15 11 7 8 9 12 14 18 17 12 8 6 6 12 7
0 0 0 -0 1 1 1 1 0 0 1 2 2 -1 4 7 5 6 8 8 7 8 9 7 7 6 5 10 13 13 14 11 16 14 13 13 13 15 14 15 12 8 7 5 13 13 8
1 1 0 1 1 2 2 1 1 0 1 2 2 0 3 6 5 5 5 7 7 7 10 7 8 8 9 12 12 11 12 12 12 11 13 14 14 15 14 15 17 6 7 11 8 7 8
2 1 1 2 2 2 1 1 1 0 0 2 4 1 2 5 5 3 3 3 4 4 6 7 7 8 8 10 11 10 12 11 11 15 9 15 12 14 12 12 7 6 6 5 6 7 8

GFSGBSN_con_lsi_087.txt.gz
Lid_Strength_Index
3 3 3 3 4 4 3 3 3 4 4 4 3 3 3 3 3 3 3 3 3 4 4 5 4 4 5 8 7 1 -2 -2 2 4 6 7 7 8 9 8 8 9 7 6 6 6 7
3 3 3 3 3 4 3 3 3 4 4 3 3 3 3 3 3 3 3 3 3 4 4 5 5 5 7 10 3 -0 0 1 4 6 7 7 6 6 7 8 9 7 7 7 7 7 7
3 3 3 3 3 3 3 3 3 3 3 2 2 3 3 3 3 3 3 3 4 4 4 5 5 5 7 8 3 1 3 4 3 4 5 4 4 6 6 8 6 6 9 8 7 8 8
3 3 3 3 3 3 3 3 3 3 2 2 2 3 2 3 3 3 3 3 4 4 4 4 5 6 9 4 3 4 3 3 2 3 4 3 3 5 7 6 7 9 9 13 9 7 7
3 4 3 3 3 3 3 3 3 2 2 2 2 2 2 3 3 3 3 3 4 3 3 4 6 6 8 3 5 4 3 4 3 3 3 3 4 6 7 10 11 10 13 12 10 7 8
3 3 3 3 3 3 3 3 2 2 2 2 2 2 2 2 3 3 4 3 3 4 4 3 4 7 6 7 5 4 5 5 4 4 5 5 7 9 10 12 15 13 13 11 11 9 8
3 3 3 3 3 3 2 2 2 2 2 2 2 2 3 3 3 4 4 6 5 6 5 7 7 7 6 4 4 6 5 5 5 6 9 7 10 12 10 9 8 9 10 11 9 7 9
3 3 3 3 3 3 2 2 2 2 2 2 2 2 2 3 3 4 5 8 5 5 9 4 4 5 3 4 6 6 5 8 7 9 8 9 11 8 7 7 8 9 11 11 10 8 10
3 3 3 3 3 3 2 2 2 2 2 2 3 2 2 3 3 5 6 5 2 3 9 6 4 5 4 4 6 7 6 7 9 9 9 10 8 6 7 8 9 10 11 11 11 9 9
3 3 3 3 3 3 2 2 1 1 2 2 3 2 3 3 5 4 4 1 2 3 11 8 7 5 4 4 7 4 5 7 8 10 8 8 7 8 8 9 9 12 8 8 9 11 15
3 3 3 4 3 3 2 2 2 2 2 2 2 2 3 3 7 5 3 3 4 4 19 7 6 3 4 6 6 6 4 6 9 9 9 9 9 9 9 9 8 10 7 8 9 12 12
3 3 3 4 3 2 2 2 2 2 2 2 2 2 3 4 5 3 2 2 4 12 19 9 6 7 7 6 6 5 6 6 7 9 9 9 6 7 8 7 7 6 9 9 10 12 16
4 4 3 3 3 3 2 2 2 2 2 2 2 3 4 4 5 2 2 5 13 17 8 9 8 7 8 8 8 7 8 9 11 14 13 9 9 7 6 9 7 8 12 16 18 18 17
4 4 4 4 4 3 2 2 2 2 2 2 3 4 4 3 3 2 3 9 17 11 10 7 8 7 9 8 8 8 8 10 8 9 12 13 15 9 7 8 10 10 11 18 22 21 18
4 4 4 4 3 3 2 2 2 2 2 3 4 4 3 1 1 2 7 14 14 10 8 8 8 10 10 8 9 9 9 10 9 8 12 14 14 7 7 7 8 10 12 10 14 14 18
4 4 4 4 3 3 2 2 2 2 2 3 6 5 3 1 0 3 10 13 10 7 7 7 11 9 11 10 11 10 11 8 8 7 7 11 15 9 8 7 7 9 8 14 14 20 21
4 4 4 3 3 2 1 1 1 2 2 4 6 6 3 1 1 7 12 11 9 6 6 8 9 10 10 10 10 11 11 8 7 8 8 9 12 12 9 10 11 11 12 11 13 15 19
4 4 3 3 3 2 1 1 1 2 3 3 6 9 2 1 9 8 11 9 7 7 6 6 7 8 10 10 11 11 11 9 6 7 10 9 12 16 13 8 7 8 10 11 17 18 16
4 4 4 3 3 1 1 1 1 1 3 5 7 6 2 2 11 10 8 8 7 7 7 7 8 7 8 10 13 10 9 6 6 7 10 9 14 18 15 12 10 11 10 10 11 13 16
4 4 3 2 2 1 1 1 1 1 2 4 6 10 6 5 6 9 10 9 8 6 7 7 8 7 9 11 10 11 10 8 6 7 5 7 12 15 18 15 12 14 11 10 11 16 15
5 4 4 2 1 1 0 0 0 1 1 4 5 8 6 10 8 8 8 8 9 10 7 7 9 9 10 12 11 12 10 9 7 6 7 9 14 12 11 10 10 10 11 10 12 12 15
5 4 3 2 1 0 0 0 0 1 2 4 7 7 6 8 7 8 8 9 9 9 8 9 10 9 9 12 11 12 10 10 11 9 10 9 14 12 13 11 10 11 10 11 11 11 12
3 3 3 2 1 -0 0 -0 -0 0 1 3 3 3 6 7 8 9 9 8 8 7 7 7 8 9 9 8 7 7 7 8 8 10 11 12 13 15 17 11 11 14 11 10 10 10 11
3 2 2 2 -0 -0 0 -0 -0 -0 1 2 3 3 8 10 8 8 7 7 8 8 9 7 7 9 6 4 6 7 7 7 8 8 8 11 13 13 16 14 19 11 8 8 11 10 9
2 2 1 0 -0 -1 -0 -0 -0 -0 0 2 3 4 6 10 8 8 8 8 8 8 8 8 7 5 5 7 10 12 12 11 10 8 8 8 11 15 18 17 13 11 11 10 11 12 9
2 1 1 0 -1 -1 -0 -0 -0 0 0 2 2 2 4 9 9 7 8 8 10 10 10 8 6 4 6 8 11 15 17 14 15 12 8 9 10 14 16 19 20 13 8 6 8 16 8
2 2 1 1 -1 -1 -0 0 0 0 0 3 3 1 3 8 6 6 9 9 7 9 10 9 8 7 6 11 14 15 15 11 16 16 14 14 13 16 16 17 14 9 7 7 16 15 8
2 2 2 1 1 0 0 0 0 1 1 2 3 1 3 6 6 5 5 7 8 8 11 9 10 8 9 13 13 13 14 13 14 12 13 15 15 16 15 17 18 7 8 13 10 8 9
2 1 2 2 2 1 1 1 1 1 0 1 3 2 2 5 6 4 4 4 4 6 7 8 8 8 8 11 11 11 13 12 13 16 9 15 12 14 13 14 8 7 8 6 7 9 10

GFSGBSN_con_lsi_090.txt.gz
Lid_Strength_Index
4 3 3 3 3 3 3 3 3 3 3 3 3 3 3 3 3 3 3 3 3 3 3 4 4 5 6 9 9 4 -2 -1 0 5 7 9 11 10 12 11 10 11 9 7 6 7 7
3 3 3 4 4 3 3 3 3 3 3 2 2 2 2 2 3 3 3 3 3 3 3 4 4 5 8 11 5 2 1 2 4 7 8 9 9 8 9 10 10 9 8 8 7 8 8
3 3 3 3 3 4 3 3 3 3 2 2 2 2 2 2 2 2 2 3 3 3 4 4 4 6 8 9 4 1 3 5 5 6 7 7 7 8 8 9 8 8 10 9 8 8 9
3 3 3 3 3 3 4 3 3 3 2 2 2 2 2 2 2 2 2 3 3 4 4 3 4 6 10 4 5 5 5 5 4 5 5 5 6 7 8 8 8 10 10 13 10 9 8
3 3 3 3 3 3 4 3 3 2 2 2 2 2 2 2 2 2 2 4 3 3 3 3 6 7 8 2 4 4 4 5 4 4 4 3 6 7 8 11 12 12 14 13 11 9 9
3 3 3 3 3 3 4 3 3 2 2 1 2 2 2 2 2 2 3 4 3 3 3 4 4 7 6 6 5 5 6 4 5 5 6 7 8 11 11 12 15 14 14 12 12 9 9
3 3 3 3 3 3 4 4 3 2 2 1 2 2 3 2 2 3 4 7 6 7 6 7 7 7 6 4 4 6 6 7 7 7 10 9 12 13 11 10 10 10 11 12 11 9 10
3 3 3 3 3 3 4 4 3 2 2 2 2 2 3 3 2 3 5 8 5 6 9 5 5 5 4 4 6 6 6 9 9 10 9 11 12 9 7 8 9 10 11 11 10 9 10
3 3 3 3 3 4 4 4 4 3 3 2 2 2 3 3 3 5 7 6 4 4 9 6 4 5 4 4 6 6 7 8 9 11 10 12 10 7 8 9 9 10 12 12 12 10 10
3 3 3 4 4 4 4 4 3 3 2 2 2 2 3 3 5 6 6 3 3 3 12 9 7 5 4 4 7 4 5 7 9 11 10 10 7 8 9 9 9 12 9 9 10 12 15
3 3 4 4 4 4 4 4 4 3 3 2 2 2 2 3 6 7 4 4 3 5 19 8 7 3 4 6 6 6 5 7 10 10 11 11 9 10 10 9 8 10 8 9 10 13 14
4 4 4 4 4 4 4 4 4 3 3 2 2 2 2 5 6 5 3 3 5 12 19 10 7 8 7 7 6 5 6 6 7 9 10 10 7 9 9 7 7 7 9 10 12 13 16
4 4 4 4 4 4 4 4 4 4 3 2 2 2 3 3 7 4 5 6 13 17 8 10 9 8 9 9 8 8 8 9 11 14 14 11 10 8 6 9 8 9 13 17 17 17 18
4 4 4 4 4 4 4 4 4 4 3 2 2 3 4 4 5 5 5 9 18 12 10 7 8 9 10 9 9 9 10 11 10 11 13 14 15 9 7 9 11 11 12 17 21 21 18
4 4 4 4 4 4 4 4 4 4 3 2 3 6 5 3 4 4 7 15 14 11 8 9 8 10 11 9 9 9 10 10 9 10 12 14 14 8 7 7 8 11 13 10 15 14 17
4 4 4 4 4 4 4 4 3 3 3 3 5 7 7 2 3 4 9 13 11 7 7 8 11 10 12 11 12 11 11 8 8 8 8 11 15 10 8 8 8 10 8 16 15 20 20
5 5 4 4 4 4 3 4 3 2 2 3 7 7 4 2 3 7 13 12 9 6 6 8 10 11 11 11 11 12 11 9 8 8 9 11 13 13 10 11 12 12 12 12 13 15 20
5 5 5 4 4 3 3 3 3 2 3 4 7 10 3 3 8 9 11 9 7 8 6 7 8 9 10 10 11 12 11 10 7 7 10 9 12 16 13 9 8 10 11 11 17 18 16
6 5 5 4 4 3 3 3 3 2 2 5 9 8 4 4 11 11 8 8 7 8 8 8 9 8 8 11 13 10 10 7 7 8 10 10 13 17 15 12 10 12 10 10 11 14 16
6 6 5 4 3 3 2 2 2 2 1 5 8 10 7 6 7 9 10 9 9 6 7 7 8 8 10 11 10 12 11 8 7 7 5 7 12 14 17 15 12 13 11 11 12 16 15
6 5 4 4 3 2 2 1 1 1 1 4 8 9 9 11 9 9 9 9 9 10 7 8 9 9 11 14 12 13 10 9 8 7 8 11 14 13 11 11 11 12 12 11 12 12 15
4 4 3 2 2 2 1 1 0 1 2 6 8 8 7 9 9 9 9 9 10 9 9 9 10 9 10 13 12 13 11 10 12 9 11 10 14 13 14 11 11 12 11 11 11 10 11
3 3 2 2 1 2 1 0 -0 0 2 5 3 3 7 8 9 10 9 9 9 8 8 8 9 10 11 10 9 9 9 9 9 11 11 11 13 15 17 12 12 15 11 11 11 11 12
2 2 1 1 1 2 1 -0 -0 -0 1 4 4 4 8 10 9 9 8 8 9 8 10 8 8 10 8 7 8 9 9 9 9 9 8 11 12 13 16 14 20 11 9 9 11 10 11
2 1 1 1 1 1 0 -1 -0 -0 -0 2 4 4 7 10 8 8 8 8 9 9 9 9 8 6 6 8 11 13 13 13 11 9 10 9 12 15 17 17 13 11 10 11 12 12 10
2 2 1 1 1 0 0 0 -0 -0 -0 1 3 2 5 9 10 6 8 8 10 12 11 9 6 5 7 9 12 14 16 14 14 13 9 9 10 14 15 19 20 13 9 7 8 15 9
1 1 1 1 0 0 0 0 -0 -0 0 1 3 2 5 8 8 7 9 9 8 10 12 10 9 8 7 12 14 14 15 11 16 15 14 14 14 16 16 17 14 10 8 7 15 15 10
1 1 1 1 1 0 0 1 -0 -0 -0 1 3 2 4 7 7 6 5 8 9 10 11 10 10 10 11 14 13 14 14 13 14 12 13 14 15 16 15 17 19 7 8 12 11 10 9
1 1 1 1 1 1 1 1 -0 0 0 1 4 2 3 6 7 5 5 5 6 7 8 8 9 9 10 11 11 11 13 12 12 16 10 15 12 14 13 14 8 8 9 9 8 9 10

GFSGBSN_con_lsi_093.txt.gz
Lid_Strength_Index
3 3 3 3 3 4 4 3 3 3 3 3 3 2 2 2 2 2 2 2 2 3 3 4 4 4 7 10 10 6 -1 -0 2 4 9 11 12 12 13 13 12 14 12 11 10 10 11
3 3 3 3 3 3 4 3 3 3 3 3 2 2 2 2 2 2 2 2 2 3 3 4 3 4 8 11 6 5 1 2 4 8 9 10 11 10 11 12 12 10 10 9 9 10 9
3 3 3 3 3 3 3 3 3 3 3 2 2 2 2 2 2 2 2 2 2 3 3 3 4 5 8 10 4 4 3 5 6 7 9 9 9 9 10 11 9 9 11 10 9 9 10
3 3 3 3 3 3 3 3 3 3 3 3 2 2 2 2 2 2 2 3 3 3 3 3 3 6 10 5 5 6 6 6 6 6 7 7 8 10 10 9 9 11 11 14 10 10 9
3 3 3 3 3 3 3 3 3 3 3 3 3 2 2 2 2 2 2 3 3 3 2 2 6 7 10 3 4 4 5 6 6 6 6 5 7 9 9 12 13 13 15 14 11 10 10
3 3 3 3 3 3 3 3 3 3 4 4 3 3 3 3 2 3 3 3 3 3 3 4 4 8 7 6 4 3 4 5 6 6 7 8 10 11 13 13 15 14 14 13 13 10 10
3 3 3 3 3 3 3 3 4 4 4 4 4 3 3 3 3 3 3 7 7 8 6 8 7 7 6 4 3 5 6 7 7 8 11 10 13 14 12 11 10 11 12 13 11 9 11
3 3 3 3 3 3 4 4 4 4 4 4 4 3 3 3 3 3 4 8 6 6 8 5 5 6 5 5 6 6 7 10 10 12 11 13 14 10 9 9 10 11 12 12 11 9 11
3 3 3 3 4 4 4 4 4 4 4 4 4 3 3 2 2 5 7 6 4 5 9 7 5 5 5 5 6 6 7 8 10 11 11 12 10 8 9 10 10 11 12 12 12 10 11
3 4 4 4 4 4 4 4 4 4 4 4 4 4 3 3 5 7 6 3 4 5 12 9 7 5 4 4 7 4 6 8 10 11 11 11 8 9 9 10 10 12 9 10 10 12 15
4 4 4 4 4 4 4 4 4 4 4 4 4 4 3 3 5 7 4 4 5 6 20 8 7 3 4 6 6 6 5 7 10 10 11 11 10 10 11 10 9 11 9 10 10 13 14
4 4 4 4 4 5 5 5 4 4 4 4 4 4 3 5 5 5 4 4 6 13 19 10 7 7 8 7 6 6 7 6 7 10 10 10 8 9 9 7 8 7 10 11 12 14 17
4 4 4 4 4 4 5 4 4 4 4 4 4 4 4 3 7 5 5 6 13 18 9 11 10 9 9 9 8 8 9 10 12 14 14 11 10 8 7 9 8 10 13 16 18 17 18
4 4 4 4 4 4 4 4 4 4 4 4 4 4 5 4 3 4 6 9 18 12 11 7 8 9 11 10 10 9 10 12 10 11 13 14 15 9 7 9 11 11 12 17 20 20 18
5 5 5 4 4 4 4 4 4 4 4 5 4 7 7 5 3 5 7 15 14 12 9 9 9 11 11 9 9 10 11 11 10 10 13 14 14 8 8 7 8 11 14 11 16 15 19
5 5 5 5 5 5 4 4 4 4 4 5 5 7 6 3 3 5 10 13 11 8 8 8 11 10 13 12 12 11 11 9 9 8 9 11 15 10 9 8 8 10 9 15 15 20 22
6 6 5 5 5 5 4 3 3 3 4 5 8 8 5 3 4 8 13 12 9 7 7 8 10 11 11 12 12 12 12 9 8 8 8 10 13 13 10 12 13 12 13 13 14 15 20
7 7 7 6 5 5 4 3 3 3 4 5 10 10 5 3 9 10 11 9 8 8 6 7 8 9 11 11 12 12 12 10 7 8 10 10 13 16 13 10 8 11 11 13 17 18 16
7 7 6 6 6 5 4 3 2 2 3 5 9 9 5 5 12 11 9 8 8 8 8 8 9 8 9 11 14 11 10 7 7 9 10 10 14 17 15 13 11 13 11 11 12 13 17
6 6 5 5 4 4 3 3 1 2 2 5 9 10 8 7 8 10 10 10 9 7 8 7 9 8 10 12 10 12 11 8 7 8 6 8 13 14 17 15 13 14 12 11 12 16 16
6 5 4 3 3 3 2 2 1 1 2 4 9 9 9 11 9 9 10 9 10 10 8 8 9 9 11 13 13 13 11 10 8 7 8 10 14 13 12 11 11 12 12 11 13 14 15
5 4 3 2 2 1 1 1 0 1 2 7 7 8 7 8 8 9 9 10 10 9 9 10 10 10 10 12 12 13 12 12 12 9 11 9 14 13 14 11 11 13 11 11 11 11 12
3 3 2 1 1 0 1 2 0 1 2 7 4 3 6 8 9 10 10 9 9 8 8 8 9 10 11 10 9 10 9 9 10 12 12 12 13 14 17 13 13 16 12 11 11 11 12
2 2 1 1 1 0 0 1 0 0 1 4 5 5 8 11 9 10 8 8 9 9 9 9 9 10 8 7 9 10 12 10 10 10 9 12 13 13 17 14 20 12 9 9 11 11 11
2 1 1 0 0 0 -0 0 -0 0 -0 2 3 4 7 10 9 8 8 8 8 8 9 9 8 7 7 9 12 14 14 13 11 10 11 10 12 15 17 17 14 13 11 11 12 13 10
1 1 1 0 0 0 -0 -0 0 0 0 1 2 2 4 9 10 7 8 8 10 10 10 9 7 7 8 11 13 17 18 13 14 13 9 10 11 14 15 19 20 13 10 8 8 16 9
1 1 0 0 0 -0 -1 -0 -0 0 0 2 3 2 4 8 7 6 9 10 8 10 11 10 10 9 9 13 14 15 15 11 16 15 15 14 13 16 16 17 15 10 8 7 16 15 9
1 1 1 0 1 0 0 -0 -0 0 -0 1 4 2 3 6 7 5 5 8 9 9 11 11 11 10 11 14 13 13 14 13 14 12 13 14 15 16 15 17 18 7 8 12 10 9 10
1 1 0 1 0 1 0 0 0 0 -0 -0 4 2 2 5 6 5 5 5 5 6 9 10 11 9 10 11 11 11 13 12 13 16 10 15 12 14 13 14 8 8 9 8 9 10 11

GFSGBSN_con_lsi_096.txt.gz
Lid_Strength_Index
3 3 3 3 3 3 3 3 3 3 3 3 3 3 3 3 2 2 2 2 2 2 3 3 3 3 6 10 10 6 -1 1 3 4 9 12 13 13 14 13 14 15 13 12 11 12 12
3 3 3 3 3 3 3 3 3 3 3 3 3 3 3 3 3 2 2 2 3 3 3 3 3 3 7 12 7 4 2 3 4 7 10 12 12 12 12 13 13 12 12 11 11 12 12
3 3 3 3 3 3 3 3 3 3 3 4 4 4 3 3 3 3 2 2 3 3 3 3 3 4 8 9 5 5 3 5 6 8 10 10 10 11 11 13 11 11 13 11 11 12 12
3 3 3 3 3 3 3 3 3 3 4 4 4 4 4 3 3 3 2 2 3 3 3 3 2 6 11 6 5 6 5 7 7 7 9 9 9 11 12 11 11 13 13 15 12 11 11
3 2 2 3 3 3 3 3 3 4 4 4 4 4 4 4 3 3 2 2 2 2 2 2 5 7 11 4 5 4 5 6 7 8 8 7 10 12 11 13 14 14 16 15 13 11 12
2 2 2 3 3 3 3 3 4 4 4 4 4 4 4 4 4 3 3 3 3 2 3 3 4 9 7 7 4 3 4 4 7 8 9 9 10 13 14 14 17 16 16 14 14 11 11
3 3 3 3 3 3 4 4 4 4 4 4 4 4 4 4 4 4 4 6 6 7 6 9 8 8 6 4 3 5 4 5 6 9 13 12 14 14 12 11 12 12 14 14 12 10 11
3 3 3 3 3 4 4 4 4 4 4 4 4 4 4 4 4 4 5 8 7 6 9 6 6 6 5 5 7 6 5 9 10 13 12 13 14 10 10 10 11 12 13 13 11 10 11
3 3 4 4 4 4 4 4 4 4 4 5 4 4 4 4 4 6 8 6 4 5 9 7 5 6 6 5 7 6 7 9 11 13 12 13 11 9 11 12 12 12 13 12 12 11 11
4 4 4 4 5 5 5 5 5 4 4 4 4 4 4 4 7 8 9 4 4 5 12 9 8 6 5 5 7 4 7 8 9 12 11 12 9 10 11 11 10 13 10 10 11 13 16
4 4 4 5 4 4 5 5 5 5 5 4 4 4 4 4 7 9 7 6 5 6 20 8 8 4 5 7 7 7 6 7 10 11 11 11 11 11 11 10 9 11 9 10 11 14 15
4 4 4 4 4 4 4 5 4 4 4 5 5 5 4 5 7 6 5 5 6 13 20 11 7 8 8 7 8 8 7 6 7 10 11 11 9 10 9 8 8 8 10 12 13 15 18
5 5 5 5 5 5 5 5 5 4 4 5 5 5 5 5 9 6 6 6 13 18 9 11 11 9 9 9 8 8 10 10 12 14 14 11 11 10 8 10 8 10 13 17 18 18 18
5 5 5 5 5 5 5 5 5 4 4 5 5 5 5 6 6 5 6 9 18 12 12 8 9 10 11 10 10 9 10 12 10 12 14 15 15 10 8 9 11 12 13 16 20 20 18
6 6 6 6 5 5 6 5 5 4 4 5 5 8 9 8 5 5 7 15 15 12 9 10 10 12 12 10 10 10 11 12 11 11 13 14 14 8 8 8 8 11 13 11 15 16 19
6 7 7 7 7 6 6 5 5 4 4 5 6 8 9 6 5 6 10 13 11 8 8 8 12 10 13 11 12 11 11 9 10 10 10 12 15 10 9 8 9 11 10 16 15 20 22
7 7 7 7 7 7 6 5 5 4 4 5 9 10 7 4 5 8 13 12 9 7 7 10 11 12 11 11 12 13 11 9 8 9 9 11 12 13 11 12 13 12 13 13 14 16 20
8 7 7 6 6 6 5 5 4 4 4 5 8 12 5 4 9 9 12 9 8 8 7 8 8 9 11 10 12 12 12 10 7 8 11 11 13 15 13 11 9 11 12 13 17 18 18
7 7 6 5 5 4 3 3 3 3 3 4 9 9 5 5 13 12 9 9 8 9 9 9 9 8 9 10 13 11 11 8 8 8 10 10 14 17 15 13 11 13 11 11 13 14 17
6 6 5 4 3 2 2 2 2 2 1 3 7 11 8 6 7 9 10 10 10 7 8 8 9 9 10 11 11 12 11 8 8 8 7 8 13 15 17 15 13 15 12 12 13 17 17
5 4 4 3 1 1 0 1 1 1 1 3 7 9 7 11 9 9 9 9 11 10 7 8 10 10 10 13 12 13 11 10 8 8 9 9 14 14 13 12 12 12 12 12 14 14 16
4 3 3 2 1 -0 -0 -0 0 1 1 4 8 8 6 8 8 9 9 10 11 10 9 10 11 10 9 12 11 13 11 12 12 10 12 9 15 14 15 12 11 13 12 11 12 12 13
3 3 2 1 0 -0 -1 -1 -0 0 1 4 4 4 6 8 9 10 10 10 10 8 8 8 9 10 11 10 9 9 9 10 10 11 12 12 13 14 17 13 13 16 13 12 11 11 11
3 2 1 1 0 -0 -1 -1 -1 -1 0 3 4 5 8 11 9 10 9 8 9 9 10 8 9 10 9 7 9 10 11 10 11 10 10 12 12 14 16 15 20 13 9 10 11 11 11
2 2 1 1 0 -0 -1 -1 -1 -1 -0 2 2 4 7 11 9 9 8 8 8 9 9 9 8 7 7 9 12 14 14 14 12 11 11 10 12 15 17 18 15 13 11 11 12 13 11
2 1 1 1 1 -0 -1 -1 -1 -0 -0 1 2 2 4 9 10 7 9 8 10 10 10 9 7 6 8 11 12 16 17 14 14 13 9 10 10 13 15 19 20 13 10 8 9 16 9
2 1 1 1 1 0 -0 -1 -1 -1 -0 1 3 2 4 8 6 6 8 9 7 9 11 10 9 9 9 13 15 17 16 12 16 15 15 14 14 16 16 17 15 10 8 7 16 15 10
3 2 1 1 1 0 0 -1 -0 -0 -1 1 2 2 4 7 6 5 5 8 8 9 12 11 10 10 11 14 13 13 14 13 14 12 13 15 15 16 15 17 18 8 9 13 10 9 9
3 3 2 2 1 0 0 -0 -0 -0 -0 -0 3 2 2 5 6 5 4 4 6 6 9 10 11 10 10 13 12 11 14 12 13 17 10 15 12 14 13 15 10 8 8 8 8 9 11

GFSGBSN_con_lsi_102.txt.gz
Lid_Strength_Index
2 2 2 2 2 2 3 3 3 3 3 4 4 4 4 4 4 4 4 4 4 3 3 3 3 3 3 5 5 1 -1 -1 1 3 6 7 9 9 10 9 8 9 8 8 7 7 6
2 2 2 2 2 3 3 3 3 3 3 4 4 4 4 4 4 4 4 4 4 4 4 3 3 3 4 7 2 2 -0 1 3 4 6 6 8 8 9 9 9 8 8 7 6 6 6
2 2 2 2 3 3 3 3 3 3 4 4 4 4 4 4 4 4 4 4 4 4 4 3 3 4 6 5 1 -0 0 1 2 4 6 6 7 8 7 8 7 7 8 7 7 6 7
2 3 3 3 3 3 3 3 4 4 4 4 4 4 4 4 4 4 4 4 4 4 3 3 3 5 6 2 1 2 1 2 2 4 5 5 6 7 7 7 7 8 7 9 7 7 7
2 2 2 3 3 3 4 4 4 4 4 4 4 4 5 4 4 4 4 4 4 4 3 4 5 5 6 2 4 3 2 3 3 4 5 5 6 8 7 9 9 8 10 9 8 6 7
3 2 3 3 3 4 4 4 4 4 4 4 4 4 4 4 4 4 5 5 4 4 4 4 4 7 4 5 3 3 2 2 4 5 6 8 8 10 9 9 12 11 10 9 9 7 7
4 4 4 4 4 4 4 4 4 5 4 4 4 4 4 4 4 5 5 4 6 7 6 6 5 6 5 3 1 2 2 3 4 5 9 7 10 12 10 8 7 9 9 10 8 6 7
4 4 4 4 4 4 4 4 4 4 4 5 4 4 4 4 4 5 5 6 5 5 8 4 5 4 3 3 5 3 1 5 5 8 7 8 10 8 8 8 8 8 9 9 7 6 7
4 4 4 4 5 5 5 5 5 5 5 5 5 5 5 5 5 5 5 6 4 4 7 6 5 5 4 3 5 5 3 4 6 8 8 9 9 7 8 8 9 9 9 8 9 7 6
5 5 5 5 5 5 5 5 5 5 5 5 5 5 5 5 6 5 7 5 3 4 10 9 7 5 4 3 6 2 2 4 6 8 7 8 7 9 9 10 8 10 8 7 8 9 11
6 6 6 6 6 6 5 6 6 6 5 5 5 5 4 5 6 7 6 4 4 4 16 8 7 2 3 5 5 4 2 4 7 8 7 9 9 9 10 9 7 8 7 7 8 8 9
7 6 7 6 6 6 7 7 7 6 6 6 5 4 3 4 5 4 4 4 6 11 16 9 6 7 7 5 5 4 4 4 4 6 7 7 6 7 8 7 7 6 7 8 8 9 13
7 7 7 7 7 7 7 7 7 7 6 6 5 4 3 3 6 3 3 6 11 14 9 9 9 7 7 8 7 6 7 7 8 10 10 8 8 7 6 8 6 7 9 13 13 13 13
7 7 7 7 7 7 7 7 7 6 6 5 4 4 2 2 2 2 5 8 14 12 11 7 7 7 9 7 7 7 8 9 7 8 9 11 12 8 6 7 8 8 9 12 16 15 13
8 7 7 8 7 7 7 7 6 6 5 5 4 2 2 2 1 3 7 12 12 10 8 8 8 10 9 8 8 8 8 8 7 6 10 11 11 7 6 6 6 9 10 7 11 11 13
8 7 7 7 7 7 6 6 5 5 4 4 5 4 2 0 1 5 9 13 10 6 7 7 11 9 11 9 9 9 9 7 7 6 5 8 11 7 7 6 6 8 7 12 11 17 19
8 7 7 7 7 6 6 5 4 4 3 4 3 5 1 -1 1 6 11 11 9 6 6 8 9 9 10 10 9 10 9 8 6 6 6 7 9 10 8 9 9 9 10 9 10 12 16
7 7 7 7 6 6 5 4 3 3 3 3 4 8 1 0 8 7 10 8 7 6 5 6 7 8 10 9 10 10 11 9 7 6 8 6 9 12 10 7 7 7 9 9 14 14 12
7 6 6 6 5 4 4 3 3 2 2 3 6 5 -0 2 11 9 7 8 7 7 7 7 8 7 7 10 12 11 10 8 7 8 8 7 10 14 14 10 8 9 8 8 9 10 14
7 6 5 5 4 4 3 3 2 1 1 2 5 9 4 5 5 9 10 10 10 6 7 6 8 8 9 10 9 11 11 8 7 8 7 6 9 11 15 12 10 11 10 9 10 14 13
7 6 5 4 3 2 2 2 1 1 1 1 5 7 5 8 7 8 9 8 10 11 7 7 9 9 11 12 10 11 9 9 7 7 7 8 12 11 12 10 10 10 10 9 10 10 12
6 5 4 3 2 2 2 1 1 1 1 2 7 7 6 7 6 7 8 9 11 10 10 10 10 9 9 12 10 11 9 9 9 7 8 7 12 10 12 10 9 11 9 9 9 9 10
6 5 4 2 2 2 1 1 1 1 0 2 2 2 6 7 7 8 9 9 10 9 8 8 8 9 10 9 8 8 6 7 7 8 9 9 10 12 13 10 10 12 10 9 9 8 8
5 4 3 2 2 1 1 1 1 0 -0 1 1 3 7 10 8 8 7 7 8 9 11 8 7 8 7 5 5 6 6 7 7 7 7 10 10 10 13 12 17 9 7 7 8 7 7
5 4 3 3 3 2 1 1 1 0 -0 1 2 4 7 10 7 7 7 7 8 8 9 9 7 6 4 7 10 11 11 10 9 8 8 7 9 13 15 14 11 9 8 9 9 9 7
4 3 3 2 2 2 1 0 0 0 -0 0 1 2 4 8 8 7 8 7 8 10 9 8 5 5 6 8 10 14 14 11 13 12 8 8 8 11 12 17 16 11 8 6 6 12 7
4 3 2 2 1 2 1 0 0 -0 -0 -0 1 0 3 7 5 5 8 9 6 7 9 9 8 8 6 9 11 11 12 9 14 14 13 12 11 13 14 15 11 7 7 6 13 13 6
2 2 1 1 1 1 0 0 0 -0 -0 0 1 -0 3 6 5 3 4 7 7 6 8 7 8 7 7 10 9 9 9 10 11 11 12 12 13 13 13 15 16 6 7 10 8 5 5
2 1 1 0 -0 -0 -1 -0 -0 -0 -0 -0 2 -0 0 4 5 1 2 2 3 3 5 5 7 7 6 8 7 7 9 9 12 14 8 13 10 12 11 11 7 6 6 5 4 5 5

GFSGBSN_con_lsi_105.txt.gz
Lid_Strength_Index
2 2 2 2 2 2 3 3 3 3 3 3 4 4 4 4 4 4 4 4 4 4 4 4 4 3 4 5 5 0 -1 -1 -1 1 4 5 6 7 9 8 7 8 7 6 6 6 6
2 2 2 2 2 3 3 3 3 3 4 4 4 4 4 4 4 4 4 4 4 4 4 4 4 4 5 7 1 1 0 0 2 2 4 4 6 6 7 8 8 7 7 7 6 6 6
2 2 2 2 2 3 3 3 3 3 4 4 4 4 4 4 4 4 4 4 4 4 4 4 3 4 6 5 2 1 0 1 1 2 4 4 4 6 7 8 7 7 8 7 7 6 6
2 2 2 3 3 3 3 3 4 3 4 4 4 4 4 4 4 4 4 4 4 4 4 3 3 5 7 2 1 1 0 1 1 2 3 3 4 6 7 6 7 8 8 9 6 6 6
3 3 3 3 3 4 4 4 4 5 5 4 4 4 4 4 4 4 4 4 4 4 4 4 4 6 6 2 4 2 0 2 2 3 3 4 5 7 7 9 10 9 11 9 7 5 6
3 4 4 4 4 4 4 4 4 4 5 5 4 4 4 4 4 4 5 5 4 4 4 4 4 7 5 5 3 2 1 1 3 4 5 5 7 8 9 10 13 11 10 8 8 6 6
4 4 4 4 4 4 4 4 4 4 4 5 4 5 5 5 4 5 5 5 5 7 6 6 5 5 5 3 2 3 2 2 3 4 7 6 9 10 10 9 9 8 8 9 7 6 7
4 4 4 4 5 5 5 5 5 5 5 5 5 5 5 5 5 5 5 6 5 5 8 5 5 4 3 3 5 4 2 4 5 7 6 7 9 7 8 8 8 8 9 8 7 7 6
5 5 5 6 6 6 5 5 5 5 5 5 5 5 5 5 5 5 4 5 3 3 7 7 5 6 4 4 5 4 4 4 6 7 7 8 7 6 7 8 9 9 9 8 8 7 6
7 6 6 6 6 6 6 6 6 6 6 6 5 5 5 5 6 4 6 3 2 2 9 9 7 6 4 4 6 2 2 4 5 7 6 7 5 7 8 8 8 10 7 7 8 8 11
7 7 7 7 6 6 6 7 7 6 6 6 6 5 5 4 4 5 4 2 2 3 15 7 6 3 4 6 5 5 2 4 7 7 6 8 7 7 8 8 7 9 6 8 8 9 9
7 7 7 7 7 7 7 7 7 6 6 6 6 5 5 4 3 3 1 2 3 10 15 9 6 7 7 6 5 4 5 3 4 6 6 6 5 6 7 7 7 6 7 7 7 9 12
7 7 7 7 7 7 7 7 6 6 6 6 5 5 4 3 5 2 1 3 11 14 7 9 8 7 7 8 7 6 7 7 8 10 10 7 7 6 6 8 6 7 8 12 14 13 13
7 7 7 7 7 7 7 7 6 6 6 6 5 5 4 2 1 -1 1 7 13 11 10 7 9 8 9 7 7 7 8 9 6 7 9 10 11 7 6 7 8 8 8 12 17 15 13
7 7 7 7 7 7 6 6 6 6 6 5 5 3 3 1 -1 -0 5 12 11 9 9 8 8 10 13 8 7 8 8 8 7 6 10 10 10 6 6 6 6 8 10 7 11 11 15
7 7 6 7 7 6 6 6 6 5 4 4 4 4 3 -1 -1 2 9 11 8 7 8 7 14 10 14 12 11 9 9 7 7 6 5 8 11 7 6 5 6 7 6 12 11 18 18
7 7 6 6 6 6 6 5 5 4 4 4 4 5 1 -1 -0 6 11 8 7 6 7 7 10 11 10 11 12 12 10 7 6 6 5 7 9 10 7 8 9 8 10 10 10 11 16
7 6 6 6 5 5 5 5 4 4 3 3 4 7 1 -0 8 7 9 7 7 6 6 7 7 8 9 10 12 13 13 10 6 6 8 6 9 15 10 6 6 7 8 9 14 15 12
6 6 6 5 5 4 4 3 3 2 2 2 5 5 0 1 11 9 7 7 7 8 7 7 7 7 7 9 11 12 11 7 7 7 9 7 9 15 15 10 7 9 9 9 8 10 13
6 6 5 5 4 4 3 2 2 1 1 2 4 8 5 4 5 8 9 9 9 7 8 8 9 8 9 10 7 10 11 9 7 7 7 8 10 11 15 13 10 11 9 8 9 15 13
7 6 5 5 4 3 2 1 1 1 1 2 4 6 5 8 8 8 7 9 10 11 7 7 9 9 9 12 10 9 9 10 8 8 8 9 14 10 10 11 12 11 9 9 10 10 14
6 6 5 4 4 2 2 1 1 1 1 2 6 7 5 7 6 7 8 9 10 9 10 10 11 10 10 12 11 12 9 10 10 8 9 9 14 11 12 10 10 11 10 10 9 9 9
6 5 5 4 3 3 2 1 1 0 0 3 3 2 6 7 7 8 8 8 9 8 8 8 9 9 11 10 8 8 8 7 7 9 11 11 12 13 16 10 10 12 10 9 9 7 8
5 5 4 3 2 1 1 1 0 -0 -0 2 3 3 7 10 8 8 7 7 8 8 9 7 8 10 7 5 5 6 7 7 7 7 7 10 11 12 15 12 17 9 7 7 8 7 6
5 4 3 2 2 1 1 0 0 -1 -1 1 2 3 6 10 7 7 7 7 7 7 9 9 8 7 5 6 10 12 12 12 10 7 7 6 9 13 14 14 10 9 8 8 8 8 6
4 3 2 1 1 1 -0 -0 -0 -1 -1 -1 1 1 4 8 7 5 7 7 10 8 9 8 6 6 5 8 10 15 15 13 12 10 7 7 8 11 13 16 16 10 7 6 6 12 6
3 2 2 1 1 0 -0 -1 -1 -1 -1 -1 1 -0 3 8 4 5 8 8 6 7 8 8 8 8 6 11 12 12 14 11 13 12 12 11 10 13 13 14 10 7 6 5 13 13 6
2 2 2 1 0 -0 -1 -1 -1 -1 -1 -0 1 0 3 6 4 3 4 6 6 7 10 7 8 8 9 11 10 9 10 9 11 9 10 11 12 13 13 14 16 6 6 10 8 6 5
2 2 1 1 0 -0 -1 -1 -1 -1 -1 -1 2 -1 1 4 5 1 1 1 2 3 6 5 7 7 7 9 8 8 9 7 10 14 7 12 9 11 10 11 7 5 6 5 5 6 5

GFSGBSN_con_lsi_108.txt.gz
Lid_Strength_Index
2 2 2 2 2 2 3 3 3 3 3 3 4 4 4 3 4 4 4 4 4 4 4 4 4 4 5 6 6 2 -2 -1 1 3 4 5 6 6 8 8 8 9 8 6 5 5 6
2 2 2 2 3 3 3 3 3 4 4 4 4 4 4 4 4 4 4 4 4 4 4 4 4 4 6 9 2 2 1 1 2 3 4 5 5 5 7 7 8 7 8 8 6 6 6
2 3 3 3 3 3 4 4 4 4 4 4 4 4 4 4 4 4 4 4 4 4 4 4 4 4 7 7 2 2 2 2 2 3 4 4 3 5 6 7 6 7 9 8 8 7 7
3 3 3 3 3 4 4 4 4 4 4 4 4 4 4 4 4 4 4 4 4 4 4 4 4 5 8 2 2 2 2 3 2 3 3 3 3 5 6 6 7 8 9 11 9 7 7
3 3 4 4 4 4 4 4 4 4 4 4 4 4 4 4 4 5 5 5 5 4 4 4 5 6 8 2 4 2 2 3 3 3 3 3 4 6 7 9 10 9 12 11 10 7 7
4 4 4 4 4 4 5 5 4 4 5 4 4 5 5 4 4 4 5 5 4 4 4 4 5 8 6 6 3 3 2 2 4 4 5 6 7 8 9 10 14 11 11 11 11 8 7
5 5 5 5 5 5 5 5 5 5 5 5 5 5 5 5 5 5 5 5 6 7 6 6 6 7 5 3 2 4 3 3 4 5 8 7 9 11 10 9 9 9 9 10 9 7 7
6 6 6 6 6 6 6 6 6 6 6 6 6 6 5 5 5 5 5 7 7 5 9 6 5 5 3 3 6 5 3 6 6 8 7 8 11 8 7 8 9 10 10 9 8 7 7
7 6 6 6 6 6 6 6 6 6 6 6 6 6 6 5 5 6 5 4 4 4 9 8 6 6 5 4 6 5 4 5 7 8 8 9 8 6 7 8 9 10 11 9 9 7 7
7 7 7 7 7 7 7 7 6 6 6 6 6 6 6 5 7 5 7 4 3 2 11 11 8 6 5 4 7 3 3 5 6 8 7 8 6 7 7 8 8 11 8 8 8 9 12
7 7 7 7 7 7 7 7 6 6 6 6 6 5 5 5 7 7 5 3 3 4 17 8 5 2 4 6 5 5 2 4 8 7 7 9 8 8 8 8 7 8 7 8 8 9 10
7 7 7 7 7 7 7 7 6 6 6 6 5 5 5 6 5 4 2 2 3 11 16 9 6 6 6 5 6 4 5 4 4 7 6 7 5 6 7 6 6 6 7 8 8 9 13
7 7 7 7 7 7 7 6 6 6 6 6 5 5 5 4 7 3 3 3 11 15 8 9 8 7 8 8 7 6 7 8 10 12 11 8 8 6 5 8 6 7 9 13 14 14 14
7 7 6 6 6 6 6 6 6 6 6 5 5 5 4 3 2 2 3 7 15 10 9 6 8 9 10 9 9 7 8 10 8 8 10 12 12 8 6 7 9 8 9 12 17 15 13
7 7 7 6 6 6 6 6 6 6 5 5 5 4 4 2 1 1 6 14 12 9 7 8 8 10 10 10 11 11 10 9 8 8 11 11 11 6 6 6 7 9 10 8 12 12 16
7 7 7 6 6 6 5 5 5 5 4 4 5 4 3 -0 -1 2 9 12 9 6 6 7 10 9 11 12 13 13 12 10 8 7 6 8 12 8 7 6 6 8 7 12 11 19 20
7 6 6 6 6 5 5 5 4 3 3 3 3 5 1 -1 -0 5 11 9 7 5 6 9 10 9 9 11 12 14 13 10 7 7 6 7 10 10 8 9 9 9 10 10 11 12 17
7 6 6 6 5 5 4 4 3 3 3 2 4 8 1 -0 8 7 9 7 7 7 6 7 7 8 9 10 11 13 13 11 7 8 12 7 10 16 12 7 6 7 9 10 15 16 13
7 7 6 5 5 4 4 3 2 2 2 3 7 5 1 2 12 11 8 9 7 8 9 9 9 7 8 9 12 10 11 8 8 9 11 8 10 16 14 10 8 9 8 8 10 11 16
7 6 5 5 4 4 3 3 2 1 1 2 6 9 5 5 5 9 10 10 10 6 8 7 8 7 9 10 9 10 11 9 8 9 7 8 10 13 17 13 11 11 9 9 10 15 15
6 6 6 5 4 3 2 2 1 1 1 2 5 8 6 10 8 7 7 8 10 11 7 7 9 9 10 12 11 11 11 10 9 8 8 9 12 12 12 11 12 12 10 10 11 11 14
6 6 5 4 4 3 2 1 1 1 1 2 7 8 6 8 7 8 8 9 10 9 9 10 11 10 10 13 12 13 11 11 11 9 10 9 13 12 13 12 11 12 12 10 10 10 10
6 5 5 4 3 3 2 1 0 0 0 3 3 3 6 8 8 8 8 9 9 8 8 7 9 10 10 9 8 8 7 8 9 10 10 10 12 13 16 12 13 16 13 12 10 8 8
6 5 4 3 3 2 2 1 -0 -0 -0 1 2 5 8 11 8 8 8 8 7 8 9 7 7 10 8 5 6 7 7 8 8 9 8 11 12 13 15 13 18 10 9 9 8 8 7
6 4 3 3 2 2 1 0 -0 -1 -1 0 1 4 7 10 8 7 8 7 7 7 8 8 7 7 7 7 11 13 13 12 11 9 10 9 11 15 16 17 13 10 8 8 9 9 6
5 4 3 2 2 1 1 -0 -1 -1 -1 -0 1 1 4 9 8 6 8 7 9 9 9 8 6 6 7 9 11 15 17 14 15 12 9 10 9 13 14 18 18 11 7 5 6 12 6
4 3 2 2 1 1 0 -0 -1 -1 -1 -1 1 0 4 8 5 6 8 8 6 7 10 8 7 8 6 11 13 14 14 11 14 14 12 11 13 14 14 15 13 8 6 5 12 13 6
3 2 2 2 1 0 -0 -1 -1 -1 -1 -1 1 -0 3 6 5 4 4 6 6 7 11 8 9 8 10 13 12 11 13 12 11 9 11 12 13 14 13 14 17 6 6 10 9 6 6
2 2 2 1 0 0 -0 -1 -1 -1 -1 -1 2 -1 1 5 5 2 2 2 2 3 6 6 8 8 8 11 9 9 11 10 11 14 7 13 9 12 11 12 7 6 7 5 5 6 5

GFSGBSN_con_lsi_111.txt.gz
Lid_Strength_Index
2 2 2 3 3 3 3 3 3 4 4 4 4 4 4 4 4 4 4 4 4 4 4 4 4 4 6 9 9 4 -1 -1 0 2 5 7 9 9 11 9 9 10 10 9 8 8 8
3 3 3 3 3 3 3 3 4 4 4 4 4 4 4 4 4 4 4 5 5 4 4 4 4 4 7 12 5 3 3 2 3 4 6 6 8 7 9 9 10 9 9 9 9 10 9
3 3 3 3 4 4 3 4 4 4 4 4 4 4 4 4 4 5 5 5 4 4 4 4 4 6 8 10 4 3 4 2 3 4 6 5 6 8 8 10 8 8 10 9 9 10 10
4 4 3 4 4 4 5 5 5 5 4 4 4 4 5 5 5 5 5 5 5 4 4 4 4 6 11 5 4 5 4 4 2 3 4 5 5 7 8 8 8 11 11 13 11 9 9
4 4 4 4 4 5 5 5 5 5 5 5 5 5 5 5 5 4 5 5 4 4 4 4 5 7 10 3 6 4 4 5 4 4 4 4 6 8 8 11 13 12 15 14 12 10 10
6 5 5 5 6 6 6 6 6 6 6 6 6 6 6 6 5 5 5 5 5 4 5 4 5 9 7 9 4 3 3 3 5 5 6 7 8 11 11 14 17 15 14 12 12 11 9
6 6 6 6 6 6 6 6 6 6 6 7 6 6 6 6 6 6 7 8 9 9 7 9 9 9 8 5 3 4 3 4 5 6 10 9 12 14 12 10 10 11 12 12 11 9 10
7 7 7 7 7 7 6 7 6 6 6 6 6 6 6 6 5 6 7 10 8 7 12 7 7 6 5 4 7 5 3 6 7 9 9 11 13 11 9 9 10 11 13 12 10 9 10
7 7 7 7 7 7 7 7 6 6 6 6 6 6 5 5 5 7 8 7 4 4 11 9 7 7 6 5 7 6 5 6 7 9 10 12 11 8 9 10 11 11 13 12 12 9 9
7 7 7 7 7 7 6 6 6 6 6 6 6 6 5 5 8 8 9 6 4 5 14 13 10 7 6 7 9 4 3 5 7 9 9 10 8 9 9 10 9 12 10 10 11 11 14
7 7 6 6 6 6 6 6 6 6 6 6 6 5 5 5 8 9 7 4 4 6 20 10 8 4 5 7 6 6 3 5 9 9 8 10 9 9 10 9 8 10 8 10 10 12 13
7 7 7 6 6 6 6 6 6 6 6 5 5 5 5 6 6 5 4 4 5 12 19 11 7 8 8 7 7 6 6 4 5 8 8 8 6 7 8 7 7 7 9 10 10 13 17
7 7 7 6 6 6 6 5 5 5 5 5 5 5 5 5 8 5 4 6 13 17 8 10 9 8 9 10 9 9 8 9 11 13 13 10 9 7 6 9 7 9 12 16 16 17 17
7 6 6 6 6 6 6 5 5 5 5 5 4 4 4 4 3 3 5 9 17 11 11 7 8 9 10 9 10 10 11 12 8 9 12 14 15 9 6 8 10 10 11 16 20 18 16
7 7 6 6 6 6 6 5 5 5 5 5 4 4 4 3 1 2 6 14 14 11 8 9 9 11 11 10 11 11 12 12 9 8 13 13 13 8 7 6 8 11 12 10 14 15 18
7 7 7 6 6 5 5 5 5 4 4 4 5 5 4 2 1 3 9 13 12 8 7 8 13 11 14 12 12 13 13 10 11 9 7 10 14 9 8 7 7 10 9 13 13 20 22
8 7 7 6 5 5 5 4 4 4 3 3 5 7 3 0 1 7 13 11 9 6 7 11 12 12 12 12 11 13 13 10 9 10 9 10 12 12 10 10 11 11 11 11 13 15 20
8 7 6 6 5 5 4 4 4 3 3 3 6 10 2 1 9 9 11 10 8 8 6 8 9 10 11 11 11 13 13 11 8 9 12 10 12 15 13 9 7 9 10 11 17 18 16
7 7 5 5 5 5 4 4 3 2 2 4 8 7 2 3 12 11 9 9 8 9 9 10 10 9 9 11 13 12 11 8 8 9 12 11 14 18 16 12 10 11 9 10 12 14 17
6 6 5 5 5 5 5 4 2 2 1 3 7 10 6 5 6 9 11 10 10 7 8 8 9 9 11 11 10 12 11 9 8 9 8 9 13 15 18 15 12 12 10 10 12 17 17
7 6 6 6 5 4 4 3 2 2 1 2 5 8 7 11 10 9 9 9 10 12 8 8 9 10 11 14 12 12 10 10 9 8 9 11 15 13 12 11 11 12 12 11 13 13 16
7 7 7 6 5 4 3 2 1 1 1 3 7 8 6 8 8 9 9 10 11 10 10 10 11 10 10 13 12 13 11 11 12 10 11 10 15 13 15 12 12 13 12 12 11 12 13
7 7 6 5 4 4 2 1 1 0 1 4 3 3 6 8 9 10 10 10 10 9 8 8 9 10 11 10 9 8 8 8 9 11 12 12 13 15 18 13 13 16 13 12 12 11 12
7 5 5 5 4 2 2 1 1 -0 -0 2 3 3 8 10 9 9 9 8 9 9 10 8 8 10 8 6 6 7 8 8 9 9 9 12 13 14 17 15 21 13 9 9 10 10 10
6 5 5 4 3 2 2 1 0 -0 -1 1 1 3 7 11 9 9 8 9 8 7 9 9 7 7 6 8 11 13 13 12 11 9 10 10 13 16 18 18 15 12 10 11 12 12 9
5 5 4 3 2 2 1 0 -0 -1 -1 0 1 1 4 10 9 7 9 8 10 10 9 8 6 5 7 10 12 16 18 15 16 13 9 10 10 14 16 19 20 13 8 7 7 15 8
5 5 3 2 2 1 1 0 -0 -1 -1 0 1 0 3 8 7 6 9 9 7 8 10 9 8 8 7 11 14 16 16 12 16 16 15 14 14 16 16 18 15 9 7 6 15 16 8
5 4 3 2 1 1 0 -0 -1 -1 -1 -0 1 0 3 7 6 6 5 7 7 7 11 8 9 9 10 13 14 14 14 13 13 12 14 15 16 16 15 17 19 7 8 13 10 7 7
4 3 2 1 1 1 -0 -1 -1 -2 -1 -1 3 -0 0 5 6 4 4 3 4 4 6 7 8 9 9 11 11 12 14 12 13 16 9 15 12 14 14 15 9 7 8 7 6 7 7

GFSGBSN_con_lsi_114.txt.gz
Lid_Strength_Index
3 3 3 3 3 3 3 4 4 4 4 4 4 4 4 4 4 4 4 4 4 4 5 5 4 4 6 11 10 6 1 -0 1 3 4 6 9 11 13 12 11 13 11 10 10 9 9
3 3 3 3 3 4 4 4 4 4 4 4 4 5 4 5 4 5 5 4 5 4 4 4 4 4 8 14 7 6 5 4 2 4 6 7 9 9 12 11 12 11 10 10 10 11 10
4 4 4 4 4 5 5 5 5 5 5 5 5 5 4 4 4 5 5 5 5 4 4 4 4 5 9 12 6 6 6 6 3 3 6 6 6 9 10 12 9 9 12 11 11 11 11
5 5 5 5 5 6 6 6 6 6 6 6 6 6 6 6 6 5 5 5 5 5 5 4 4 6 10 6 6 6 6 6 5 3 4 5 5 8 11 10 10 12 12 14 11 11 10
5 6 6 6 6 6 6 6 6 6 6 6 6 6 6 6 6 6 6 5 5 5 5 5 6 8 12 5 6 5 5 6 5 4 5 4 7 10 10 13 14 15 16 16 14 11 10
6 6 6 6 6 6 6 7 6 7 7 6 6 6 6 6 6 6 6 6 6 6 6 5 6 9 8 9 6 4 4 5 5 5 6 7 9 12 12 15 17 16 16 15 14 11 11
6 6 6 6 6 6 6 6 6 6 6 6 6 6 5 5 5 5 7 9 12 11 8 9 9 9 8 6 5 6 3 5 5 6 10 9 12 14 12 12 12 13 14 15 13 10 11
6 6 6 6 7 6 6 6 6 6 6 6 6 5 5 5 5 5 7 11 10 9 11 7 7 7 6 6 9 7 4 7 7 10 8 11 13 11 10 11 12 13 14 15 12 10 11
6 6 6 7 6 6 6 6 6 5 5 5 5 5 5 5 5 7 9 9 6 7 12 10 7 7 7 6 9 8 5 6 8 10 9 11 11 9 11 12 12 13 14 14 14 11 11
7 6 7 6 6 6 6 6 5 5 5 5 5 5 5 5 9 9 10 8 6 5 14 13 10 8 6 6 8 5 4 6 7 10 9 10 8 10 11 12 11 14 11 11 12 13 16
6 6 6 6 6 6 6 5 5 5 4 5 5 5 5 5 9 9 8 5 4 6 19 10 8 4 5 8 7 6 4 6 9 9 9 11 10 10 12 12 10 13 9 10 11 13 15
7 7 6 6 5 5 5 5 5 5 5 5 5 5 5 7 8 6 4 4 6 13 19 11 7 9 9 8 7 6 6 5 6 8 8 9 7 8 9 8 8 8 9 10 11 14 17
7 7 7 6 5 5 5 5 5 5 5 5 5 4 4 4 8 6 5 6 14 17 8 10 9 8 9 10 9 9 10 11 12 14 14 10 10 7 7 9 8 9 11 16 18 18 18
8 8 7 6 6 5 5 5 5 5 5 5 5 4 4 4 4 3 5 10 17 11 11 7 8 9 11 9 11 10 11 13 9 12 13 15 16 10 7 9 10 10 11 17 19 19 17
8 8 7 7 6 5 5 5 5 5 5 5 4 5 6 4 3 4 7 14 14 11 9 10 9 12 11 10 10 11 12 12 11 10 16 14 14 8 7 7 8 10 12 11 14 15 17
8 8 7 7 6 6 5 5 5 5 5 5 6 7 7 2 0 5 10 13 12 8 8 9 14 11 14 12 12 12 13 10 11 9 9 12 15 9 8 7 7 9 9 14 14 21 21
8 8 7 6 6 5 5 5 5 5 5 4 8 9 5 2 2 7 13 12 9 7 7 11 12 13 12 13 12 13 12 10 9 10 9 11 13 13 9 11 12 10 11 12 13 15 20
8 7 7 7 5 5 5 5 5 4 4 5 8 11 5 3 9 9 12 10 8 9 7 9 9 11 12 12 13 13 13 11 8 9 12 10 13 16 14 9 8 10 12 12 15 18 16
7 7 7 6 5 5 5 4 4 3 3 5 9 7 3 2 13 11 9 9 8 9 9 10 11 9 9 12 14 12 11 8 8 9 11 11 14 18 17 13 10 12 11 11 12 14 17
7 7 7 6 5 5 5 4 3 2 2 4 8 11 7 6 7 9 11 11 11 7 8 8 9 9 11 12 11 12 12 9 8 8 8 9 13 15 18 15 13 13 11 10 12 17 17
7 7 7 6 5 5 4 4 2 2 1 4 7 9 7 11 10 9 9 10 11 11 8 8 10 10 11 13 13 13 11 11 9 8 9 11 15 13 12 11 11 12 13 12 13 13 15
7 7 7 6 5 5 4 3 2 1 1 6 9 9 6 8 7 9 9 10 11 11 10 11 12 10 10 13 12 14 12 11 12 10 11 10 15 13 15 11 12 13 12 12 12 12 13
7 7 6 5 5 5 4 2 1 0 1 5 4 5 6 8 9 10 10 10 10 9 8 8 9 10 11 10 8 8 8 9 9 11 12 12 14 15 18 13 13 16 13 13 12 11 12
7 6 6 5 5 4 3 2 1 0 0 4 4 4 7 11 10 10 9 9 9 9 10 8 8 10 8 6 7 7 8 9 9 9 9 12 13 14 17 15 21 13 9 10 12 11 10
6 6 5 5 4 3 2 1 1 -0 -1 4 4 4 6 11 9 10 9 9 9 8 9 9 8 7 6 8 11 14 13 13 11 10 10 10 12 16 18 18 15 12 10 11 12 13 9
6 5 5 4 4 3 2 1 0 -1 -1 2 4 2 4 9 10 9 9 9 10 10 9 8 6 6 7 10 12 16 18 15 15 13 10 10 11 14 16 19 21 13 9 7 8 15 8
5 5 5 4 3 2 2 1 -0 -1 -1 -0 2 2 4 9 7 7 10 9 7 9 11 9 9 9 8 12 14 16 16 12 17 16 15 14 14 16 17 18 15 9 8 7 15 15 8
5 5 4 4 3 2 1 0 -1 -1 -1 -0 2 1 4 7 7 6 6 8 8 9 11 9 10 11 12 14 14 14 15 13 14 13 14 15 16 16 16 17 19 8 8 12 10 9 9
5 5 4 3 2 1 0 -0 -1 -1 -1 -1 3 4 3 5 7 5 4 4 5 6 8 7 9 9 10 12 12 13 14 13 13 17 10 15 12 15 14 15 9 7 8 7 8 9 9

GFSGBSN_con_lsi_117.txt.gz
Lid_Strength_Index
3 3 3 3 4 4 4 5 5 5 5 5 5 5 5 5 5 4 5 5 5 5 5 5 5 4 6 11 11 7 3 4 2 4 6 8 10 11 14 13 13 15 13 11 11 11 11
4 4 4 5 5 5 6 6 6 6 6 5 6 6 6 6 6 5 5 5 5 5 5 5 5 4 8 14 8 7 7 6 3 5 6 8 8 10 12 12 13 12 11 11 11 11 12
5 5 5 5 6 6 6 6 6 6 6 6 6 6 6 6 6 6 5 5 5 5 6 5 5 7 10 12 7 7 7 9 8 5 6 5 7 8 10 13 11 11 13 12 12 11 12
5 5 5 5 5 6 6 6 6 6 6 6 6 6 6 6 6 6 5 5 5 5 5 5 5 8 12 7 6 7 7 8 7 7 6 5 6 9 12 11 11 14 13 15 13 12 11
6 6 5 6 6 6 6 6 6 6 6 6 6 6 6 6 6 6 5 5 5 5 5 5 8 8 13 6 7 6 6 8 7 7 5 4 8 10 11 13 15 15 18 17 15 12 12
5 5 6 6 6 6 6 6 6 6 6 6 6 6 6 5 5 5 5 5 5 6 5 5 6 10 9 10 7 5 5 6 7 7 7 7 10 12 13 14 18 17 18 16 16 13 13
6 6 6 6 6 6 6 6 6 6 6 6 6 5 5 5 5 5 7 8 13 12 8 10 9 9 8 6 5 6 5 6 7 7 10 9 12 15 13 13 13 14 15 16 15 12 12
6 6 6 6 6 7 6 6 6 6 5 5 5 5 5 5 5 5 7 11 11 10 14 9 9 8 7 6 9 7 5 8 9 11 9 11 13 11 11 12 13 13 15 16 14 12 13
6 7 7 6 6 6 6 6 5 5 5 5 5 5 5 5 5 8 11 11 8 9 14 12 9 9 7 6 8 8 6 8 9 10 11 12 11 9 11 12 13 14 15 16 15 11 12
7 7 7 7 6 6 6 6 6 6 6 5 5 5 5 5 9 11 11 9 8 7 14 12 9 7 5 5 8 4 4 7 9 11 10 11 8 10 11 12 12 15 12 13 13 13 17
7 7 8 7 7 6 6 6 6 6 5 5 5 5 5 6 9 10 9 7 5 7 19 9 7 3 4 7 7 6 4 6 10 10 9 12 10 10 12 12 11 13 11 12 12 14 16
8 7 8 8 7 7 6 6 6 5 5 5 5 5 5 8 8 6 4 6 6 14 18 10 8 8 9 8 8 6 6 5 6 9 9 10 7 8 9 9 10 10 11 12 13 15 18
8 8 8 8 8 7 6 6 6 5 5 5 5 5 6 6 8 6 6 7 14 18 9 10 10 8 9 10 10 9 10 11 13 15 15 11 10 8 7 10 10 10 13 18 19 20 19
8 8 8 8 8 7 6 6 6 6 6 5 5 5 6 5 4 4 5 10 17 13 12 8 9 9 11 9 10 10 12 13 10 12 15 16 17 11 8 10 11 12 13 17 21 20 19
8 8 8 8 7 6 6 6 6 6 6 5 5 8 7 5 2 3 7 15 16 12 10 11 10 12 12 10 10 11 12 13 11 10 16 16 15 9 8 8 8 11 13 12 15 15 18
8 8 8 8 7 6 6 5 5 5 5 5 9 9 8 3 2 3 10 13 11 8 8 10 14 11 15 12 13 12 12 10 11 9 9 13 17 10 9 8 8 9 9 14 14 20 21
8 8 8 7 7 6 5 5 5 5 5 5 10 10 7 4 1 6 13 12 10 7 8 11 13 13 13 13 12 13 13 10 9 10 9 11 14 13 10 11 12 12 12 12 13 15 19
8 8 8 7 7 6 5 5 5 5 5 6 8 14 6 3 9 9 11 10 8 9 7 9 9 11 13 12 13 14 13 11 8 9 12 10 13 17 14 9 8 10 11 11 16 18 15
8 8 8 8 7 6 5 5 5 5 4 6 10 9 4 3 12 11 9 10 9 9 9 10 11 10 10 12 14 12 12 8 8 9 11 11 14 18 17 13 11 12 11 11 12 14 17
8 8 8 7 6 5 5 5 4 4 2 4 8 11 8 7 8 9 11 11 11 8 9 8 9 9 11 12 11 13 12 10 8 9 8 9 13 16 19 16 13 14 12 11 12 17 16
8 7 7 7 6 5 5 4 4 3 2 6 7 9 8 12 10 10 9 11 11 12 9 8 10 10 12 14 12 13 11 10 9 8 9 10 15 14 13 12 11 12 12 11 13 12 15
8 7 7 6 6 5 5 4 3 2 2 7 9 8 7 8 9 10 10 10 11 10 10 11 12 10 10 13 12 13 12 11 12 10 11 10 15 13 15 12 11 14 12 11 11 12 12
8 7 6 6 5 5 4 4 3 2 2 5 4 3 6 8 10 11 11 11 11 10 9 8 9 10 11 10 8 8 8 8 9 11 12 12 14 15 18 13 14 17 13 13 13 12 12
8 7 6 5 5 4 4 3 2 1 1 3 3 4 7 11 10 11 10 10 11 10 11 9 8 10 9 7 6 7 8 9 9 10 9 13 14 14 17 15 21 14 10 10 12 11 11
7 6 6 5 4 4 3 2 2 0 -1 4 3 4 7 11 9 10 10 10 9 9 10 10 8 7 6 8 11 13 13 13 11 10 10 10 13 16 18 18 15 13 11 12 12 13 10
6 6 6 5 4 4 2 2 1 -0 -1 2 2 2 6 10 11 9 11 9 11 10 11 10 7 6 8 11 12 17 18 15 15 14 10 10 11 15 16 19 21 14 10 8 8 16 9
7 6 5 5 4 3 2 1 0 -0 -1 -0 1 2 5 9 8 8 11 10 8 10 12 11 10 10 9 14 14 16 16 12 16 16 16 15 14 16 16 18 15 10 8 7 16 14 8
6 6 5 4 4 2 1 0 0 -0 -1 -0 2 2 5 8 8 7 7 8 9 10 13 11 11 11 13 14 14 14 15 14 14 13 14 15 16 16 16 17 19 8 9 12 11 8 8
7 6 5 4 3 2 1 0 -0 -0 -1 -0 4 4 3 6 7 5 5 5 6 7 9 9 10 10 11 13 14 14 14 13 13 17 10 16 13 15 14 14 9 8 10 9 8 10 10

GFSGBSN_con_lsi_120.txt.gz
Lid_Strength_Index
5 4 4 5 5 5 6 5 5 6 6 6 6 6 6 6 6 6 5 5 5 5 5 5 5 5 6 11 12 7 3 5 3 5 6 9 10 12 14 14 13 15 14 13 12 12 12
5 5 5 5 5 5 5 5 6 6 5 6 6 6 6 6 6 6 5 5 6 6 6 5 5 5 9 15 8 7 7 7 4 6 7 9 10 10 13 13 14 13 12 12 12 13 13
5 5 5 5 5 6 6 6 6 6 6 6 6 6 6 6 6 6 5 6 6 6 6 5 5 7 11 12 7 8 8 9 7 5 7 7 8 9 11 14 11 12 14 13 13 13 13
5 5 5 5 5 6 6 6 6 6 6 6 6 6 6 6 6 6 6 5 5 5 5 5 5 8 13 7 7 7 8 8 7 7 8 7 7 10 12 12 12 15 14 16 14 12 12
5 5 5 6 6 6 6 6 6 6 6 6 6 6 6 6 6 6 6 5 5 5 5 5 7 9 13 6 7 6 6 8 7 7 8 5 7 10 12 14 16 16 19 18 16 13 12
5 6 6 6 6 6 7 6 6 6 6 6 5 5 5 6 5 5 5 6 6 6 6 6 7 10 10 11 7 5 5 7 8 8 9 9 10 13 13 14 18 18 19 17 17 14 13
6 6 6 6 6 6 6 6 6 6 6 6 6 6 6 5 5 5 6 10 13 12 11 11 10 11 9 7 5 6 5 7 8 10 14 9 12 15 14 12 13 14 16 16 15 13 14
6 6 6 7 7 7 7 7 7 6 6 6 6 6 6 5 5 5 7 12 11 11 15 11 11 11 8 7 11 9 6 9 10 12 11 11 14 10 11 12 13 14 16 17 15 14 14
6 7 7 7 7 7 7 7 6 6 5 5 5 5 5 5 6 8 11 11 9 9 15 13 10 10 9 7 9 9 6 8 10 11 11 13 12 9 11 12 14 14 15 17 16 14 14
7 7 7 7 8 8 7 7 7 6 6 5 5 6 6 6 10 11 11 9 9 8 15 13 9 7 6 5 8 4 4 6 8 11 10 11 8 10 11 13 13 16 13 14 15 16 19
7 8 8 8 8 7 7 7 7 6 6 6 6 5 5 5 9 9 9 8 7 7 21 10 8 3 5 7 6 7 3 6 10 9 10 12 11 11 12 12 11 14 12 13 14 16 17
8 8 8 8 8 8 7 6 6 6 6 6 5 5 5 8 8 7 5 7 7 13 19 11 8 9 8 8 8 6 7 5 6 9 9 10 7 9 9 9 9 10 12 13 14 15 19
8 8 8 8 7 7 7 6 6 6 6 5 5 5 6 6 9 6 6 7 14 18 10 11 11 9 9 10 9 9 10 11 13 16 15 11 11 8 8 10 9 12 15 20 20 20 21
8 8 8 7 7 7 6 6 6 6 5 5 5 5 7 6 5 4 6 10 17 13 13 9 9 10 12 10 10 10 11 13 10 12 14 16 17 11 8 10 12 12 14 19 22 21 20
8 8 7 7 7 7 6 6 6 5 5 5 5 9 9 7 4 3 7 14 15 13 10 11 11 12 12 10 11 11 12 13 11 11 15 16 16 9 9 8 9 13 14 13 16 16 18
8 7 7 7 7 6 6 6 5 5 5 5 9 11 9 5 3 4 9 13 12 9 9 10 15 12 15 13 14 13 13 10 11 10 9 13 17 11 10 9 8 10 10 15 16 20 20
8 8 7 7 7 7 6 5 5 5 5 5 11 13 8 5 2 7 13 12 10 8 8 11 13 13 13 14 13 14 13 11 9 10 9 11 14 14 11 12 13 12 12 12 13 16 20
8 8 7 7 7 6 6 5 5 5 5 6 10 14 7 3 10 8 11 10 8 9 7 9 9 11 12 12 13 13 14 11 8 9 13 10 13 17 15 11 9 10 11 13 15 18 17
8 8 7 7 7 6 5 5 5 5 5 7 11 11 5 4 14 13 10 10 9 9 10 10 11 10 10 12 15 12 11 9 8 9 11 11 14 18 17 13 11 12 11 11 13 14 17
8 8 8 7 6 6 5 5 5 4 4 8 9 12 10 8 9 9 11 12 12 8 9 9 10 9 11 12 11 13 12 9 8 9 8 9 13 15 19 17 13 14 12 11 12 17 16
8 8 7 7 6 5 5 5 4 4 3 8 10 12 8 13 10 10 10 11 12 12 9 8 10 10 11 14 13 13 11 10 9 8 9 11 15 14 14 13 12 12 12 12 13 12 15
8 8 7 7 6 5 5 4 4 4 3 8 9 9 7 8 9 10 10 11 13 11 11 11 11 10 10 13 12 13 11 11 12 10 11 10 15 13 15 13 12 14 12 12 11 12 12
8 7 7 6 6 5 5 4 3 3 3 6 4 3 6 9 11 11 11 11 11 11 9 9 10 11 11 10 8 9 8 8 9 11 12 12 14 15 18 14 14 17 13 12 12 11 12
8 7 7 7 6 5 4 3 3 2 2 4 4 5 8 12 11 12 11 10 11 11 12 10 9 11 9 7 7 7 8 9 10 10 10 12 14 15 17 16 21 14 10 10 11 11 11
8 8 7 6 6 5 4 3 2 2 1 3 3 5 8 12 10 11 10 11 11 10 11 10 9 8 7 8 11 13 13 13 12 10 10 10 14 16 18 19 16 14 12 12 12 14 10
8 8 8 7 5 4 3 2 2 1 0 3 3 3 6 10 12 9 11 10 12 12 11 11 8 7 8 11 12 16 18 15 16 14 10 11 13 14 16 19 21 14 10 8 9 16 9
8 8 8 6 5 4 3 2 1 1 0 2 3 3 5 10 9 9 11 11 9 11 13 11 10 11 10 14 14 16 16 12 17 16 15 15 14 16 17 18 15 11 8 7 15 15 8
8 8 7 6 5 4 2 2 1 1 1 2 3 3 5 8 8 8 8 10 10 11 13 11 13 11 12 15 14 14 15 14 14 13 14 15 16 17 16 17 19 9 9 13 10 8 8
8 8 7 5 4 3 2 1 1 1 1 1 6 4 3 7 8 6 6 6 8 8 10 10 12 12 13 14 13 14 14 13 14 17 11 16 13 15 14 14 10 10 10 9 8 10 10